GFSSGP_700_rhum_000.txt.gz
RH
43 42 47 19 38 37 33 39 42 49 48 45 43 40 38 36 36 37 39 35 34 33 32 32 32 30 11 4 4 4 4 3 3 3 3 3 3 5 6 6 6 6 6 7 8 8 8 8 8
45 46 44 26 32 31 26 41 49 45 47 46 43 39 40 36 39 41 38 38 38 37 35 33 33 34 24 7 4 5 5 5 4 4 4 4 5 6 6 7 7 8 8 8 8 8 8 8 9
46 48 47 44 23 30 35 40 51 48 45 46 43 42 41 36 39 41 39 39 38 39 39 38 36 36 39 24 8 5 5 5 5 5 4 4 5 6 6 7 7 7 7 7 8 9 8 9 9
48 48 49 39 26 31 32 44 44 49 45 44 42 41 42 38 39 40 40 40 39 40 41 42 41 39 37 41 34 13 6 4 4 5 5 5 5 5 6 7 7 6 6 8 9 9 9 9 9
49 49 52 50 50 34 25 34 37 50 47 42 42 44 41 37 39 39 40 41 39 41 42 43 44 45 43 41 41 40 28 13 7 4 4 5 5 5 6 6 6 5 6 7 8 8 9 10 10
55 49 50 48 51 49 27 30 34 40 44 40 42 42 43 38 39 39 39 41 38 41 42 42 44 45 45 44 44 41 36 34 25 14 8 5 4 5 6 6 6 6 7 7 7 8 9 10 10
52 63 53 55 51 50 46 22 37 38 35 34 40 44 43 40 38 39 39 40 40 40 42 42 42 43 44 44 44 45 44 38 30 28 21 13 10 8 7 7 8 7 8 8 9 10 11 11 10
54 55 61 58 46 53 51 28 28 40 42 36 38 44 44 43 41 40 39 40 41 41 42 43 42 42 43 44 44 44 44 43 40 32 26 22 17 13 12 12 12 12 13 13 14 14 14 13 14
58 68 59 58 59 50 54 51 29 36 41 40 40 42 43 42 42 39 39 38 43 42 41 43 43 42 42 42 43 44 44 43 43 40 32 26 22 19 17 17 17 17 17 18 18 19 19 18 17
64 73 62 65 60 48 51 60 44 32 38 41 42 42 43 43 43 43 41 42 43 43 41 42 43 43 42 42 42 42 42 43 46 45 40 33 30 28 26 24 23 24 23 23 22 21 21 22 22
75 75 69 56 52 53 51 56 56 34 33 38 42 44 43 44 44 43 42 42 42 41 41 42 43 43 43 42 42 39 37 40 47 49 47 42 40 39 37 38 38 39 39 40 36 35 34 31 26
76 62 75 55 55 59 55 54 55 47 31 35 38 43 44 44 45 45 43 42 43 42 42 42 42 43 42 40 32 23 16 26 46 51 50 48 47 47 46 45 45 45 40 39 38 38 39 40 43
72 80 72 57 58 61 59 55 56 47 27 26 30 38 44 45 46 45 43 39 38 39 40 41 41 40 36 32 29 21 22 20 33 46 49 48 47 44 44 43 42 46 47 47 48 49 51 52 53
83 87 84 67 61 67 61 54 61 43 47 34 24 30 38 41 42 42 40 32 36 37 38 38 38 37 37 37 35 26 28 26 24 26 30 34 37 36 38 42 45 47 47 47 48 48 48 48 48
98 95 91 72 66 78 62 52 51 49 40 28 26 20 23 25 31 32 29 24 31 38 37 38 39 40 39 38 35 28 30 30 28 25 27 28 29 30 31 37 44 47 50 53 58 59 59 53 49
98 99 83 76 87 75 70 58 57 40 29 28 20 20 18 17 18 18 16 25 36 38 37 37 35 34 33 32 31 26 31 28 26 25 28 29 30 32 34 35 37 42 44 46 46 46 45 46 48
100 87 81 74 86 79 79 57 49 33 35 36 39 36 31 24 20 25 36 35 34 33 32 28 26 25 25 26 27 28 27 25 24 26 30 33 35 38 40 42 40 40 39 37 37 37 38 39 39
90 83 73 74 72 64 65 57 52 43 36 40 41 41 35 29 29 34 35 34 33 32 30 27 28 28 27 26 25 26 28 30 30 31 33 38 42 43 41 40 39 39 38 39 40 40 40 41 40
72 71 76 71 70 73 71 68 57 44 36 36 39 41 38 37 37 37 34 32 34 31 28 28 28 29 29 30 30 30 29 28 27 27 30 34 37 37 37 37 37 38 39 41 44 45 44 43 45
81 75 72 65 70 78 71 71 61 48 38 30 36 39 36 35 38 37 34 33 31 30 31 31 32 32 31 31 30 29 28 28 28 30 32 33 34 35 37 39 42 45 46 46 47 48 47 46 48
84 81 67 66 79 82 78 58 53 43 36 33 30 36 36 32 36 38 34 33 32 35 35 34 34 32 32 32 29 28 31 36 37 38 39 41 43 46 48 48 47 48 50 52 51 48 44 37 34
80 84 83 82 90 70 71 50 52 43 39 33 30 29 31 32 36 37 35 33 36 37 36 34 34 33 29 26 25 32 40 42 44 45 46 46 44 46 49 53 56 55 46 38 32 27 26 27 28
79 82 87 91 91 85 69 58 44 41 40 36 29 31 37 35 38 37 35 37 39 37 36 34 29 27 28 34 43 48 47 44 39 36 37 43 52 58 57 46 30 18 15 18 22 25 27 29 32
94 90 92 90 83 68 58 55 40 37 34 34 37 41 37 38 38 38 37 38 37 37 35 32 28 29 34 42 50 49 47 48 49 47 46 45 41 34 30 29 35 18 19 23 25 26 29 33 38
90 93 98 94 83 59 54 55 40 37 35 35 37 37 37 37 36 38 39 38 37 38 34 33 34 36 44 52 56 57 57 54 40 31 32 36 38 37 30 22 19 20 21 24 28 31 34 36 40
86 83 59 62 58 46 56 48 36 36 34 31 33 38 37 37 39 38 39 40 40 38 37 38 40 42 51 58 62 60 57 49 34 36 43 51 47 31 21 20 22 24 25 28 32 34 37 40 42
99 98 73 60 61 49 46 48 39 43 38 33 38 34 37 38 41 38 40 42 42 40 43 45 47 49 60 64 66 62 59 49 46 57 65 56 47 33 26 27 28 29 30 33 32 33 31 22 12
98 93 85 73 60 56 45 47 38 41 37 39 37 36 38 40 42 40 44 45 42 42 49 50 50 57 66 70 71 67 63 57 62 72 66 60 54 36 31 31 30 30 31 28 21 12 8 5 4
97 98 93 68 60 44 41 38 40 37 33 36 37 36 36 39 44 44 48 48 44 49 50 52 57 66 70 76 75 70 66 69 80 86 77 65 55 36 33 32 32 31 21 10 7 5 4 4 4
86 80 79 67 64 57 50 38 39 36 32 35 36 37 38 42 46 50 53 51 50 52 50 55 63 69 72 78 76 72 69 76 90 88 73 63 42 38 35 33 29 16 7 6 5 5 5 5 5

GFSSGP_700_rhum_003.txt.gz
RH
43 43 45 34 41 34 28 28 45 47 48 45 42 37 39 38 35 39 37 37 38 38 36 34 33 32 29 12 5 5 5 3 2 2 2 2 2 3 5 6 6 6 6 7 8 10 9 8 8
46 46 48 44 29 28 22 30 38 49 47 46 43 40 40 35 39 40 39 39 38 39 39 38 36 35 37 28 10 5 5 5 4 4 4 3 4 5 6 6 7 8 8 8 9 9 8 8 8
48 47 49 50 34 28 32 38 46 43 46 46 43 41 37 37 38 40 40 40 40 40 40 40 42 39 38 43 34 13 6 5 5 5 5 4 5 6 6 7 7 8 8 8 7 8 9 9 9
48 54 49 48 35 26 30 42 40 47 47 45 43 42 40 38 39 39 39 42 40 41 42 42 43 44 43 41 42 41 28 12 5 4 5 5 5 5 6 6 7 8 7 6 6 8 9 9 9
52 56 49 45 44 43 25 26 36 39 47 43 43 45 45 38 38 39 39 42 39 40 42 43 42 44 45 45 44 41 38 34 26 13 6 4 5 5 5 6 6 6 6 6 7 8 8 8 8
58 61 48 39 40 46 44 35 36 35 43 44 42 44 45 44 38 39 39 40 41 40 43 44 43 43 43 44 44 44 43 40 33 29 23 12 7 4 5 5 6 6 6 7 7 7 8 8 10
55 62 53 41 38 45 46 40 32 39 44 43 42 39 44 42 40 38 39 40 42 42 42 44 43 43 41 41 42 43 42 41 40 37 29 25 18 11 8 7 6 6 7 8 8 9 10 11 12
76 69 61 50 45 42 46 47 37 40 43 47 41 39 43 45 41 38 39 40 41 42 43 42 43 43 41 41 41 42 42 40 38 38 37 31 24 20 15 12 12 12 12 12 13 14 14 15 14
59 69 58 50 50 46 47 51 51 50 32 38 40 38 45 42 43 43 40 39 39 42 43 42 42 43 43 42 42 42 41 40 38 38 38 36 30 24 21 18 16 16 16 16 16 17 18 18 18
82 68 58 52 49 51 49 55 60 54 47 49 47 42 41 42 41 41 40 40 40 42 42 42 41 42 43 44 43 42 38 38 36 42 43 41 36 30 26 24 23 24 25 26 27 28 29 29 32
89 71 61 58 56 60 58 60 61 64 32 44 49 47 48 47 42 41 40 42 42 42 42 42 42 43 44 45 43 37 27 19 25 42 46 44 43 38 34 31 28 28 28 33 35 38 40 42 47
81 78 71 62 64 72 66 63 63 67 56 57 55 47 54 41 43 43 44 44 43 42 42 42 43 44 44 42 37 31 30 20 21 26 41 46 47 45 43 41 40 40 38 42 43 47 48 50 50
87 76 71 72 68 73 68 58 58 63 58 31 35 47 35 39 42 43 43 44 42 38 38 40 41 42 41 36 36 36 34 24 26 24 26 34 42 44 48 48 47 46 46 48 50 50 46 47 46
90 85 77 72 73 72 74 68 67 58 53 58 54 38 30 35 40 45 46 48 46 40 35 37 39 39 38 38 39 38 37 30 28 27 25 29 35 40 43 47 50 54 55 54 49 47 44 41 38
97 88 85 74 70 68 75 71 63 48 61 52 39 32 24 27 31 37 42 43 41 34 29 40 39 39 39 40 38 37 36 34 28 28 28 30 32 37 42 47 55 53 49 51 51 46 40 35 32
94 94 91 79 74 70 79 67 56 53 52 41 23 16 22 18 20 24 27 27 25 20 34 39 39 38 35 32 32 33 34 32 31 29 28 32 35 42 47 51 52 53 49 43 38 34 32 34 37
100 95 96 80 70 70 74 64 52 52 50 35 41 42 35 27 21 17 16 15 24 36 39 37 35 31 28 28 28 29 31 30 29 28 30 37 41 48 52 54 49 43 40 37 36 36 37 38 40
95 98 82 84 66 71 68 66 59 49 50 44 41 42 38 32 24 24 32 37 37 36 36 36 32 29 29 27 26 26 26 28 30 32 39 48 52 54 51 43 41 40 38 37 38 40 43 43 37
96 89 74 75 63 63 67 61 52 53 52 51 46 39 39 35 32 32 36 37 37 36 35 30 29 28 29 30 30 30 30 30 30 30 34 40 41 39 36 36 35 36 40 44 45 37 28 24 24
90 83 68 65 67 66 59 56 53 56 57 54 46 36 38 37 38 39 38 35 34 34 31 30 30 31 31 31 31 31 30 30 30 31 32 32 34 36 38 42 46 47 41 29 24 20 15 14 13
92 94 76 69 70 70 64 64 62 60 58 48 39 35 38 37 35 40 39 35 33 31 31 33 33 34 33 33 32 31 30 31 34 38 40 43 44 46 45 38 31 27 22 20 15 11 12 12 14
96 79 66 68 70 60 65 41 39 46 48 39 38 35 34 37 34 39 39 35 32 32 34 35 34 34 29 27 28 32 38 42 44 45 43 38 33 30 29 26 22 18 16 18 14 13 14 14 14
98 99 75 82 72 83 75 60 44 43 42 36 36 35 32 34 35 39 38 35 34 34 35 34 32 27 26 28 32 40 46 47 45 43 39 31 22 19 21 18 14 11 12 12 12 13 14 15 16
93 92 91 85 71 63 52 53 36 40 40 41 34 35 34 36 38 39 37 36 34 34 34 34 30 32 34 33 39 48 52 53 48 43 34 17 15 19 20 22 14 11 12 13 14 15 15 15 17
100 100 86 72 70 50 46 47 40 36 30 36 32 36 37 40 40 39 38 35 35 35 34 33 34 37 39 38 44 55 59 57 50 39 18 17 22 26 28 19 15 14 14 14 16 16 16 15 13
96 97 52 58 54 41 52 47 39 40 39 35 37 39 41 41 40 39 38 37 37 35 35 34 37 42 44 46 53 60 60 58 52 41 25 29 37 34 28 20 16 16 17 18 18 16 12 9 7
96 95 63 50 46 40 46 43 39 32 38 35 33 38 39 39 38 39 39 38 39 38 38 37 42 46 48 53 58 62 64 63 61 46 35 45 46 32 25 19 19 20 20 19 15 11 8 7 5
100 77 68 57 51 46 38 35 36 43 42 40 39 36 38 38 38 40 39 40 42 42 41 42 47 49 52 57 63 66 69 68 64 53 44 47 45 32 23 22 23 23 21 16 11 7 6 5 6
92 96 73 51 48 39 40 36 40 41 35 36 38 40 37 38 39 41 40 40 46 46 44 46 49 52 56 60 65 68 73 71 68 57 46 45 33 24 24 26 27 25 19 12 8 5 5 6 6
87 82 66 51 55 47 43 38 38 36 30 29 35 37 40 38 40 43 42 42 49 50 48 49 51 52 55 61 68 69 71 69 53 49 48 38 30 27 29 30 29 22 14 12 7 5 5 6 7

GFSSGP_700_rhum_006.txt.gz
RH
46 44 44 41 37 29 36 26 35 44 46 44 43 39 37 39 37 40 38 38 38 36 35 34 33 32 33 30 13 5 5 5 4 3 2 2 2 2 3 5 6 6 6 7 7 8 9 10 9
47 46 45 47 28 32 26 27 37 45 48 45 45 42 39 36 36 40 38 39 39 38 38 36 36 36 34 34 35 16 6 5 5 5 4 4 3 4 5 7 7 7 7 8 9 9 10 9 9
47 47 46 53 47 24 30 37 41 43 48 47 44 43 36 38 37 40 40 42 41 40 39 38 39 41 40 39 38 39 30 14 6 4 5 5 4 5 6 8 8 8 8 8 8 9 8 8 10
47 48 50 48 46 40 26 37 41 40 42 46 44 42 40 39 38 39 40 42 41 39 41 41 41 41 41 42 42 41 39 36 30 16 6 4 5 5 5 6 7 7 8 8 7 7 7 8 9
49 48 54 50 46 43 32 23 25 23 37 46 45 46 47 45 38 38 39 39 42 40 40 42 42 41 40 39 40 41 42 41 36 32 27 16 6 4 5 5 6 6 6 6 6 6 6 7 8
54 57 61 51 42 40 46 40 34 31 31 42 44 42 45 45 44 39 39 39 41 41 40 41 41 41 41 39 38 38 39 40 40 39 36 30 25 17 9 6 5 5 6 6 6 6 7 7 8
56 57 65 54 44 37 44 45 44 31 35 40 44 43 51 46 44 41 38 39 40 41 40 41 41 41 41 41 40 40 38 37 37 36 36 36 32 26 21 16 11 9 8 8 8 9 11 12 14
64 72 63 61 56 47 42 44 45 33 32 42 45 42 48 50 45 42 38 38 40 40 40 40 42 42 42 42 42 42 39 35 31 29 28 32 33 31 26 22 19 16 15 14 14 16 18 19 19
90 80 75 66 59 51 45 45 45 48 36 30 40 41 45 44 45 44 42 40 40 39 39 41 41 41 41 43 44 43 39 31 24 16 17 24 30 33 30 26 25 25 26 27 28 29 28 26 28
82 90 62 61 55 49 48 47 48 56 60 28 46 46 46 42 41 43 42 40 40 40 41 42 42 42 43 44 45 42 36 28 20 18 19 23 28 29 33 33 32 33 34 34 36 36 36 37 38
80 76 66 62 56 52 51 53 51 57 60 44 40 51 46 47 46 42 41 40 42 42 42 42 43 43 44 44 44 38 32 33 23 23 23 25 29 31 36 41 42 41 41 43 44 44 42 40 37
96 87 82 58 60 58 57 55 54 60 60 62 55 54 51 50 45 44 42 42 42 44 43 39 41 42 43 43 41 35 36 36 32 26 28 27 30 36 42 49 48 48 44 44 47 46 43 41 39
92 92 82 76 65 62 66 62 52 57 48 46 45 33 33 43 38 38 41 42 44 44 43 41 40 40 41 40 38 37 39 39 36 28 29 29 30 37 40 45 51 52 44 47 46 43 42 42 39
96 83 77 78 71 69 67 67 71 47 57 41 51 59 56 47 37 34 38 42 43 44 46 46 36 38 40 40 38 40 40 38 37 32 31 30 30 32 38 45 44 48 49 50 48 43 40 35 31
100 96 86 76 77 69 70 70 70 44 53 40 58 60 43 31 28 30 30 37 44 46 47 39 30 39 40 39 39 38 35 35 36 34 32 28 30 33 34 38 47 48 46 45 41 36 33 29 29
93 89 95 70 79 71 71 69 64 57 54 57 53 43 30 31 25 21 26 29 32 35 32 23 29 40 40 38 33 31 30 33 34 33 29 33 35 32 33 37 39 38 39 34 31 29 29 31 34
98 96 80 78 80 78 72 67 63 52 55 52 49 40 42 34 22 20 17 17 20 22 18 24 38 40 36 33 28 28 29 30 30 31 34 38 40 36 32 30 31 30 29 30 31 33 36 40 40
99 100 91 83 66 80 67 68 62 55 52 53 46 40 41 37 29 24 20 18 17 21 33 39 37 36 32 29 30 28 26 27 30 33 37 36 34 32 31 32 32 32 33 35 39 42 41 25 12
88 91 88 76 80 73 73 67 68 59 56 49 52 44 43 31 32 30 28 34 37 38 38 37 35 30 28 28 29 30 31 32 32 32 31 31 32 32 32 34 36 39 42 42 32 17 11 9 8
83 100 89 83 78 74 68 65 59 62 57 52 52 51 45 29 37 37 36 38 38 37 36 34 30 30 30 31 31 31 31 31 32 32 33 34 36 39 42 42 39 32 23 17 11 7 6 6 6
93 92 94 91 71 75 68 64 59 55 50 51 54 55 48 33 38 38 40 39 37 34 33 31 31 33 34 34 32 31 30 31 33 36 41 44 44 39 33 27 20 11 9 8 6 6 6 6 6
87 75 98 88 90 84 67 60 48 43 53 54 59 55 46 30 37 37 40 39 36 33 31 33 34 34 33 28 26 30 34 41 46 47 46 44 38 30 18 8 9 10 9 7 6 6 6 7 7
83 78 94 76 100 85 66 61 35 40 48 56 50 54 47 37 36 37 39 39 36 33 33 35 35 32 27 30 31 34 43 48 50 52 46 37 24 9 7 10 10 10 8 6 6 7 8 9 9
79 88 88 100 100 97 86 62 48 46 44 47 44 41 38 38 34 38 38 38 36 34 35 36 35 31 34 36 36 38 43 50 52 49 41 27 10 6 10 11 10 8 7 7 8 9 9 9 10
98 99 96 100 99 82 61 62 40 40 42 41 42 41 38 38 34 37 39 38 36 36 38 37 35 34 38 41 41 42 45 49 49 42 30 19 9 8 11 11 11 9 8 9 10 11 10 11 11
98 92 100 96 98 58 47 50 45 44 39 32 35 34 36 38 38 39 40 39 38 38 39 38 36 37 40 43 43 43 47 49 46 40 34 23 14 12 14 13 11 10 11 12 13 13 12 12 10
98 100 86 100 40 52 51 44 42 40 41 39 32 33 36 37 40 40 40 40 40 40 41 41 39 38 41 44 45 46 50 51 49 47 43 32 19 18 18 13 12 13 15 16 16 15 13 13 10
97 76 99 96 56 65 51 44 39 32 32 38 34 32 36 42 41 41 40 41 40 42 44 43 41 41 43 46 48 50 53 55 54 50 45 35 19 18 15 14 15 16 19 20 18 16 14 14 11
100 99 96 92 48 56 61 44 39 40 40 39 39 36 36 38 39 40 39 40 40 43 47 45 44 44 46 49 50 52 57 57 54 52 47 29 21 19 17 17 18 21 24 22 18 17 17 16 10
92 99 90 54 56 46 45 45 41 39 34 35 37 38 39 38 38 39 39 40 42 43 47 48 48 49 50 50 51 54 59 58 55 51 40 30 25 23 21 20 22 25 24 20 20 21 20 14 8

GFSSGP_700_rhum_009.txt.gz
RH
46 46 44 45 19 32 29 26 35 46 46 48 47 41 40 38 39 38 38 36 38 36 35 33 32 34 35 33 34 26 8 5 5 5 4 3 2 2 2 3 6 7 7 7 7 7 8 9 10
46 47 45 44 32 34 30 32 39 46 45 44 43 44 40 38 36 38 40 38 38 39 38 36 34 35 38 39 37 37 37 26 10 5 5 5 4 4 4 6 7 7 7 7 8 8 9 9 9
46 47 46 45 51 36 28 37 44 45 49 45 44 44 40 38 37 38 40 40 40 40 39 38 35 37 38 37 39 39 39 38 35 28 11 5 5 5 5 6 7 7 8 8 9 9 8 8 8
48 47 48 49 40 38 42 24 29 41 44 46 45 46 43 39 40 38 40 40 40 40 40 38 36 38 38 35 35 36 37 38 39 38 33 28 14 5 5 5 6 6 7 7 8 8 7 6 7
52 48 48 52 46 42 46 35 23 33 34 39 47 45 46 43 40 38 38 40 40 42 40 38 38 38 38 37 36 36 35 34 35 36 37 36 31 26 21 10 6 5 6 6 6 6 7 7 8
55 53 55 48 42 38 42 45 43 29 27 34 43 45 45 45 45 45 41 39 40 41 41 40 39 40 41 39 38 38 36 34 30 29 28 30 33 32 27 23 18 12 10 8 9 9 10 12 13
57 57 59 53 43 45 46 46 46 45 30 40 42 46 44 47 47 45 44 39 40 40 41 40 40 42 42 41 41 42 38 32 27 22 15 15 22 28 29 25 22 19 17 17 17 18 19 20 21
62 61 56 57 47 38 44 48 44 43 41 36 42 45 47 50 50 48 43 39 39 40 41 40 41 43 42 42 43 43 38 29 26 17 14 14 18 24 28 27 27 26 27 29 30 31 30 30 30
66 75 62 54 52 37 45 54 45 45 44 37 35 43 46 46 46 47 46 43 40 40 40 39 42 43 42 43 44 44 38 29 28 17 20 21 19 21 28 29 31 30 32 33 36 36 36 36 35
62 67 56 48 48 45 43 52 49 47 46 48 30 38 51 49 46 42 44 43 42 40 40 42 42 43 43 43 43 41 36 32 32 23 22 23 22 24 27 28 28 30 33 34 37 38 39 38 38
45 54 46 40 54 50 54 53 53 50 49 48 47 47 55 50 54 53 40 40 42 41 42 43 43 41 40 41 40 40 36 35 36 33 26 26 23 24 27 32 37 36 37 39 39 42 38 33 30
47 46 62 43 48 50 55 60 54 53 50 46 50 47 49 55 53 54 44 44 42 42 43 44 42 40 40 39 38 37 37 36 38 37 29 28 25 26 27 29 27 28 30 32 30 29 31 32 32
63 55 69 49 46 53 61 65 64 58 52 52 39 44 36 40 50 51 44 42 40 43 44 45 44 43 40 37 37 37 36 37 38 38 34 29 28 28 28 27 29 28 28 28 29 30 30 26 24
94 86 72 77 80 70 61 63 68 53 51 49 43 30 46 50 48 36 34 36 37 41 42 43 46 45 38 36 39 39 38 37 35 36 34 31 31 32 30 32 35 30 29 29 26 24 23 23 24
97 91 82 66 76 82 78 72 65 64 52 50 41 39 62 64 45 35 26 31 34 38 41 44 47 43 31 37 39 40 39 33 32 33 34 32 34 33 32 32 33 31 26 27 27 27 28 29 32
83 84 84 85 75 71 80 74 69 59 58 58 56 50 54 52 43 39 28 25 29 30 33 38 35 29 26 36 40 39 33 29 30 33 35 36 35 35 35 35 30 29 30 30 30 32 34 36 34
87 99 96 86 78 80 76 74 66 68 62 60 54 52 46 44 38 31 24 24 23 24 25 24 23 22 28 38 38 35 28 30 31 34 38 37 37 35 33 31 32 32 32 35 37 38 30 16 9
87 86 90 95 69 78 78 74 66 63 56 57 54 49 46 42 38 37 26 22 21 19 19 22 22 34 37 37 34 29 30 27 29 33 37 36 34 33 32 34 35 38 40 39 31 18 11 8 6
89 80 90 78 85 84 72 71 65 59 60 59 55 54 48 42 41 36 30 25 22 22 24 33 39 38 37 32 28 28 30 32 33 33 33 34 34 34 37 42 43 38 28 18 8 6 7 6 5
73 91 72 88 88 95 71 71 65 59 59 57 51 51 52 47 43 32 36 29 32 39 39 38 38 36 30 30 31 32 32 32 33 34 34 36 39 44 44 38 31 20 8 7 8 8 6 5 5
82 84 80 76 69 80 95 86 70 64 70 61 54 56 55 52 52 34 37 36 39 39 39 37 34 31 30 32 34 33 32 31 32 36 42 47 47 44 37 24 9 6 8 9 8 6 5 5 5
91 67 86 94 92 96 88 85 66 64 69 66 57 52 54 54 55 37 38 41 40 39 36 33 32 32 34 34 30 27 31 36 42 48 50 51 46 36 20 5 5 8 9 9 7 6 6 5 6
75 72 87 90 88 99 87 96 68 60 68 61 49 52 53 57 56 36 38 41 41 38 35 33 34 35 34 28 31 33 36 39 44 50 52 47 36 21 8 5 7 9 10 8 7 7 7 7 8
83 94 87 92 92 98 96 98 72 61 50 45 53 57 56 59 57 44 38 40 40 37 35 35 37 36 31 36 39 40 40 42 46 47 41 31 19 11 7 7 8 9 9 8 8 8 9 9 10
90 96 91 98 97 87 75 91 79 46 38 38 42 53 55 58 51 48 38 39 40 37 36 37 38 35 37 41 44 44 44 45 45 43 36 26 18 14 9 7 9 9 9 9 9 10 12 12 12
77 78 85 93 83 66 73 99 74 45 40 44 44 45 54 51 38 40 40 40 40 38 38 39 39 37 39 42 46 46 45 47 46 42 37 36 30 23 12 10 11 11 11 11 11 13 14 14 14
67 97 59 95 73 84 97 95 55 47 43 44 42 42 41 34 35 40 42 41 40 40 40 42 41 39 40 43 46 47 47 49 52 49 45 41 37 30 20 14 14 13 13 13 13 15 15 16 17
58 65 90 99 98 96 89 65 56 40 41 39 37 38 38 36 38 45 45 42 41 42 42 43 43 43 42 44 47 48 49 51 56 57 54 49 43 33 23 18 15 16 16 15 16 17 18 19 21
94 99 90 93 94 99 97 54 40 43 40 39 36 32 30 32 35 37 42 42 42 44 44 45 46 45 45 47 51 51 51 53 58 61 58 53 43 31 24 20 18 18 17 18 19 20 22 23 22
93 99 85 77 84 99 48 47 40 36 33 37 36 34 35 37 40 40 41 42 42 45 44 47 48 48 50 55 57 54 53 55 60 63 58 52 37 27 25 21 20 19 20 22 22 23 25 25 22

GFSSGP_700_rhum_012.txt.gz
RH
44 46 44 43 36 24 23 30 33 49 49 43 46 44 41 36 38 38 38 36 34 36 37 34 34 34 35 36 36 35 36 34 22 7 5 5 4 3 2 2 4 6 6 6 6 6 7 8 9
45 45 45 45 47 34 32 40 35 39 46 47 48 45 40 39 38 36 38 38 37 37 39 36 36 36 35 33 32 35 38 38 36 34 23 8 5 5 5 5 6 6 7 7 8 8 9 9 9
47 46 45 46 43 40 31 29 36 46 48 46 43 44 42 39 38 38 40 40 40 40 39 38 35 35 36 34 32 31 32 34 36 37 35 32 25 9 5 5 6 7 7 7 8 8 8 8 7
48 48 47 44 37 42 34 26 24 32 44 49 45 43 43 39 39 38 39 41 41 41 40 38 37 36 38 36 34 34 32 32 31 32 33 35 33 30 24 8 5 5 6 7 7 7 7 7 7
52 48 48 46 36 33 46 45 34 40 34 35 46 46 46 42 40 40 39 40 40 42 42 39 38 40 41 39 37 37 34 28 27 24 24 25 29 32 30 23 16 10 8 7 7 7 8 9 10
57 52 52 45 35 32 45 45 45 44 45 30 40 46 46 47 46 45 41 39 40 40 41 40 40 41 42 41 40 40 36 28 24 21 13 12 13 22 27 27 23 20 17 15 14 14 15 15 16
45 57 50 45 38 34 40 48 42 46 46 39 35 44 45 44 46 47 45 44 40 40 41 41 40 42 42 42 42 42 39 30 23 19 14 14 12 16 22 24 24 23 22 22 23 25 26 27 28
45 58 57 52 43 32 40 49 48 46 45 43 36 45 45 45 47 49 46 44 41 40 41 41 40 42 43 42 43 43 40 31 25 21 18 20 18 16 18 22 24 23 24 25 26 29 29 30 29
42 64 58 47 43 28 37 51 51 52 47 44 42 42 47 49 49 49 48 46 43 41 41 41 40 43 43 43 43 42 39 33 29 25 18 22 22 22 22 24 25 25 26 26 28 30 30 32 32
45 53 48 30 32 29 30 46 53 53 50 48 44 38 44 47 48 46 46 45 45 44 41 40 42 44 43 43 41 38 37 35 32 29 24 22 24 24 26 27 27 26 27 27 29 30 30 30 30
46 43 44 36 34 36 32 38 44 55 55 51 49 45 54 52 51 49 46 43 43 43 43 42 43 44 42 41 39 35 35 36 34 35 34 22 26 25 27 26 26 27 28 28 29 30 30 29 27
48 42 43 38 40 41 42 37 49 54 55 58 54 46 50 56 54 61 53 43 41 40 42 42 44 44 41 42 39 36 35 35 36 37 36 32 27 27 25 26 28 27 27 27 28 26 23 21 22
57 47 44 41 40 50 50 50 56 55 58 62 59 55 48 51 54 60 61 56 45 42 42 43 44 44 45 45 41 36 37 36 36 35 35 35 31 30 28 28 29 29 30 30 26 24 25 27 27
56 71 60 54 45 45 52 49 57 52 56 59 63 55 48 40 42 50 51 53 48 41 36 43 45 45 46 46 38 36 37 38 36 31 31 33 35 33 34 34 33 32 31 28 27 28 28 30 33
73 69 75 60 53 67 70 60 50 58 56 50 52 49 38 37 47 42 37 38 34 34 36 39 43 44 47 43 34 34 39 38 35 29 31 34 38 38 39 37 36 32 32 30 29 32 36 37 34
83 80 83 65 76 66 81 51 48 60 63 56 50 46 41 50 58 48 50 48 35 25 31 36 40 43 42 34 30 34 40 38 33 30 33 40 42 42 40 39 36 34 32 32 38 39 35 22 11
96 98 95 90 72 84 82 55 53 54 60 60 52 51 56 55 53 50 38 30 33 31 29 32 30 31 30 26 29 39 39 36 31 33 39 40 44 42 37 37 35 34 39 40 37 25 14 6 6
90 87 75 75 80 76 74 71 74 64 63 63 52 54 57 57 47 46 41 39 28 25 24 26 28 26 24 26 41 39 36 31 31 33 37 41 40 39 39 38 40 43 41 33 22 9 6 8 8
85 88 88 86 94 83 83 86 81 74 60 60 57 51 57 50 47 48 40 39 28 25 24 24 28 24 25 40 38 35 29 29 33 34 38 36 36 36 40 45 44 39 31 14 6 8 8 8 8
79 95 88 86 80 86 86 87 86 65 68 66 55 60 61 48 53 48 40 38 30 28 24 26 27 36 40 38 32 30 31 33 34 35 36 36 38 45 48 46 38 22 6 6 8 9 9 8 6
60 66 75 82 44 71 85 80 77 62 63 66 56 60 62 56 52 51 48 37 34 30 33 38 40 39 34 32 31 32 34 34 32 34 38 46 50 52 48 38 21 6 7 9 10 10 9 8 7
83 69 72 77 94 95 69 82 73 62 53 61 57 58 60 59 56 56 52 45 36 37 41 40 38 34 32 32 34 35 32 32 37 43 48 54 55 49 38 21 10 8 8 9 10 10 9 8 7
88 80 76 83 96 92 74 96 80 68 72 57 48 56 58 64 57 57 54 53 38 40 40 38 35 33 34 35 34 31 35 38 42 47 51 51 45 35 24 16 10 8 8 9 10 10 10 9 9
95 96 94 93 93 97 73 84 67 62 55 52 55 53 52 67 60 55 56 56 38 42 40 36 34 34 36 34 33 38 41 42 45 48 48 44 37 31 24 17 12 10 10 11 11 10 10 10 10
81 89 88 99 95 82 61 76 71 59 45 50 50 51 60 66 56 56 57 56 39 41 40 37 36 37 36 34 40 44 44 44 47 48 44 42 39 35 30 24 17 13 12 12 12 12 12 12 12
82 86 79 91 99 71 64 83 72 43 38 52 48 53 54 54 52 56 58 58 45 40 40 38 38 38 36 40 44 45 45 46 48 50 53 54 50 44 38 27 18 14 14 14 13 13 13 14 16
81 97 54 88 75 80 68 70 40 30 32 49 50 46 44 53 55 58 59 59 53 42 40 40 42 40 38 39 41 44 47 49 50 52 55 60 59 54 46 33 21 17 16 15 14 14 14 16 17
79 64 95 91 99 90 79 86 60 40 45 41 43 43 41 49 57 59 59 57 51 43 41 43 44 42 42 42 43 47 51 52 53 54 56 61 64 62 53 34 23 21 18 17 16 16 18 18 18
100 92 79 71 68 98 82 75 44 41 47 48 48 45 44 47 49 54 50 56 51 43 43 46 46 45 46 46 47 51 56 58 56 56 59 63 67 64 49 28 25 21 19 18 17 18 19 18 18
87 74 86 79 66 73 99 69 60 41 40 43 48 39 41 44 44 47 54 58 52 45 45 47 48 50 50 50 53 58 62 62 59 60 63 68 70 61 34 28 23 21 19 18 19 19 19 18 19

GFSSGP_700_rhum_015.txt.gz
RH
43 44 43 44 44 22 26 30 35 49 46 47 45 45 43 39 36 38 39 38 35 34 36 35 32 31 32 31 31 33 35 36 36 34 23 8 5 5 4 3 4 5 6 6 6 6 7 7 8
44 45 44 45 43 41 26 33 35 43 48 48 48 46 44 43 38 37 38 38 37 36 37 36 34 34 33 31 31 30 31 32 35 37 35 32 21 6 5 6 6 7 7 7 8 8 8 9 9
43 46 46 45 44 44 32 31 38 46 47 48 45 46 44 42 39 38 39 39 39 39 40 38 36 35 34 34 33 33 30 30 28 30 32 34 33 29 12 6 5 6 6 7 7 8 8 8 8
49 48 48 45 38 35 34 32 25 30 40 50 48 46 44 43 40 38 38 38 41 40 41 40 37 38 39 38 36 36 32 27 24 23 22 24 28 32 28 23 12 6 6 6 6 7 7 7 7
45 48 49 45 33 30 41 40 40 32 34 33 44 47 46 42 39 39 38 39 41 41 42 41 39 40 42 41 39 38 35 27 22 18 13 11 13 23 30 27 22 18 14 11 8 7 8 8 9
47 48 53 43 29 30 33 46 46 43 42 45 42 34 46 46 42 40 40 40 40 40 41 42 40 41 42 42 41 40 37 30 24 18 15 14 10 11 19 25 25 22 20 18 17 17 17 18 19
37 48 46 40 31 31 30 43 46 44 41 47 45 32 38 46 47 46 45 43 40 40 41 41 42 41 43 42 42 41 37 33 28 22 18 19 18 15 15 16 18 21 22 23 23 25 26 26 26
39 55 54 43 36 26 29 38 49 45 43 47 45 36 37 46 48 47 46 45 44 40 41 41 42 41 43 43 42 41 38 35 31 26 20 21 21 22 21 21 20 23 25 24 25 25 27 28 29
41 58 45 38 34 25 26 35 49 49 49 48 47 45 40 45 46 48 46 45 44 41 40 41 42 41 44 44 43 40 36 35 33 29 28 21 24 24 25 25 26 28 29 28 28 28 29 29 29
46 47 44 35 35 30 32 36 50 51 52 51 49 49 46 44 48 49 48 47 47 45 43 42 42 41 45 45 43 39 35 34 34 32 32 30 23 26 26 26 28 30 29 27 28 30 30 31 32
49 40 42 39 38 39 35 35 41 49 53 51 57 56 52 43 45 46 46 46 46 46 44 43 42 44 45 45 42 41 37 36 34 35 35 33 28 26 27 27 28 28 29 29 30 31 31 29 28
52 45 48 40 42 46 39 35 37 42 46 56 60 59 55 52 44 43 46 45 45 44 43 43 43 44 45 44 43 42 39 37 36 38 38 35 36 30 30 28 29 29 30 31 30 26 25 26 27
50 39 49 53 45 46 48 41 40 38 45 54 58 60 60 57 53 50 55 48 42 42 42 45 44 44 45 44 44 44 40 37 37 38 38 36 38 37 35 31 31 31 33 32 29 28 28 28 31
58 60 52 50 47 48 49 44 44 35 40 54 58 61 62 60 54 50 54 59 57 45 36 44 43 44 44 44 45 44 40 38 39 37 39 35 39 41 38 34 35 34 34 32 30 28 30 37 36
71 60 61 61 48 49 49 39 35 37 35 42 56 59 60 56 50 50 49 47 56 53 53 49 45 42 44 44 45 43 39 36 39 38 36 34 40 42 38 38 37 34 34 33 30 36 38 32 22
97 85 70 51 53 57 54 36 59 37 33 36 49 54 60 53 45 42 38 42 45 40 39 41 40 41 41 44 45 42 34 36 40 39 34 37 44 43 42 39 36 35 32 34 41 39 32 22 9
98 99 91 90 67 62 59 47 46 37 48 34 35 42 46 46 41 36 37 38 50 47 46 42 35 40 40 41 42 35 34 42 42 38 39 42 45 45 42 35 32 32 38 42 39 32 18 5 7
98 99 93 83 74 75 74 70 83 69 64 48 46 50 43 46 50 53 40 49 44 39 33 29 33 39 41 34 33 32 42 44 40 38 39 38 43 42 37 33 34 42 43 40 29 9 5 7 8
97 89 98 97 92 79 67 77 73 58 60 59 43 55 51 55 58 56 49 46 44 42 39 33 27 29 37 35 30 34 43 40 39 38 39 38 37 39 34 41 46 46 41 25 6 6 8 9 10
87 93 91 91 85 82 76 60 63 61 58 58 48 46 46 53 57 54 50 49 50 42 40 34 31 30 30 30 36 44 43 39 35 37 37 36 35 39 46 49 50 42 23 8 7 8 9 10 11
70 78 82 77 56 61 75 58 46 45 50 50 43 44 41 46 60 62 49 52 47 44 36 34 30 30 31 38 43 39 35 35 36 37 34 36 44 50 54 52 40 23 12 8 8 9 10 11 11
90 78 70 70 82 94 60 61 42 44 32 37 42 45 48 56 62 63 52 53 53 53 36 36 33 36 41 39 36 35 37 36 34 35 40 46 52 55 50 38 28 18 13 10 11 13 14 15 14
97 80 87 85 83 86 75 95 68 50 31 37 49 48 44 55 64 63 58 52 55 54 40 42 42 40 37 34 35 35 36 33 37 40 46 51 51 48 40 32 25 19 16 14 14 16 16 16 15
89 87 93 100 100 96 86 86 56 46 37 26 45 45 40 51 61 64 60 61 56 56 46 42 40 37 35 34 35 36 34 40 41 44 48 49 48 46 45 41 32 25 19 16 17 18 18 17 14
94 98 97 98 97 84 63 73 60 44 51 33 22 40 44 40 58 62 59 66 56 56 50 42 39 36 35 36 36 35 42 44 46 48 50 53 56 57 57 53 44 33 21 17 18 19 19 16 14
85 82 91 91 94 83 55 71 52 40 28 19 33 36 50 49 52 61 62 67 58 57 52 42 40 37 37 37 37 42 46 48 49 50 51 52 54 56 60 61 55 40 22 18 20 20 18 16 16
98 98 69 84 82 97 69 57 49 31 28 26 22 35 41 52 53 57 60 67 57 58 53 43 41 38 38 37 43 47 48 50 52 53 54 54 56 58 61 64 62 42 21 20 21 20 18 17 17
96 83 96 98 96 90 65 77 56 38 27 19 24 30 40 44 52 58 61 56 54 58 53 45 41 41 40 41 46 48 49 51 56 58 58 58 60 62 63 68 65 39 21 22 21 19 18 18 18
95 100 97 95 78 91 85 48 43 40 43 37 29 26 49 47 50 50 60 54 56 58 56 45 42 43 42 43 46 48 52 56 60 64 64 64 64 65 68 71 59 24 24 23 20 20 19 19 19
76 70 90 95 81 71 72 71 51 58 61 38 46 54 45 50 43 45 60 58 59 60 56 46 46 45 44 46 48 51 57 62 66 69 69 67 66 68 71 70 32 25 24 21 21 20 20 19 19

GFSSGP_700_rhum_018.txt.gz
RH
43 42 43 44 41 37 24 23 32 48 43 44 47 46 40 39 39 39 37 38 36 35 34 35 32 32 31 30 30 29 30 32 33 34 33 28 8 5 5 4 4 5 6 6 7 6 7 7 8
39 44 44 45 43 43 36 22 36 45 48 49 48 46 45 42 38 36 38 37 37 37 36 37 34 31 33 32 32 29 27 27 28 30 34 34 31 15 6 6 6 7 7 8 8 8 9 9 9
37 44 46 47 44 41 37 34 38 43 48 48 46 47 45 43 40 38 38 38 39 38 39 39 36 34 35 34 34 33 26 23 23 22 24 29 34 30 24 11 6 6 6 7 7 8 8 8 8
41 42 48 47 38 35 34 36 30 40 39 40 48 46 46 44 41 39 39 40 39 39 40 41 38 39 40 38 36 36 32 25 20 16 14 13 20 30 30 25 20 15 8 6 6 6 7 7 8
39 41 46 48 35 33 33 36 32 28 32 29 32 46 47 44 41 39 40 41 40 40 40 42 40 41 42 40 40 39 35 29 24 18 15 13 11 15 24 27 24 20 18 16 14 12 11 10 10
38 39 53 42 28 30 34 36 43 33 38 38 43 44 40 47 42 40 40 40 40 40 41 42 42 42 43 42 41 41 37 32 29 23 18 18 16 14 16 22 24 23 22 21 21 21 22 23 24
35 39 43 37 29 29 29 36 42 45 43 42 46 45 36 38 47 43 41 40 40 40 41 41 42 42 43 44 42 42 38 34 32 28 22 20 21 21 18 19 20 20 20 23 25 24 25 25 24
40 46 44 37 33 27 27 33 37 47 45 42 44 44 39 37 43 47 47 45 43 41 41 41 42 43 43 44 43 42 38 36 34 32 29 23 24 25 25 26 26 26 27 27 30 29 28 28 29
44 56 44 37 34 28 27 30 35 45 49 44 45 46 46 42 38 46 48 47 45 44 41 41 42 42 42 45 44 43 38 36 35 34 33 32 26 26 26 28 30 32 33 34 34 33 32 31 30
49 52 42 38 36 34 34 37 41 44 51 50 50 49 48 48 44 44 46 48 47 44 42 42 42 42 42 45 46 43 41 38 37 36 35 35 34 28 29 30 30 31 33 33 32 30 31 30 28
54 47 40 38 36 37 34 35 39 46 53 53 54 55 58 53 49 45 48 48 47 47 46 44 43 42 42 46 46 44 43 40 39 38 37 37 35 35 30 32 32 32 33 34 33 31 30 28 28
44 36 40 40 42 41 37 36 34 38 44 52 54 57 58 58 55 52 43 44 47 47 46 45 44 44 45 46 47 45 44 42 40 39 39 39 38 36 37 36 35 36 35 34 33 30 28 29 27
65 52 47 45 45 40 41 38 34 32 34 41 46 56 58 59 57 55 52 46 42 41 45 44 44 44 46 46 47 46 46 45 42 40 39 41 42 39 42 40 37 35 34 32 31 30 29 27 34
65 53 52 50 48 43 38 33 42 22 30 35 39 52 60 59 57 56 54 54 55 53 44 44 45 47 47 46 45 47 47 46 44 41 41 43 43 42 43 43 39 38 35 33 31 28 30 36 36
51 51 53 51 41 39 38 31 26 25 26 29 35 43 58 61 59 52 54 53 53 50 52 52 48 50 50 48 47 44 46 46 44 42 42 44 42 42 42 44 42 39 36 33 29 33 38 35 29
92 98 78 53 46 47 50 30 33 45 31 23 28 34 47 58 58 53 52 52 49 43 40 51 54 52 52 49 48 46 45 47 47 41 44 45 40 39 44 46 44 39 35 32 38 40 37 27 9
85 95 96 95 88 75 66 60 44 38 33 28 25 26 34 45 55 46 49 51 46 39 35 45 49 50 48 50 48 46 45 49 43 40 47 41 39 43 47 46 42 36 37 41 41 39 25 5 5
81 92 94 94 95 71 64 80 56 46 46 34 30 29 26 33 45 51 48 50 45 38 39 50 45 46 43 43 48 48 44 43 37 45 46 43 44 48 48 40 36 40 45 44 41 26 6 6 8
92 90 93 98 94 91 72 59 48 51 50 37 29 30 32 31 32 39 46 56 49 44 48 42 38 38 34 36 47 49 42 37 46 58 48 45 52 51 41 37 45 48 47 41 22 8 7 9 10
96 95 99 94 71 57 53 41 41 40 44 34 33 26 28 36 35 36 48 62 56 50 46 42 40 40 38 36 38 46 46 41 59 52 49 52 49 39 41 48 50 47 36 20 12 9 9 12 15
95 97 98 75 54 51 57 34 30 25 25 26 28 26 24 29 34 39 57 60 56 49 52 44 41 38 38 38 39 50 43 51 51 44 46 45 39 44 48 48 43 33 24 17 14 12 14 16 18
81 75 68 73 89 98 61 69 46 38 28 21 20 21 23 27 42 38 54 60 53 50 49 52 43 39 34 35 40 49 50 48 44 42 40 39 45 47 46 41 36 29 26 20 16 16 17 19 20
98 80 77 90 93 94 96 96 61 46 35 26 20 19 18 23 39 42 49 58 57 52 53 54 44 41 35 37 46 49 44 42 38 36 39 44 47 46 44 47 50 46 37 29 22 17 18 21 22
95 96 94 97 97 97 86 90 55 48 33 28 24 22 20 21 32 42 57 63 61 54 54 56 46 44 43 42 39 39 38 38 37 41 44 47 49 52 54 56 56 55 52 44 30 18 19 22 22
97 98 97 98 97 84 65 80 63 43 39 37 29 18 18 36 36 43 57 64 62 56 56 57 51 43 40 37 36 36 37 37 44 47 49 50 51 52 54 55 54 55 59 58 37 17 20 22 21
90 86 93 94 94 86 65 76 56 44 37 39 30 21 21 36 41 40 53 65 62 60 62 56 54 43 39 37 36 37 37 42 46 51 53 52 54 56 58 59 59 59 63 63 33 17 22 22 20
99 98 71 92 95 97 66 57 46 42 28 30 22 22 20 27 45 46 48 60 65 62 63 58 56 43 40 38 38 37 40 47 49 53 54 57 59 61 62 62 64 64 65 65 22 20 23 21 20
92 95 98 98 96 92 72 60 59 47 60 51 43 40 21 26 44 53 56 49 65 65 67 60 55 44 41 40 39 39 46 49 50 54 57 62 65 66 66 66 67 68 68 53 20 23 22 21 20
92 100 99 92 96 91 85 49 32 40 58 55 48 30 35 25 28 35 57 50 60 66 67 60 55 45 42 42 40 43 48 49 52 56 60 66 70 71 69 68 71 72 71 25 23 22 21 22 21
79 67 60 87 84 90 70 56 49 56 54 50 73 57 33 32 28 54 54 54 56 69 63 60 55 47 44 43 44 48 49 51 55 60 66 71 75 75 72 72 75 73 39 24 23 22 24 22 22

GFSSGP_700_rhum_021.txt.gz
RH
40 42 43 43 40 42 29 19 28 44 42 36 33 45 42 40 41 41 39 37 35 35 36 35 32 30 30 30 28 26 27 28 30 34 33 31 14 6 5 4 4 5 6 6 7 7 7 7 8
37 41 43 45 42 41 38 23 32 44 48 48 43 47 47 43 44 38 37 37 37 38 37 36 34 32 32 32 32 29 23 22 23 24 28 33 31 22 6 6 7 7 7 7 8 8 9 9 9
31 38 45 48 45 37 35 32 28 43 48 49 47 47 45 44 46 42 39 39 39 39 38 38 37 35 36 35 34 33 28 23 19 16 16 21 31 30 22 11 6 6 7 7 7 8 8 8 8
31 36 46 48 38 36 33 34 34 42 42 46 48 47 46 44 41 40 39 41 43 41 38 40 39 38 39 38 36 35 33 28 23 16 14 12 16 28 29 24 19 13 9 7 7 7 7 7 7
29 32 42 47 34 33 34 37 36 33 32 36 41 47 47 45 42 41 41 42 42 42 41 41 41 40 42 41 39 38 34 31 28 22 18 16 13 12 22 26 24 21 19 18 16 15 14 14 14
32 31 45 35 28 28 31 34 38 33 30 33 36 44 42 47 44 42 41 42 42 42 41 41 42 42 42 43 41 40 36 33 31 28 22 20 20 17 14 17 21 23 23 23 23 23 24 24 24
36 32 36 32 29 28 26 34 35 38 34 41 41 44 43 38 47 44 41 40 41 43 42 42 42 42 43 44 43 42 39 34 33 31 29 24 22 23 22 22 22 23 23 25 26 27 26 27 27
43 39 42 33 31 27 26 29 35 40 44 44 42 46 43 39 37 47 46 42 40 40 41 42 42 43 43 44 44 44 41 37 34 34 32 31 27 25 26 28 28 30 31 32 33 33 34 29 30
42 46 43 35 34 32 30 32 31 37 43 48 42 46 44 44 36 42 48 48 47 45 42 42 43 43 44 43 45 44 42 39 38 36 35 34 35 31 28 28 29 31 32 33 33 32 32 32 31
44 43 32 30 33 37 38 35 35 38 38 49 45 45 44 46 46 38 44 51 48 45 43 42 42 43 43 43 45 46 43 42 40 39 38 37 37 37 35 32 33 33 32 32 32 32 33 32 29
51 36 28 27 30 36 33 34 35 33 39 44 51 49 49 48 50 44 41 48 49 48 45 43 43 43 43 44 44 47 44 44 43 41 40 39 40 40 39 38 37 36 33 32 32 34 33 30 29
43 31 35 36 40 41 33 33 30 30 28 42 55 54 55 51 50 49 43 46 49 48 47 46 45 44 44 45 47 47 46 46 45 44 42 42 41 43 40 40 38 36 34 34 34 33 32 32 29
61 47 42 34 32 32 33 26 28 22 24 32 50 55 55 58 54 48 46 43 43 41 43 47 47 45 45 46 47 48 48 47 47 47 45 44 44 45 42 39 40 39 35 34 34 33 32 29 32
66 54 52 48 45 44 36 24 36 16 20 24 32 48 49 55 56 53 45 41 42 47 44 44 46 48 50 49 48 47 47 48 48 49 48 45 46 46 43 40 41 40 36 35 34 32 30 37 37
76 66 60 46 43 50 46 37 32 25 27 20 22 30 38 44 53 56 54 48 44 48 53 50 47 47 51 53 52 50 47 46 47 49 50 47 47 49 43 40 42 39 38 35 32 34 39 39 33
73 68 57 49 42 42 44 36 27 30 28 25 23 21 28 34 42 51 55 55 53 52 48 50 46 41 50 53 55 53 50 47 47 50 52 48 50 47 40 41 41 41 37 33 38 42 41 33 12
62 74 73 64 59 63 63 60 40 35 30 27 26 23 20 26 34 44 52 56 57 56 54 48 42 40 45 54 56 55 52 49 47 49 55 47 51 44 41 42 46 41 35 40 45 42 33 12 6
65 77 76 75 72 66 63 61 44 38 40 30 28 27 26 21 26 35 47 54 58 58 54 47 43 43 55 53 53 54 51 50 49 52 52 48 54 44 40 46 44 36 42 45 42 29 14 8 8
84 93 93 94 88 78 62 51 48 40 36 30 27 24 26 24 25 26 36 46 51 57 55 48 43 46 55 50 52 47 46 50 54 52 61 60 66 40 46 45 38 45 45 39 27 18 12 10 11
99 99 97 94 88 78 66 39 38 31 29 27 26 26 26 24 24 25 26 33 42 50 54 49 49 47 42 40 38 40 48 59 58 59 78 98 50 52 48 40 47 47 37 29 22 19 16 14 14
100 100 100 98 85 71 66 46 33 29 27 27 24 23 23 23 23 25 30 31 31 37 52 54 48 45 43 43 40 43 50 60 55 51 94 77 57 50 41 46 46 39 34 36 35 30 22 16 16
91 86 84 82 95 95 79 70 50 37 35 34 28 21 20 21 22 22 25 34 35 38 55 56 50 49 44 42 40 42 51 58 53 68 96 52 50 41 47 45 43 51 54 54 52 46 33 18 16
96 96 92 92 95 100 100 99 55 55 42 32 28 26 23 20 19 20 23 30 35 43 57 51 51 52 48 39 40 46 64 67 91 80 53 47 42 47 48 49 54 54 53 54 54 55 51 25 13
94 89 96 96 97 96 83 90 57 54 46 36 30 31 26 21 19 19 21 31 37 57 60 51 53 54 48 43 39 45 53 61 64 54 44 42 46 49 51 53 54 55 57 58 56 55 55 25 13
100 97 96 96 97 82 60 84 56 44 42 37 26 22 25 24 20 23 27 40 38 51 59 54 54 56 48 45 44 45 48 98 72 44 43 46 49 50 51 54 57 60 62 62 61 60 59 24 16
87 89 84 89 85 71 66 83 60 43 45 29 28 31 30 26 24 30 38 47 48 48 53 55 55 58 50 45 43 40 90 51 72 44 46 47 50 51 53 58 63 64 64 65 66 64 56 23 20
98 100 87 94 85 96 68 56 50 42 35 45 60 57 34 22 25 25 50 42 56 63 59 58 56 59 52 43 39 40 61 44 45 45 48 50 52 55 60 65 68 67 66 68 69 67 40 23 22
99 98 98 97 96 86 74 78 57 34 41 39 59 52 46 37 27 32 52 54 52 65 64 59 62 62 54 42 41 43 56 54 45 50 52 53 54 59 65 70 72 71 70 71 71 58 29 24 22
94 98 97 97 94 86 72 49 40 37 35 46 60 45 61 33 25 34 48 62 52 64 63 64 67 62 56 45 46 46 42 44 51 54 55 56 59 64 69 74 76 77 73 74 72 37 26 23 23
75 86 90 97 77 89 92 66 46 51 47 55 49 45 78 67 37 32 42 45 56 56 64 65 70 64 57 49 48 45 43 48 54 56 57 60 65 69 74 79 83 80 75 77 49 30 24 24 21

GFSSGP_700_rhum_024.txt.gz
RH
38 40 42 42 48 44 37 28 26 41 39 29 28 37 46 45 51 42 41 36 34 34 36 34 32 30 29 28 27 24 23 24 26 30 34 31 20 6 5 3 4 5 6 6 7 7 7 7 8
34 39 42 45 44 38 30 35 28 40 45 38 28 30 44 46 42 41 39 38 35 37 37 36 34 32 30 30 30 29 24 20 18 20 23 30 31 21 6 6 6 7 7 7 8 8 8 8 8
31 35 46 52 44 37 34 35 32 31 48 48 44 40 46 46 44 43 38 37 38 39 38 38 36 35 36 36 34 33 30 27 22 15 13 15 26 28 18 8 6 7 7 8 8 8 8 9 9
30 34 40 47 40 42 41 37 28 36 43 48 47 48 47 47 46 45 43 42 45 40 43 41 38 38 39 39 38 36 32 30 28 20 16 14 13 24 26 21 16 10 8 7 7 7 7 7 8
30 31 49 48 41 41 35 36 36 35 37 40 48 47 47 45 43 42 42 43 41 44 42 41 40 40 41 41 40 40 36 32 30 27 20 19 16 14 21 25 24 21 19 18 16 15 15 14 14
33 40 48 41 38 44 30 32 36 35 35 33 39 44 47 47 44 43 43 42 43 42 42 42 41 41 41 43 42 42 39 35 32 30 28 22 20 19 16 16 19 21 22 23 23 23 24 26 26
38 51 40 39 38 42 29 32 34 38 37 39 34 44 45 43 47 44 44 44 44 43 43 43 42 42 42 42 43 43 42 36 33 32 31 30 25 22 23 23 23 23 23 24 24 25 26 26 25
44 63 47 52 39 41 40 27 30 36 45 36 40 43 49 42 40 47 45 42 41 43 44 43 43 43 43 43 44 44 43 39 36 35 34 33 33 29 25 27 29 30 29 29 29 30 30 31 32
40 64 51 50 48 45 29 26 27 31 37 39 41 43 43 42 39 38 47 48 45 42 41 44 44 44 44 44 44 45 44 42 40 39 37 36 36 35 33 29 30 30 30 29 29 30 30 32 31
42 69 55 56 55 43 46 31 31 28 32 38 44 44 44 43 42 37 42 50 49 47 46 43 44 44 44 44 44 44 46 44 43 42 40 39 39 39 37 36 32 32 32 30 30 31 32 33 32
54 68 61 38 32 34 36 31 33 33 36 34 47 48 44 45 45 42 37 46 51 50 47 44 44 44 44 44 44 44 46 46 44 44 43 42 41 41 41 39 38 37 36 34 33 34 34 34 32
44 32 42 36 30 33 31 35 26 29 26 41 38 48 47 45 46 46 40 42 50 50 49 47 44 44 44 45 45 44 46 47 46 46 46 45 44 43 44 43 39 39 38 35 34 35 34 33 32
49 40 32 32 29 32 36 30 32 34 19 24 31 48 50 49 48 48 45 40 40 48 49 48 48 47 45 45 46 48 48 49 48 48 48 48 46 46 46 45 41 40 40 36 38 37 34 31 29
64 50 46 41 40 40 35 25 40 14 18 21 24 30 50 52 53 52 49 46 42 43 46 49 49 49 48 48 48 47 47 47 48 49 49 50 50 48 48 46 41 39 41 39 38 35 31 31 36
73 60 54 43 41 48 46 39 37 22 28 21 18 22 29 52 54 54 54 49 44 41 46 45 47 48 48 51 52 52 50 48 48 47 47 50 51 52 48 48 41 39 42 42 37 31 34 39 38
66 57 68 54 42 44 48 51 57 27 27 25 26 22 19 25 46 53 54 54 50 47 46 52 51 50 49 48 50 52 51 52 50 47 47 49 51 53 48 47 40 44 44 40 33 37 39 37 27
86 73 85 80 50 60 56 71 64 38 33 30 28 26 25 20 22 34 47 49 53 52 49 49 52 50 50 50 50 53 54 54 52 50 47 47 49 54 48 45 43 48 44 34 38 40 34 20 11
68 89 81 74 77 58 68 79 70 44 47 41 35 30 26 24 19 21 30 37 44 52 53 50 50 53 52 45 48 55 56 54 53 50 50 50 53 50 50 43 46 47 39 40 40 30 20 15 13
86 91 86 85 84 78 48 58 56 46 36 37 34 32 30 26 22 21 21 28 34 44 52 52 50 53 50 46 50 61 59 59 58 51 51 57 56 52 62 44 49 41 43 42 30 23 21 18 16
96 100 96 89 89 82 71 28 38 27 21 25 28 30 29 28 28 26 23 23 28 34 41 50 53 51 49 46 54 64 62 65 66 56 59 75 90 73 97 55 48 43 46 34 34 42 41 37 29
99 100 99 99 95 94 88 44 32 36 24 23 25 26 25 24 24 25 24 23 24 28 35 40 50 52 47 50 53 46 44 50 54 57 59 88 76 100 74 69 43 49 40 48 51 50 50 50 49
92 90 96 99 98 84 90 60 47 46 38 26 24 25 25 25 23 23 24 23 24 24 28 33 39 49 44 50 46 46 48 50 53 58 64 92 99 98 84 52 49 45 51 50 50 52 52 52 50
95 84 93 99 99 98 84 97 50 52 53 39 30 29 29 28 27 22 20 22 22 26 28 29 34 47 51 48 47 47 49 49 64 79 92 91 84 96 67 49 50 52 50 52 55 57 58 58 57
90 97 98 100 100 94 72 86 50 43 42 44 34 29 23 26 28 24 20 20 23 26 28 32 40 49 54 50 48 47 44 52 69 63 87 98 97 64 49 50 52 52 54 58 60 61 61 61 61
97 96 77 88 94 63 51 62 56 43 37 38 32 28 21 23 29 28 23 20 21 24 27 38 53 55 52 51 51 41 44 62 84 87 99 99 66 51 51 52 54 57 61 63 64 63 62 64 64
100 99 72 64 50 40 59 60 46 44 50 41 47 34 24 18 22 24 24 22 21 25 30 43 62 58 52 54 48 44 45 60 82 84 98 77 50 49 53 55 58 63 67 68 67 65 64 67 66
95 98 80 93 76 73 53 46 45 45 48 52 49 57 64 56 26 21 24 24 36 33 34 46 64 57 54 56 49 46 49 57 79 100 88 56 48 51 56 60 66 69 71 73 73 70 69 70 62
94 97 96 98 81 66 42 40 41 43 45 52 65 65 56 50 51 37 25 22 50 46 50 54 62 62 55 58 52 46 48 59 99 86 99 52 51 57 61 66 69 72 76 79 79 75 72 72 51
91 99 98 91 94 64 50 35 35 42 43 50 48 38 41 50 41 47 31 27 58 52 56 58 63 63 57 60 53 43 45 100 99 66 87 56 57 61 65 69 72 76 79 83 83 76 76 66 36
84 92 95 96 86 96 92 70 46 45 46 54 58 57 52 48 48 68 33 47 60 54 64 67 69 63 64 62 54 44 89 99 83 99 60 57 61 65 67 70 75 78 82 85 83 80 80 43 24

GFSSGP_700_rhum_027.txt.gz
RH
35 38 41 42 50 43 33 30 27 32 32 34 39 40 39 41 44 41 46 41 35 33 33 34 32 29 28 27 27 26 22 19 20 23 26 30 30 14 6 3 3 4 5 6 7 7 7 8 8
30 34 40 53 47 35 31 29 29 25 37 42 37 31 40 42 45 46 42 40 35 34 36 34 33 31 30 30 29 29 28 26 20 15 16 20 28 28 12 6 6 6 6 7 7 7 8 8 8
28 32 54 52 43 35 28 30 31 33 38 37 37 31 44 50 46 42 40 40 36 37 37 37 36 34 34 34 33 32 31 30 27 20 15 12 15 26 25 14 7 7 7 8 8 9 9 9 9
30 34 50 50 39 34 31 32 33 37 36 43 43 41 43 47 44 43 41 39 38 40 40 41 41 37 37 38 37 36 34 31 29 26 20 16 14 15 24 24 18 12 8 7 7 7 8 8 8
31 50 51 41 36 32 33 37 39 38 38 40 44 37 47 48 46 47 45 44 40 42 42 43 41 39 40 40 40 40 38 35 31 28 26 21 19 16 14 20 24 23 20 18 17 16 15 15 15
61 54 46 36 34 33 32 38 40 39 37 38 44 43 46 47 44 44 44 43 45 44 43 42 41 41 41 41 41 42 41 38 33 30 29 27 23 21 19 16 15 17 19 20 20 21 22 23 22
69 56 40 36 31 29 31 41 42 39 37 36 38 41 48 50 46 44 43 44 46 44 43 42 42 42 41 41 41 42 42 41 35 33 32 30 30 26 23 24 24 24 24 24 25 25 26 27 28
68 58 47 40 31 30 31 40 43 41 40 40 41 40 44 53 46 46 44 45 44 44 44 43 43 43 43 43 43 43 43 43 39 37 36 35 33 32 30 26 26 27 28 28 28 27 27 28 28
39 65 49 44 35 34 34 42 45 46 43 45 45 44 47 49 43 44 46 44 42 42 43 44 44 43 44 43 43 43 44 44 42 40 40 38 37 36 35 33 30 29 29 29 29 29 30 29 30
65 63 49 38 36 39 41 48 45 50 35 42 52 39 36 42 42 41 40 47 48 45 44 42 43 43 43 44 44 44 44 45 44 42 42 42 40 39 37 37 35 34 32 33 31 32 33 32 32
83 67 49 46 53 54 56 52 56 59 52 43 44 51 46 41 42 41 39 40 46 48 48 47 46 44 43 44 46 44 44 44 46 44 44 45 44 42 41 40 40 36 35 36 35 36 36 34 33
76 72 65 60 72 56 50 64 63 60 58 50 51 51 62 45 44 43 42 39 59 47 49 48 46 45 44 46 44 44 45 45 45 47 46 47 46 46 44 43 42 40 36 36 39 37 35 35 33
85 76 68 77 83 68 51 52 67 70 46 33 51 56 54 47 45 48 45 43 42 43 48 50 49 47 45 45 47 47 56 49 47 48 48 48 48 49 49 47 45 43 39 38 41 38 35 34 31
87 86 78 80 59 43 48 24 65 35 16 20 23 37 34 40 47 46 49 45 44 40 43 48 49 49 49 48 46 48 49 48 47 47 49 50 49 50 51 51 48 45 41 38 40 38 36 32 30
76 74 76 47 43 71 68 54 30 21 26 25 17 19 19 27 47 49 48 55 46 45 44 46 48 50 50 48 50 50 50 49 49 48 48 47 48 49 48 52 51 45 40 38 38 37 32 32 36
70 90 80 64 66 76 76 62 48 52 58 51 28 23 22 18 24 44 50 51 49 49 48 47 46 46 48 49 49 50 51 51 51 52 51 49 48 47 49 53 51 45 40 37 38 35 32 37 31
91 72 64 61 72 77 78 70 59 61 49 56 49 47 45 35 22 23 45 53 55 56 50 48 46 48 48 50 53 52 51 51 53 53 55 54 52 50 48 49 49 44 38 40 38 33 38 29 18
61 66 65 59 58 74 74 70 65 65 68 72 55 56 59 49 32 20 20 36 52 58 55 52 48 48 48 51 51 52 52 51 52 55 58 58 56 51 48 49 48 44 41 42 34 38 30 22 21
68 71 64 62 66 70 67 64 62 58 50 43 29 29 30 32 27 30 22 17 23 50 52 51 52 47 48 48 49 51 48 45 50 61 64 64 61 58 50 50 49 46 49 38 41 34 28 41 43
82 79 72 69 70 70 69 50 55 24 14 16 19 18 19 22 26 28 26 22 20 21 32 43 50 50 47 47 49 52 49 44 55 63 65 72 69 58 66 81 91 57 49 42 41 37 44 44 41
85 82 77 76 74 73 66 40 24 33 25 20 16 16 18 19 21 23 26 26 23 22 23 25 39 47 48 49 48 50 46 43 49 63 61 61 70 66 76 93 99 76 47 47 42 48 45 46 49
81 76 77 76 80 67 74 54 41 34 33 37 27 16 19 22 24 24 25 25 26 25 25 24 29 38 47 54 47 44 45 47 52 46 48 59 70 67 91 94 100 85 50 46 51 48 53 54 55
90 93 90 86 86 93 72 76 43 37 41 39 38 27 29 35 33 28 25 24 24 25 26 25 29 32 41 49 50 43 49 51 46 48 53 66 79 80 81 99 99 60 52 52 51 54 58 60 59
97 97 97 93 91 84 59 50 34 30 28 28 34 40 42 39 41 41 27 24 22 23 26 25 28 35 32 45 45 45 53 47 46 46 50 70 85 97 93 95 87 55 53 54 55 60 62 62 60
100 96 71 82 92 65 40 48 40 29 36 32 40 41 42 43 48 26 28 26 24 21 23 25 27 31 33 37 44 55 52 48 49 50 64 80 90 93 99 99 65 55 56 57 60 65 65 65 63
93 93 64 58 47 39 41 42 42 34 37 42 43 42 40 42 39 17 19 26 27 24 22 23 28 32 36 40 50 60 50 51 51 52 82 91 97 97 99 74 56 58 59 62 65 67 68 68 69
99 98 68 80 68 64 46 41 38 38 38 37 38 46 52 65 77 44 43 25 31 26 26 23 29 36 44 56 62 57 51 54 53 57 84 98 91 100 67 56 58 61 64 65 68 69 71 74 73
99 92 90 97 79 60 38 35 34 32 32 33 38 41 54 76 85 55 46 50 37 28 26 27 30 43 55 66 65 53 55 56 51 74 99 76 100 99 60 56 60 65 67 68 70 72 76 78 76
98 99 96 83 97 65 57 41 35 38 43 40 44 64 75 85 51 46 26 37 52 33 36 38 37 52 67 70 60 56 59 52 79 96 82 100 81 99 60 59 62 66 68 70 74 78 80 81 79
77 94 92 96 71 89 90 70 55 49 51 55 55 62 77 79 50 40 42 39 59 39 51 57 52 62 73 70 62 59 60 53 86 92 100 100 86 78 78 63 66 69 71 74 80 86 88 86 83

GFSSGP_700_rhum_030.txt.gz
RH
34 35 37 39 44 51 43 36 29 28 30 29 32 32 36 39 45 45 46 46 40 36 32 33 33 30 28 28 26 26 26 24 20 16 17 20 27 28 12 5 3 3 4 6 6 7 7 8 8
31 33 38 38 58 49 40 34 30 28 27 36 31 32 37 41 44 46 45 44 42 35 33 35 32 30 29 30 29 28 27 28 26 22 15 13 15 25 26 11 6 6 6 7 7 7 8 8 8
29 34 37 61 50 49 38 30 29 28 28 32 35 30 36 43 53 42 44 41 39 35 35 35 34 33 33 32 32 32 31 29 29 27 22 16 12 11 23 24 14 7 7 8 8 8 9 9 9
30 33 38 50 46 40 34 32 33 30 31 36 37 40 36 50 52 41 42 40 39 36 37 37 39 41 37 36 36 36 36 34 31 28 26 22 17 14 12 20 25 20 13 8 7 7 8 8 8
32 35 59 47 37 40 36 32 35 35 34 38 39 33 44 44 44 45 46 42 38 38 40 39 43 42 38 37 37 38 39 37 34 29 27 26 22 19 16 13 16 23 23 21 20 19 19 19 19
33 32 54 53 46 39 34 30 35 37 37 36 38 33 53 48 45 45 47 43 42 41 44 43 43 42 40 39 39 38 40 40 36 31 29 27 27 24 21 20 18 16 15 16 17 17 18 19 19
33 51 55 48 40 33 30 31 36 38 38 36 36 39 45 48 41 45 45 45 44 44 44 44 44 42 41 41 41 39 39 41 40 35 35 33 30 29 27 23 23 24 24 24 23 24 25 24 25
34 56 67 54 41 35 31 28 33 38 40 36 37 36 55 62 47 47 44 43 44 45 44 45 44 43 42 42 43 42 40 42 43 39 38 38 35 32 29 30 29 26 26 26 26 26 26 26 26
42 73 69 57 47 40 32 30 35 37 41 40 40 37 44 54 51 47 46 45 46 45 44 43 44 44 43 43 43 44 43 43 43 42 40 41 40 38 35 33 33 31 30 29 29 29 28 28 28
55 56 46 46 45 42 37 33 38 42 42 40 45 45 40 48 50 45 44 47 45 44 43 42 42 44 44 44 43 44 43 44 44 45 43 43 43 42 40 38 36 35 35 32 32 32 30 31 30
47 47 40 26 47 41 42 42 45 47 45 44 39 48 45 40 43 44 42 41 45 47 45 42 42 42 42 42 44 44 47 48 44 46 46 44 45 45 45 43 41 38 37 36 34 34 33 32 32
76 76 53 35 50 54 48 46 52 53 53 47 47 43 52 53 44 38 40 41 41 42 47 47 48 47 45 46 44 44 45 45 44 44 46 47 46 46 47 47 46 43 39 38 35 33 34 33 33
84 73 71 59 56 69 66 53 50 54 60 44 44 46 50 61 55 48 48 44 47 58 42 42 48 48 47 48 45 45 44 45 49 51 48 48 48 49 48 47 48 48 45 39 37 34 35 35 33
73 76 79 67 63 51 60 41 40 39 23 24 28 47 43 51 58 51 52 61 45 49 51 39 44 47 50 49 47 46 46 46 49 50 48 48 49 50 50 49 50 50 49 43 38 36 35 35 32
81 89 74 64 42 37 40 45 29 20 20 19 18 19 25 34 36 41 44 50 53 48 64 44 41 43 48 49 49 48 48 49 50 51 51 48 48 48 48 49 50 51 51 46 40 36 35 34 29
78 83 76 44 44 39 62 57 40 51 50 40 29 22 16 15 16 19 28 40 54 62 52 56 47 45 46 48 50 50 49 47 48 54 50 51 49 52 50 51 49 50 54 47 40 35 35 32 32
90 87 70 67 62 62 71 69 48 65 56 58 55 43 34 27 25 21 17 28 40 57 64 62 58 46 44 47 47 48 49 46 42 47 47 46 48 53 54 53 52 50 52 47 40 37 35 32 32
81 78 73 64 63 66 65 69 59 53 59 63 59 43 36 36 28 26 22 21 27 42 55 64 71 60 46 47 48 48 51 51 49 49 49 44 45 58 60 59 51 49 51 47 42 39 35 34 28
86 74 63 59 58 62 65 66 62 38 40 21 25 33 23 24 25 29 25 22 19 28 53 61 70 57 52 50 48 48 48 49 49 50 47 42 53 61 66 63 57 51 56 49 46 39 39 32 39
78 77 73 69 65 65 58 36 28 19 13 15 16 15 13 14 16 19 26 27 22 20 20 55 64 63 51 52 52 53 56 55 54 52 46 42 57 66 67 73 61 58 69 60 48 42 38 42 40
75 82 79 75 70 65 64 35 21 34 27 19 16 16 15 12 13 13 16 19 29 27 22 24 54 63 57 52 54 56 55 54 54 49 48 48 57 66 70 76 67 75 85 86 50 45 42 44 46
88 78 76 76 77 72 69 77 22 18 23 25 20 21 21 19 19 17 18 20 24 28 30 26 29 39 57 62 55 54 54 49 49 53 50 54 62 69 67 70 76 86 75 97 55 48 48 46 51
86 85 84 83 85 86 69 78 21 25 19 20 30 30 33 34 29 29 29 28 32 32 39 33 32 40 38 54 40 48 56 55 51 52 51 58 63 60 65 76 85 84 98 96 55 52 51 53 58
92 88 82 82 84 92 56 60 20 24 29 29 26 34 38 39 42 42 45 45 35 29 38 39 42 40 56 62 39 36 51 57 56 52 52 52 52 60 69 86 92 84 99 95 58 55 54 59 63
96 88 86 96 96 88 39 58 34 26 24 32 34 35 33 42 41 40 39 37 29 34 30 28 40 48 59 67 49 32 46 56 60 53 54 49 52 62 72 92 94 96 93 86 56 56 57 62 65
89 88 76 80 85 66 50 49 41 32 35 37 37 37 36 42 42 42 36 24 26 20 24 28 32 41 41 55 56 37 41 44 54 52 54 50 58 69 84 99 80 100 97 66 58 59 61 64 66
98 97 78 85 66 74 50 31 32 32 33 33 32 36 36 38 40 44 28 16 39 40 24 26 30 33 36 59 54 48 54 49 45 61 52 54 64 86 100 94 97 95 82 60 61 62 64 66 68
97 88 92 91 97 80 46 40 38 37 36 35 37 37 38 39 43 43 53 59 51 42 57 29 33 32 31 35 40 54 58 50 64 57 56 62 71 94 96 84 93 78 69 62 65 67 67 67 70
90 98 96 90 87 91 75 47 37 38 41 45 42 42 48 46 46 60 59 52 44 43 58 59 30 46 62 32 45 52 54 62 68 59 59 64 89 79 97 100 98 68 63 66 69 70 70 72 74
88 81 78 87 72 76 70 71 50 51 54 53 52 53 57 62 58 56 52 45 41 33 65 72 40 61 91 35 44 53 66 74 65 61 67 72 99 96 86 84 95 68 69 70 73 72 72 75 78

GFSSGP_700_rhum_033.txt.gz
RH
40 40 42 40 36 38 37 22 36 35 26 27 29 30 32 37 38 42 45 46 43 39 34 32 34 31 30 35 34 30 26 25 25 23 15 14 18 27 25 8 4 3 4 5 6 7 7 8 8
39 42 41 41 44 51 36 27 34 33 28 26 28 28 35 38 41 44 46 46 45 40 35 33 34 31 31 33 31 30 29 28 26 26 23 15 12 15 26 22 8 6 6 6 7 8 8 8 8
35 41 41 42 41 40 29 31 37 30 28 26 24 26 28 39 40 43 43 45 44 40 34 35 34 32 36 36 33 32 32 32 31 28 26 22 16 12 12 23 23 12 7 7 8 8 9 9 9
34 42 40 48 36 26 21 22 37 32 29 28 24 38 35 42 44 44 41 40 41 38 35 36 34 39 40 39 35 34 35 36 35 31 27 25 22 17 14 11 19 25 21 14 10 8 7 7 7
31 37 42 40 28 22 27 31 38 35 33 33 30 42 44 36 40 48 42 44 41 38 37 38 38 41 42 39 36 35 36 37 38 33 28 25 24 23 19 16 12 14 20 23 23 22 21 21 21
32 33 46 36 26 25 21 33 35 36 35 35 37 36 37 50 49 45 42 46 43 39 39 41 43 43 42 40 38 36 34 36 39 37 34 32 26 25 24 22 21 20 19 17 16 17 18 19 20
32 33 32 33 30 33 26 28 31 33 36 34 37 36 39 42 49 44 47 46 46 44 42 44 44 43 43 41 41 41 39 37 38 40 37 36 33 29 26 26 25 23 23 24 23 23 23 23 24
31 41 35 32 30 28 30 35 33 33 36 33 36 37 39 47 49 47 46 46 46 46 44 46 44 44 44 42 42 42 42 42 42 42 40 39 38 36 33 30 28 29 28 25 26 25 25 25 25
31 68 53 34 31 25 24 34 34 38 36 34 35 41 40 42 50 52 47 47 46 44 44 46 46 45 44 43 44 44 44 43 43 44 44 41 42 42 41 38 34 32 31 30 29 29 28 27 27
39 57 49 36 32 27 39 35 36 38 39 37 39 42 42 41 46 54 47 47 47 45 44 46 45 44 44 44 44 44 44 44 44 43 45 45 44 45 46 45 43 39 35 33 32 30 29 30 29
41 47 34 28 35 48 52 44 43 44 42 38 37 43 45 45 40 44 50 46 43 47 46 44 44 44 44 44 43 43 44 44 47 47 45 45 46 46 46 47 47 46 44 39 34 33 31 31 30
37 49 49 36 30 55 53 45 40 46 47 43 39 44 47 49 44 40 47 47 44 42 43 47 46 44 43 43 44 44 44 44 46 49 46 44 46 47 47 46 48 49 48 47 42 36 33 32 31
62 49 62 55 41 57 58 48 41 44 48 42 42 39 50 56 58 52 48 42 40 36 39 42 44 46 46 47 46 47 47 46 45 45 46 51 49 48 48 48 49 49 50 49 47 42 36 33 31
80 84 75 72 58 58 59 56 48 35 48 49 38 42 46 57 68 67 52 47 49 46 40 37 40 45 42 42 47 48 48 47 46 45 52 54 49 48 48 48 49 48 48 48 50 46 40 35 32
85 76 76 56 46 46 39 42 45 27 25 40 48 41 39 47 54 63 51 54 50 55 51 46 41 40 41 41 42 46 48 49 47 46 48 49 52 51 48 47 47 47 47 48 51 49 42 36 33
83 82 75 39 44 38 41 36 26 23 28 25 18 20 18 22 45 51 52 43 53 48 59 60 50 44 43 44 42 43 47 48 49 51 51 53 53 49 49 49 50 50 49 49 49 50 44 37 34
77 77 64 64 57 62 62 56 47 42 43 40 39 36 23 14 14 25 34 34 41 54 51 62 64 54 44 46 47 46 48 49 49 48 48 45 46 43 44 50 54 53 53 50 50 51 45 39 35
73 78 78 77 65 70 70 69 62 51 60 40 38 31 26 27 22 16 15 15 16 19 44 60 73 56 53 48 47 50 60 53 52 47 44 44 47 45 48 53 58 59 57 53 53 52 47 41 37
74 88 82 67 66 69 65 65 64 43 37 37 32 33 23 21 19 24 24 21 18 16 20 56 72 79 72 62 55 51 52 53 51 50 46 47 46 45 47 53 58 61 66 58 57 55 50 42 38
85 97 87 68 62 63 59 52 45 32 15 13 10 11 11 12 14 18 26 31 33 34 26 31 72 77 79 75 68 56 59 56 60 58 55 51 51 49 48 55 60 64 68 63 62 70 55 44 41
89 86 78 69 51 44 50 26 12 14 13 17 16 15 15 14 14 14 14 20 31 36 44 37 36 66 75 69 75 70 58 61 63 64 60 50 54 59 52 54 63 72 69 70 76 86 67 46 46
86 80 80 82 76 69 61 80 12 15 19 14 14 17 14 14 14 16 15 14 16 22 36 45 48 49 68 70 77 78 67 52 52 53 54 58 64 62 59 57 73 77 72 78 86 75 90 50 49
90 86 81 78 78 79 61 60 20 20 12 14 21 28 17 18 17 18 21 18 18 27 29 30 36 44 53 64 69 77 80 66 60 63 63 65 65 65 63 62 76 78 81 88 85 82 91 54 51
92 87 76 71 81 90 39 54 32 19 20 26 24 20 21 25 36 36 23 23 22 22 27 46 46 34 40 53 63 70 73 74 61 59 64 62 64 63 65 66 74 74 92 97 90 95 92 67 53
94 86 87 91 92 88 48 67 31 26 24 26 21 25 30 32 38 42 41 37 37 36 34 34 44 49 47 46 52 62 70 67 64 60 68 66 68 64 60 59 63 77 98 100 89 100 94 63 56
85 83 74 87 98 82 61 62 33 29 24 26 34 34 35 36 38 44 44 42 39 40 36 30 22 32 45 50 47 57 69 73 61 63 65 69 70 64 58 56 67 86 96 99 90 96 94 61 60
93 90 88 90 77 83 52 35 27 25 32 36 35 35 36 38 37 35 36 39 34 29 35 27 20 20 29 36 48 54 64 67 61 63 64 70 70 67 56 60 74 96 100 97 100 94 92 63 65
90 79 95 94 98 92 64 48 35 34 37 39 40 40 39 39 39 40 38 31 33 36 40 38 42 26 35 36 38 50 54 65 60 62 58 67 68 64 57 62 83 92 99 96 90 98 82 67 70
93 97 92 88 86 96 98 56 39 41 44 48 47 48 54 60 65 50 44 44 45 60 52 45 38 51 58 41 47 45 57 68 66 64 67 79 74 61 60 66 90 100 98 81 98 100 71 72 75
77 70 88 82 64 85 86 71 52 47 45 52 53 60 54 65 71 74 67 56 54 60 41 30 32 44 72 53 49 45 53 63 50 65 70 77 67 61 67 85 100 94 98 100 97 80 73 75 78

GFSSGP_700_rhum_036.txt.gz
RH
45 47 45 44 40 33 28 20 19 34 32 28 30 31 32 31 34 34 42 44 41 37 33 33 34 33 32 35 34 31 28 27 26 24 22 15 14 20 25 14 6 4 4 5 6 7 8 8 8
43 47 44 44 39 36 23 17 32 36 30 30 30 28 33 36 34 40 46 48 42 39 35 33 34 31 32 37 37 31 30 30 29 27 25 22 14 12 19 24 16 7 6 7 7 8 8 8 8
42 45 43 49 43 30 20 24 35 36 31 28 29 25 28 32 33 39 42 46 47 40 36 34 35 32 36 39 36 34 32 34 35 32 28 25 21 15 11 15 24 20 11 7 7 8 9 9 9
37 43 45 49 34 23 18 22 36 36 32 28 29 29 27 25 33 37 40 41 43 42 37 35 35 34 40 40 36 36 36 37 37 35 30 25 24 21 16 12 13 23 24 21 16 13 10 9 9
30 37 42 42 28 21 18 22 38 36 35 34 33 32 37 35 36 39 43 40 39 41 37 36 36 40 43 40 38 37 36 34 37 38 33 30 25 24 22 19 16 13 14 19 22 22 22 22 21
31 36 40 36 24 22 19 26 40 40 37 36 35 32 40 41 46 43 41 40 46 41 38 38 38 42 43 42 40 38 38 36 35 37 38 36 32 25 24 24 22 21 21 20 19 19 19 20 20
34 33 33 28 25 24 17 21 34 38 35 35 35 34 32 36 43 51 46 40 43 42 39 40 41 44 44 43 42 40 40 40 40 40 40 38 35 32 29 25 26 26 24 24 24 23 23 23 22
36 39 35 30 26 20 18 22 41 39 33 36 36 34 34 32 40 43 47 40 45 46 41 43 44 45 44 45 43 42 42 43 41 42 43 41 41 41 38 35 31 28 27 27 27 26 26 26 26
37 46 39 28 27 16 15 29 39 37 38 38 36 33 32 33 38 53 49 43 40 47 45 49 46 46 46 45 44 44 44 45 44 44 43 44 43 44 45 45 42 38 34 32 30 28 28 28 28
36 41 31 25 24 25 19 27 32 36 42 40 38 36 34 34 39 40 44 50 46 44 52 45 46 48 47 45 44 44 45 44 45 44 44 44 45 45 46 47 47 46 45 42 37 33 31 30 29
36 36 23 17 21 21 25 32 34 44 39 41 40 37 36 40 39 42 47 49 48 46 48 48 48 47 46 45 45 46 45 45 45 45 47 47 45 47 46 46 48 48 49 48 46 42 37 33 31
32 34 28 18 20 25 39 40 40 48 46 40 40 39 44 46 43 39 45 42 46 45 43 46 48 47 46 46 45 45 44 44 44 45 47 49 47 45 46 48 48 49 48 49 49 47 44 38 34
39 38 34 26 29 35 46 61 44 44 48 47 42 40 38 43 44 43 41 48 44 47 45 43 42 45 48 48 46 46 46 46 47 46 46 46 47 50 50 48 50 49 49 49 49 50 49 44 38
52 34 39 45 35 32 39 46 51 35 43 51 48 45 41 38 42 46 42 41 50 44 41 42 36 33 39 43 47 49 49 48 48 48 47 46 47 53 51 49 49 49 48 48 49 50 50 49 43
66 76 76 58 32 42 37 23 32 33 32 41 51 51 47 44 46 47 44 37 39 49 51 42 35 32 30 34 39 44 48 47 47 49 48 47 50 51 51 52 51 48 48 49 48 47 47 49 46
87 86 80 61 37 38 45 31 22 25 26 30 29 43 46 44 45 54 55 48 39 46 54 56 52 42 36 32 36 41 45 44 44 49 48 48 50 52 54 52 50 51 51 49 48 47 48 50 48
89 90 82 53 48 44 50 52 26 30 29 28 23 17 17 23 32 41 52 56 54 46 52 55 56 53 45 40 43 45 47 46 45 49 51 52 50 50 47 47 48 46 48 51 52 52 51 54 51
71 68 63 65 55 70 70 71 52 49 39 36 30 25 20 17 13 12 18 45 50 51 54 64 72 62 55 57 48 50 51 49 50 50 50 47 45 48 50 49 48 48 55 59 64 64 54 57 54
79 80 88 80 78 73 71 76 70 33 37 35 32 28 26 23 23 25 22 17 20 35 49 59 71 76 66 53 46 50 51 53 50 48 52 48 48 51 56 52 46 50 64 66 67 67 58 62 58
100 97 84 73 78 78 68 57 48 39 29 25 18 20 22 18 16 17 22 27 28 24 22 21 30 59 76 66 58 58 67 58 58 61 54 54 55 57 60 58 54 56 67 70 70 68 68 74 69
99 80 88 86 72 67 62 57 42 22 14 12 11 12 14 12 12 11 12 15 22 24 28 28 24 27 73 76 75 70 79 80 63 55 54 57 55 61 68 68 62 61 65 72 73 69 75 82 81
93 79 82 83 76 67 50 75 18 14 13 11 12 14 14 13 12 12 13 12 13 16 28 35 36 32 49 70 71 71 70 72 67 60 60 59 60 65 67 66 66 67 66 76 80 73 82 83 87
91 85 79 72 79 80 56 68 25 16 14 13 12 18 14 14 15 17 14 10 15 18 21 34 45 46 49 46 55 68 70 71 76 75 75 65 61 68 70 71 68 63 64 77 89 82 89 89 92
92 84 78 73 74 85 46 60 32 16 18 17 18 15 16 21 23 26 26 22 20 21 21 19 27 44 54 62 58 58 63 67 73 79 87 73 68 69 73 72 68 65 68 76 93 91 97 90 98
85 75 72 87 98 86 58 71 32 21 20 21 25 25 27 31 31 27 31 35 36 34 33 33 35 33 34 42 57 60 59 62 67 72 81 86 77 70 72 74 68 70 75 74 87 97 96 95 97
73 72 62 72 95 87 64 68 25 22 21 24 29 32 34 35 36 38 39 43 44 44 43 43 42 39 38 42 38 42 50 54 67 74 80 78 83 69 65 77 75 80 81 78 89 98 85 95 100
84 93 82 86 89 90 57 40 28 20 29 34 37 38 37 36 37 39 39 38 36 35 38 41 42 33 33 35 26 37 40 44 51 70 75 76 74 68 71 79 80 82 76 68 90 97 94 99 99
85 81 91 86 99 84 62 56 30 33 38 36 41 45 45 43 39 38 38 42 43 41 38 38 34 36 34 27 25 24 33 41 47 51 54 72 72 70 75 79 78 72 71 74 96 100 100 100 97
94 94 86 78 82 94 97 56 39 42 45 46 50 57 58 56 56 50 47 62 78 78 58 45 41 43 42 40 31 20 22 36 54 57 70 72 75 73 69 76 76 81 71 83 100 100 99 100 100
92 86 78 80 68 93 97 71 47 47 50 54 70 90 93 87 77 70 70 68 78 77 72 66 55 49 36 32 37 29 26 39 60 70 74 74 81 75 69 79 85 77 81 99 99 99 98 100 100

GFSSGP_700_rhum_039.txt.gz
RH
47 45 45 43 38 36 29 21 28 35 31 30 29 30 33 31 35 39 38 42 41 38 33 33 34 33 34 36 37 31 30 30 28 26 24 20 14 14 21 22 9 5 4 6 6 7 8 8 8
50 45 47 46 41 40 26 19 18 34 33 30 30 30 28 31 31 38 45 44 42 35 35 33 34 32 34 38 36 33 32 32 33 33 28 24 19 13 13 22 20 9 7 7 8 8 8 8 8
54 49 49 55 48 33 24 18 30 36 33 31 33 30 27 27 31 34 43 47 42 38 36 34 34 32 36 40 36 35 35 35 36 35 33 28 24 17 12 12 21 21 13 8 7 8 8 9 9
50 52 51 52 38 24 21 21 36 38 34 31 30 28 31 30 26 32 34 43 45 45 37 35 35 33 39 41 37 37 36 36 36 36 34 29 25 23 19 14 12 19 24 22 19 17 16 16 16
42 45 51 48 34 22 21 21 27 37 34 33 34 32 34 32 25 33 33 39 41 42 40 36 35 36 42 41 39 39 38 36 35 36 37 36 31 24 23 22 19 16 14 15 17 18 18 17 17
30 39 45 45 27 22 21 22 29 38 37 36 39 36 35 34 33 39 39 38 42 44 40 37 37 40 44 42 41 40 39 39 38 38 40 39 34 31 25 23 23 22 22 21 21 21 21 20 20
32 32 36 32 26 25 20 21 28 36 38 37 40 38 36 34 40 44 44 38 37 46 42 39 38 40 44 44 42 42 40 41 41 40 42 41 40 38 35 30 26 24 24 24 24 24 24 24 24
42 36 36 32 28 23 20 22 21 28 37 36 37 40 36 28 34 41 48 45 37 39 45 40 40 41 45 45 44 43 42 42 44 43 43 42 42 43 45 44 41 36 31 28 26 27 27 27 27
39 43 44 33 30 22 20 22 25 30 39 35 34 36 37 34 29 31 40 45 39 41 47 43 42 42 45 46 46 44 44 44 45 45 44 44 44 44 46 47 46 46 44 41 37 33 30 28 28
34 40 37 31 28 25 24 25 22 33 39 38 38 38 37 35 34 32 34 39 44 37 45 52 50 52 50 47 47 45 45 45 45 45 46 45 45 45 45 46 48 48 49 48 46 43 39 35 32
33 32 27 24 24 23 24 24 22 24 34 41 43 41 39 37 37 35 34 37 40 49 48 51 55 53 51 49 48 46 46 46 46 46 46 46 48 47 46 46 48 48 49 50 49 49 47 44 39
30 31 21 20 23 23 25 22 23 22 29 37 42 43 41 42 42 41 38 39 43 44 46 46 49 49 48 48 47 47 46 47 46 45 46 46 49 49 47 46 48 49 49 50 50 50 49 49 48
30 32 25 20 19 21 23 24 21 17 20 40 42 43 43 41 41 43 40 42 41 41 41 43 45 45 48 49 48 47 47 46 46 46 47 47 47 48 47 51 50 50 50 51 51 50 49 50 50
38 34 31 29 25 23 22 20 25 14 15 36 40 47 44 42 42 40 39 40 38 40 38 39 44 44 43 43 46 50 51 50 50 50 48 49 48 48 49 54 51 51 51 51 50 50 49 49 49
43 48 34 32 32 33 26 17 18 20 21 18 38 46 49 47 42 42 40 41 43 39 39 40 41 43 44 40 35 41 52 52 47 47 49 48 49 49 50 56 52 52 52 51 51 52 51 49 47
52 65 72 36 27 30 33 18 17 23 17 17 25 40 50 51 48 46 45 43 43 46 42 37 34 40 40 37 37 41 48 51 48 49 48 46 48 49 54 53 54 54 52 52 54 53 50 48 47
93 82 70 45 40 45 52 52 28 28 22 22 18 20 32 41 44 46 48 48 48 50 49 47 40 41 37 39 41 45 51 52 50 50 48 46 49 50 52 55 54 52 48 50 54 55 55 58 54
91 75 62 60 52 61 64 72 31 28 28 31 27 17 13 13 14 18 30 43 53 55 57 62 63 58 54 46 45 46 44 50 50 52 51 51 51 54 54 51 50 50 51 54 60 60 60 65 59
75 73 70 63 66 62 51 68 55 28 40 32 25 22 21 18 15 17 17 18 27 50 49 51 64 72 70 63 55 47 42 46 47 50 48 53 54 57 57 56 56 54 53 56 60 64 68 70 66
92 88 86 78 80 84 70 57 45 31 29 35 36 32 27 26 24 24 28 31 26 23 21 22 39 53 77 78 76 71 63 52 50 54 58 59 57 62 61 61 60 58 60 57 63 70 72 73 71
93 99 82 84 74 76 74 62 40 30 30 25 16 13 13 10 13 14 14 20 30 33 33 29 24 26 46 74 76 76 78 75 61 50 50 39 56 62 62 67 68 67 63 60 67 74 73 72 70
99 95 79 76 80 77 66 73 28 16 11 11 11 12 19 18 16 15 14 13 12 13 18 28 38 41 37 36 42 53 65 74 69 56 60 55 60 59 61 68 77 76 68 67 71 79 80 78 74
96 86 80 83 76 71 52 61 23 13 12 13 16 16 19 17 15 15 18 20 16 15 14 15 24 33 46 51 51 44 40 67 76 77 75 76 76 68 66 65 76 76 74 74 74 78 83 88 83
92 85 89 83 73 78 57 60 17 17 19 18 19 21 20 21 25 26 25 25 25 24 23 22 23 23 31 57 64 62 55 59 68 72 76 76 75 74 66 68 69 74 77 76 75 79 84 96 100
87 93 64 68 93 76 61 69 19 25 27 21 17 20 23 25 25 30 31 29 30 33 33 32 30 29 30 36 55 65 67 62 61 62 67 77 77 75 74 77 74 70 77 80 78 77 85 99 100
87 81 52 58 87 85 67 70 30 21 22 31 32 30 31 35 35 36 35 36 40 39 41 42 43 41 39 40 38 40 55 68 70 69 65 63 69 88 83 85 79 72 73 78 81 81 92 94 100
83 86 69 72 94 93 58 41 19 22 27 32 33 36 41 43 43 40 39 38 37 39 43 44 43 41 40 40 43 41 33 38 47 54 56 63 59 62 76 84 85 80 73 78 86 92 97 99 97
80 71 77 70 66 76 56 45 25 34 39 42 44 48 48 46 44 46 51 45 41 41 40 39 43 43 40 39 38 35 34 27 32 30 48 51 55 57 64 81 79 78 80 87 94 91 98 95 99
89 91 79 71 69 85 91 40 38 42 53 56 59 60 63 67 73 75 70 69 57 50 57 63 66 73 69 59 48 45 37 29 30 25 23 43 54 60 68 76 78 85 91 98 96 98 94 94 100
97 81 78 60 73 99 96 55 50 54 63 94 86 82 82 92 99 79 76 70 68 68 62 68 79 75 72 67 60 50 36 36 34 39 27 30 51 61 71 89 94 87 82 82 96 91 100 99 100

GFSSGP_700_rhum_042.txt.gz
RH
50 48 48 45 41 39 32 24 30 37 36 33 34 33 33 31 36 41 37 37 40 37 33 34 34 33 34 37 37 32 29 32 33 31 27 23 17 14 19 21 13 6 5 13 34 8 8 8 8
52 49 49 48 44 42 29 20 24 34 36 32 32 31 30 32 33 36 37 40 42 39 33 33 34 32 36 40 36 34 32 33 34 35 32 28 24 16 12 19 20 10 7 8 8 8 9 9 9
58 56 52 53 47 36 27 20 22 30 35 34 36 34 31 27 29 33 41 44 44 39 33 33 34 31 38 40 36 37 35 35 34 35 34 30 26 23 16 12 19 21 14 9 8 8 8 8 8
59 62 59 53 37 25 23 23 26 36 37 35 35 32 29 31 31 27 36 46 47 40 35 34 34 32 39 40 37 38 37 36 36 35 36 35 30 24 23 19 14 14 22 23 22 22 22 22 22
57 61 63 54 37 24 23 24 36 38 38 36 35 32 32 33 31 25 29 35 44 46 44 36 35 33 41 41 39 38 39 39 38 37 39 38 34 29 24 22 22 19 17 15 15 16 17 18 20
46 57 61 58 32 25 24 24 23 32 37 37 38 36 37 36 33 31 44 42 34 40 42 38 36 35 43 42 41 40 40 40 40 40 41 41 39 35 31 26 23 22 22 22 22 22 22 22 23
30 38 51 42 33 28 24 25 24 23 36 38 40 40 38 34 36 40 39 41 40 40 39 41 37 37 44 44 43 42 41 41 42 42 42 42 41 42 44 43 38 32 26 24 24 24 24 25 25
33 32 35 31 29 26 26 26 25 24 36 37 38 39 34 35 32 32 41 45 39 35 44 44 39 38 44 45 44 43 42 42 42 45 45 44 43 43 44 47 46 46 43 39 35 31 29 27 27
46 40 36 31 29 29 27 26 26 22 29 34 38 36 36 38 32 32 32 43 40 35 37 45 42 40 41 45 46 45 44 44 44 45 46 46 45 44 46 47 47 48 48 48 47 44 41 36 33
44 44 41 38 35 32 30 30 26 23 20 26 38 36 35 36 37 36 33 33 42 40 40 46 46 44 43 44 47 46 46 45 45 46 46 46 46 47 46 46 47 48 49 50 50 49 49 48 45
38 38 38 35 30 29 31 30 26 24 21 21 36 39 36 38 39 38 37 36 38 50 45 42 46 52 50 52 53 48 47 46 46 46 46 46 47 48 49 48 47 48 49 50 50 50 50 50 49
32 34 34 28 27 29 30 29 27 22 16 23 36 42 44 43 40 40 39 40 41 41 44 49 47 50 54 55 51 50 48 47 47 47 47 46 47 48 50 49 48 49 50 50 51 51 51 50 50
35 34 31 25 26 28 27 25 23 16 16 18 31 40 45 45 44 42 42 41 41 39 37 43 50 49 49 52 50 50 49 49 49 48 47 47 48 48 49 49 49 52 51 52 52 53 52 51 51
34 34 27 23 24 24 23 20 18 11 12 14 18 38 45 48 50 44 42 41 41 38 37 40 41 41 45 46 48 50 50 49 49 49 48 49 50 50 50 49 51 54 53 52 53 53 52 51 50
43 37 30 21 23 25 22 16 13 11 13 12 12 19 44 49 54 46 42 42 41 39 39 40 40 44 41 44 46 44 45 52 53 53 54 52 52 51 52 51 51 57 54 54 54 54 54 53 52
56 56 51 30 24 24 27 18 21 17 15 13 13 15 20 44 48 47 44 44 43 41 41 41 43 45 41 38 40 46 48 56 48 51 54 53 52 51 53 52 53 58 54 54 55 55 53 54 53
78 68 55 44 31 28 24 28 25 23 19 16 13 13 17 21 36 49 47 47 46 46 46 46 44 44 44 42 39 42 48 52 48 48 51 50 52 52 52 53 57 55 56 55 52 52 53 57 57
90 83 52 41 37 34 40 59 22 22 18 19 18 13 12 11 14 30 43 46 48 52 53 54 52 50 49 43 45 43 47 51 48 49 48 48 50 52 54 54 56 58 56 52 53 55 55 60 63
72 71 66 53 59 56 44 46 28 20 21 19 19 17 16 15 14 16 18 22 32 42 53 59 60 56 57 53 44 42 38 41 44 44 52 50 52 52 56 58 62 60 57 58 58 52 51 65 67
94 86 74 70 70 74 61 50 40 22 18 21 23 24 23 24 21 24 27 28 27 22 25 39 51 54 62 58 58 56 52 57 55 55 58 60 55 53 59 63 70 67 60 60 60 59 60 67 71
96 91 80 78 77 79 72 56 32 26 29 29 26 24 20 17 15 15 19 26 32 32 29 28 28 36 45 49 45 52 61 64 68 56 53 51 52 57 62 66 70 71 69 66 68 66 68 69 74
98 87 85 81 80 80 69 71 34 23 15 15 13 13 13 26 24 20 18 18 18 18 18 28 34 33 35 37 32 34 44 57 73 78 78 73 70 60 62 63 69 76 75 73 76 79 77 82 82
99 99 91 82 84 82 64 61 21 17 23 18 17 18 16 18 23 21 20 19 22 23 21 19 20 23 36 42 45 44 36 32 46 64 65 64 71 69 68 77 73 74 74 80 83 88 82 85 94
98 98 89 88 87 79 60 49 14 22 28 31 27 22 25 26 27 24 20 20 21 23 24 26 25 24 28 33 33 50 56 58 48 41 46 49 50 68 72 75 87 82 76 70 82 83 88 89 84
100 97 77 64 77 74 62 58 18 33 29 27 26 22 22 24 26 26 27 30 33 32 29 31 35 37 36 35 38 40 51 66 67 65 59 57 63 68 74 74 75 75 75 75 74 80 87 89 84
97 90 56 54 75 74 72 68 32 34 29 26 24 27 28 32 32 35 35 34 35 36 35 33 33 39 42 43 42 44 45 47 51 61 69 69 69 69 67 69 77 78 79 89 83 77 79 88 90
93 90 76 64 86 85 55 36 29 29 28 36 40 39 39 40 38 37 37 39 39 39 39 39 37 37 41 42 42 43 43 42 43 38 35 43 61 69 70 69 68 67 84 88 84 80 81 86 92
79 75 76 62 72 64 44 40 22 33 42 53 54 52 52 55 57 56 51 46 44 44 47 50 43 40 42 46 46 45 42 41 40 37 33 34 37 44 54 58 63 64 70 75 87 91 91 93 100
85 83 70 65 64 77 72 30 35 40 58 68 70 75 72 71 72 66 57 53 50 46 54 61 61 49 52 55 68 60 52 45 42 41 34 30 33 29 40 52 58 62 76 87 95 98 100 100 98
92 84 74 56 72 84 90 41 42 51 55 74 77 78 76 76 88 79 57 30 20 19 29 52 66 65 68 73 74 69 60 48 49 42 39 43 33 33 34 49 54 61 80 89 99 100 100 100 98

GFSSGP_700_rhum_045.txt.gz
RH
51 48 46 44 43 40 33 23 22 30 31 35 37 36 34 32 33 36 37 35 38 37 34 34 34 34 35 38 37 33 29 30 32 34 32 26 21 15 15 20 14 7 9 66 61 8 8 8 8
55 53 51 50 47 43 33 23 23 40 38 35 34 36 37 36 36 39 34 34 40 36 33 33 34 34 38 39 37 34 32 32 32 35 33 29 24 19 14 15 20 15 12 13 9 9 9 9 9
60 58 56 57 52 41 30 23 24 32 37 37 35 34 31 28 33 38 34 38 42 40 33 32 34 33 40 38 38 38 33 35 33 33 35 34 28 23 19 15 15 21 18 12 9 8 8 8 9
66 64 64 60 45 30 28 23 21 25 38 38 37 35 31 30 31 29 41 38 44 44 34 32 34 32 40 39 37 39 37 36 36 34 36 36 32 26 23 20 16 15 17 21 22 22 22 22 22
68 69 70 64 44 32 27 26 29 38 39 39 36 34 31 34 33 30 28 42 46 43 37 34 34 33 39 40 38 39 39 39 40 39 40 38 36 31 25 23 22 21 20 18 18 18 18 19 20
62 66 71 67 42 34 29 27 26 36 37 39 36 32 34 37 33 32 31 40 37 44 46 41 35 34 38 42 40 39 40 40 41 42 41 41 39 41 40 36 28 24 24 23 24 24 24 24 24
50 55 59 46 38 34 29 29 27 24 27 30 39 35 36 34 32 37 37 42 44 38 39 43 37 35 38 44 42 41 41 41 42 43 43 43 43 42 41 45 45 42 38 33 29 27 26 26 27
33 43 56 44 39 31 29 29 28 26 23 25 38 39 38 33 34 34 35 41 41 40 41 41 40 37 38 44 44 43 42 42 43 43 43 45 44 44 46 45 44 45 46 46 45 43 39 36 33
34 39 43 31 33 29 27 27 26 26 24 25 35 39 38 36 35 33 30 33 45 45 37 42 45 40 38 44 46 45 44 44 44 45 44 44 46 46 45 46 47 46 47 48 47 47 48 47 46
47 36 29 25 28 25 26 28 30 27 23 24 28 36 38 36 33 33 35 35 34 46 41 41 46 45 42 40 45 46 46 46 46 46 46 45 46 47 47 47 47 48 48 49 50 50 50 49 48
48 46 42 37 34 32 34 35 34 30 24 22 25 28 37 36 35 33 38 41 38 40 46 43 41 48 47 45 44 48 48 46 46 46 47 47 46 47 48 49 48 48 48 49 50 51 51 51 50
43 42 44 42 39 38 37 38 36 31 24 23 21 23 34 36 35 35 40 42 42 37 42 47 48 47 52 55 52 55 55 50 48 48 47 47 47 47 47 49 50 49 49 50 51 52 52 52 51
44 42 41 33 35 32 31 37 37 28 25 21 20 22 31 40 38 40 41 41 41 37 38 40 45 48 50 55 57 55 52 51 50 49 48 48 48 48 48 48 49 50 50 52 52 53 54 53 52
53 44 35 32 31 31 31 32 32 22 20 18 16 18 26 37 42 43 42 43 42 40 40 40 37 40 45 54 52 50 53 52 51 51 50 50 49 49 49 50 50 50 51 54 54 54 54 53 52
53 46 40 28 30 34 31 29 24 19 17 13 11 13 17 27 40 42 43 42 43 43 43 40 38 36 32 37 43 47 48 53 52 52 51 50 51 52 53 52 52 52 52 56 56 55 55 54 55
48 56 40 24 24 29 29 28 23 17 13 11 11 10 11 15 29 39 41 41 40 40 39 40 41 38 39 35 37 43 51 55 47 48 54 55 54 56 56 55 53 54 53 57 58 56 56 56 54
71 67 49 38 32 30 26 28 19 19 17 14 14 12 11 11 15 26 38 43 41 41 39 40 43 40 39 40 39 45 49 51 51 48 47 49 51 53 53 54 55 54 53 59 57 57 55 55 55
89 84 46 30 27 27 31 41 25 23 19 19 18 15 13 12 13 16 23 30 38 46 48 45 42 43 42 41 42 43 44 47 44 45 48 48 49 51 52 53 56 55 53 56 58 60 58 58 55
60 43 41 34 38 43 43 49 20 25 22 19 18 18 17 16 17 18 18 17 28 36 41 48 50 49 51 52 51 47 43 45 48 44 51 55 54 53 56 55 58 56 55 59 62 60 58 58 57
74 67 63 61 57 56 50 45 23 24 23 23 18 16 17 18 19 18 18 18 16 16 22 33 42 50 54 56 56 55 54 53 54 56 51 50 51 48 54 55 58 63 62 66 65 62 62 63 62
96 78 68 68 75 76 68 48 30 32 35 32 27 23 25 26 27 26 28 26 26 26 23 21 22 24 23 26 43 54 57 62 63 65 54 46 43 48 54 58 60 60 65 69 69 71 69 69 70
94 89 89 90 82 70 68 68 28 30 28 25 20 18 16 20 22 25 25 22 19 18 19 25 31 34 33 30 29 28 32 45 52 55 60 75 77 76 64 68 64 62 70 71 68 74 76 78 78
96 88 89 92 81 81 72 58 31 26 25 27 26 23 21 22 30 32 28 24 24 24 22 20 20 20 21 25 35 39 42 39 38 36 37 67 75 76 78 71 67 65 65 70 73 77 80 84 86
99 99 99 88 86 83 65 59 24 34 41 39 37 35 35 34 31 31 27 22 19 18 20 22 21 21 21 21 22 33 50 60 55 48 52 51 50 53 61 70 71 70 65 75 78 78 79 84 92
99 99 85 64 77 76 58 60 26 35 39 39 37 34 29 24 24 23 24 24 26 28 31 32 32 31 29 29 27 29 40 52 55 56 62 65 64 61 57 58 60 62 62 75 88 89 83 80 89
97 98 69 59 60 60 63 62 36 35 35 35 31 24 25 30 34 35 35 34 33 31 32 35 36 37 35 33 34 34 37 42 43 46 55 67 72 74 72 68 67 72 77 83 84 89 86 81 83
95 97 76 62 75 73 44 38 36 32 33 39 40 37 36 39 42 43 43 42 40 38 37 38 39 40 40 39 40 39 41 43 43 45 46 44 47 59 68 69 72 72 73 80 83 83 86 92 91
82 84 79 66 73 59 37 32 24 37 47 55 50 51 51 54 55 54 49 39 32 34 35 42 46 45 45 45 43 44 45 45 46 46 44 43 40 39 34 41 56 66 69 70 71 68 73 93 100
82 78 66 58 56 55 44 23 26 38 51 54 56 57 55 56 52 51 39 26 24 18 12 12 13 22 47 62 58 52 55 52 48 47 46 44 40 37 31 36 41 53 60 63 60 63 65 75 84
92 84 68 53 68 72 78 33 34 38 54 59 62 67 66 57 52 51 34 27 17 12 18 23 27 35 40 48 70 66 62 66 60 55 52 52 47 39 35 33 37 41 54 62 70 69 82 90 99

GFSSGP_700_rhum_048.txt.gz
RH
50 47 46 45 51 42 36 34 21 28 28 27 34 28 37 33 46 38 37 30 38 34 32 33 34 34 37 36 36 34 30 29 30 32 31 27 22 17 13 17 17 12 21 37 9 8 9 8 7
53 52 50 49 48 40 30 33 24 42 33 34 37 36 34 46 40 39 37 34 38 35 32 33 33 34 38 38 36 37 31 29 30 32 33 30 25 21 16 14 18 18 16 14 9 9 10 9 9
60 58 58 62 53 40 32 27 33 40 38 36 35 38 36 37 40 41 33 34 37 37 32 32 32 35 38 37 36 38 36 32 30 31 34 32 27 23 20 16 15 19 19 14 11 9 8 9 9
67 66 63 61 52 46 39 27 22 30 35 36 34 35 31 29 30 39 35 38 43 40 33 32 33 32 39 37 37 38 38 35 34 36 35 35 30 25 22 21 18 16 17 20 21 22 22 22 22
73 79 70 66 53 51 33 29 26 27 36 38 37 37 31 31 32 29 41 42 45 45 40 32 33 32 38 38 38 39 39 38 39 39 39 36 36 32 27 23 22 22 21 20 20 20 20 21 21
78 79 68 62 54 53 35 30 33 40 38 38 38 35 33 34 31 31 27 38 45 45 40 34 33 33 35 40 39 39 40 40 40 42 42 42 39 39 42 40 33 27 25 24 25 25 25 25 25
71 78 64 57 53 55 33 30 27 30 32 33 37 36 37 35 32 31 34 32 36 42 46 43 36 35 33 42 40 40 40 40 41 42 42 43 43 43 42 40 41 43 40 37 34 32 30 29 28
64 84 66 62 57 54 55 29 29 28 30 28 32 39 41 36 33 33 34 38 40 41 39 42 40 37 34 40 42 42 42 42 42 43 41 43 45 44 45 45 44 40 43 44 45 46 45 43 42
42 69 62 66 62 55 40 30 28 27 27 24 25 35 37 38 34 33 32 37 44 42 40 42 44 40 37 36 43 44 44 44 44 44 45 42 43 46 45 46 47 46 47 48 48 47 46 46 46
39 59 51 58 62 42 31 28 27 27 26 25 23 27 37 38 36 34 31 31 32 48 46 39 37 46 41 38 42 45 45 45 45 46 46 46 44 44 46 47 47 47 48 49 49 50 50 49 48
46 58 56 52 32 28 29 28 26 27 28 28 25 24 35 38 37 36 34 31 34 33 42 45 41 46 48 44 40 44 46 46 46 46 46 47 47 47 47 48 48 48 48 48 49 50 51 51 51
49 46 59 46 31 29 31 32 31 31 37 30 28 24 27 32 38 37 35 32 29 31 32 40 44 42 43 53 48 44 45 52 49 47 47 47 47 47 47 48 48 49 49 49 50 51 52 52 52
42 58 49 47 42 42 42 42 42 36 35 32 27 24 23 26 32 35 36 35 33 32 36 34 47 48 48 50 58 58 57 57 57 51 48 47 48 48 48 48 48 49 50 50 50 52 52 54 54
46 69 45 47 41 42 43 44 43 37 35 31 28 23 21 20 23 33 35 36 35 35 34 36 36 42 42 42 50 52 58 60 58 54 51 49 48 48 48 48 48 49 50 50 50 53 54 54 55
75 61 50 41 38 38 37 42 34 33 30 27 24 21 18 17 19 22 34 37 40 44 42 38 38 42 41 37 37 43 50 56 58 57 53 51 51 51 50 49 50 50 51 51 51 53 56 55 55
68 76 72 36 32 37 35 41 45 24 22 20 18 17 14 12 13 15 20 31 39 41 44 43 40 38 36 34 32 39 37 41 50 59 61 56 54 53 52 51 52 53 53 54 52 53 58 56 56
83 53 58 62 29 38 29 44 41 21 18 15 13 11 10 10 10 12 14 22 35 37 40 41 42 40 38 38 37 33 38 41 44 45 54 60 60 60 58 56 55 54 55 54 54 55 59 57 57
66 59 71 59 46 34 30 47 27 24 17 16 14 13 13 12 11 13 12 12 13 23 29 35 38 42 44 43 42 36 39 37 41 44 43 46 54 56 57 56 56 56 55 53 52 55 61 60 60
72 70 57 28 45 34 47 65 29 25 21 16 16 15 13 13 12 11 12 12 12 14 16 19 31 39 44 45 41 43 36 37 41 41 46 50 48 57 56 55 55 58 56 55 54 56 58 61 61
73 63 60 46 38 44 62 44 30 26 21 17 16 15 14 14 14 13 14 13 13 14 15 16 18 26 36 40 40 41 43 42 43 48 52 53 53 53 59 60 60 60 58 58 57 56 59 63 64
88 73 70 71 55 62 59 47 30 31 28 26 22 20 19 16 15 16 17 19 20 19 18 17 16 16 18 22 28 35 41 41 34 34 40 46 54 57 57 52 55 55 62 63 60 64 64 67 68
87 79 74 69 79 59 59 37 45 40 42 40 34 29 25 26 27 26 28 28 26 24 23 22 22 24 26 27 28 28 26 24 23 26 39 54 59 58 57 55 59 56 61 69 66 67 70 75 72
96 87 92 93 85 78 67 58 49 33 38 36 31 25 23 24 25 31 30 27 25 22 20 20 20 21 22 23 24 27 29 29 30 32 32 39 48 52 64 76 79 72 63 62 69 66 69 73 73
89 92 93 91 83 83 73 63 36 42 47 42 41 38 37 33 30 31 33 30 26 22 19 18 19 19 19 19 20 21 20 21 27 36 41 48 52 50 45 47 71 73 71 68 65 68 72 71 79
99 96 95 96 94 66 55 60 39 39 44 43 42 38 34 31 27 25 23 22 22 22 22 21 21 22 22 24 24 24 24 25 22 26 41 56 58 60 57 60 58 61 64 67 70 72 71 73 81
99 99 80 63 48 42 53 52 40 36 41 42 40 35 29 27 28 29 29 30 32 32 32 31 31 32 34 35 35 35 34 34 33 30 37 49 59 62 62 61 67 70 67 68 68 65 76 73 78
98 98 73 52 57 63 42 39 41 37 38 41 39 41 40 43 45 46 45 42 39 38 37 36 37 39 37 36 39 39 39 41 42 42 44 44 45 45 50 64 71 73 73 75 73 69 73 75 78
92 83 80 69 70 55 34 34 30 38 41 41 52 55 55 54 52 51 50 46 42 32 22 19 17 16 27 43 48 45 44 42 43 45 45 45 47 48 46 48 58 69 74 72 75 78 82 83 90
84 86 71 67 48 40 23 20 24 35 41 55 52 52 57 53 51 50 47 45 33 23 16 10 10 13 15 16 18 30 50 58 50 51 53 52 50 48 46 43 40 39 40 58 69 73 74 74 74
82 77 66 61 71 68 69 33 29 40 55 53 50 61 62 60 57 50 46 43 29 19 12 14 12 11 14 17 23 34 41 48 69 68 64 63 64 59 51 46 42 38 34 35 53 65 72 76 77

GFSSGP_700_rhum_051.txt.gz
RH
48 46 46 44 53 43 35 29 30 34 33 34 30 29 29 32 37 46 42 32 34 34 30 33 34 35 36 35 34 34 28 26 28 31 30 28 23 18 14 14 17 21 32 23 8 8 8 8 6
52 50 48 64 48 40 32 32 34 32 40 28 25 22 24 34 40 42 38 33 34 36 30 32 33 34 38 36 34 36 34 29 29 32 33 30 25 22 17 14 17 20 54 12 9 9 9 9 9
59 55 73 58 48 37 32 31 30 40 28 37 39 35 43 50 39 41 36 36 38 39 30 32 33 35 38 37 36 37 38 34 28 29 32 32 28 24 20 17 16 18 18 14 12 11 9 9 9
70 66 73 61 45 40 34 33 30 38 36 34 38 39 40 40 41 42 35 36 39 38 32 31 32 34 38 38 37 38 39 36 34 33 32 34 31 26 22 21 18 16 17 19 20 21 21 21 21
79 79 70 61 51 40 38 38 37 36 40 39 34 36 47 30 31 39 38 36 43 42 36 32 32 32 38 37 38 39 39 38 35 38 39 36 37 37 31 24 22 22 21 21 20 21 21 21 21
92 82 68 57 51 45 41 42 41 41 39 37 35 37 46 31 31 29 39 43 45 46 44 36 32 32 34 39 38 39 40 40 39 39 41 41 42 38 40 41 38 31 26 24 24 24 24 24 24
95 82 69 54 45 46 42 43 43 39 38 36 36 38 49 35 31 30 29 30 43 45 45 38 34 33 32 38 39 39 40 40 40 40 38 43 43 44 43 40 36 41 42 42 41 38 36 34 32
90 85 70 58 47 44 44 48 45 43 39 37 35 38 43 42 32 31 29 28 26 32 43 45 39 35 34 33 40 40 40 41 42 42 41 37 44 44 45 45 44 41 42 43 42 42 44 44 44
75 85 68 58 50 46 46 48 49 41 38 34 35 39 44 45 34 32 31 31 32 38 41 40 41 41 37 34 38 42 42 42 42 43 44 42 41 42 45 46 46 47 46 47 48 48 46 45 44
56 78 62 57 52 56 51 51 42 32 27 36 26 28 33 39 37 34 32 30 36 40 40 40 39 41 44 38 36 41 43 43 44 44 45 46 45 44 43 45 47 48 47 48 48 49 50 50 49
45 56 61 52 53 60 58 52 42 43 37 37 40 43 22 32 38 36 33 31 29 33 44 46 40 36 39 46 40 38 44 45 45 46 46 46 46 46 46 46 47 48 49 48 48 49 50 51 51
72 62 50 52 52 56 55 50 46 46 39 44 46 36 22 22 36 38 37 35 33 30 27 40 46 40 42 48 49 43 41 44 46 46 47 47 46 46 47 47 47 47 48 49 49 49 51 51 52
68 65 64 68 54 43 44 52 48 50 49 38 32 28 24 23 30 37 37 37 36 34 31 30 34 42 41 43 45 52 47 44 51 54 55 48 47 47 47 47 47 47 48 48 49 49 50 52 53
82 74 78 73 55 47 44 59 53 44 59 37 34 31 26 23 24 29 33 35 36 35 35 33 37 39 47 48 44 45 51 57 60 59 58 58 50 48 48 48 48 48 48 48 49 48 49 51 54
95 74 81 72 67 51 49 57 64 41 48 39 36 31 28 24 21 22 25 28 33 40 39 36 37 35 35 39 44 42 49 51 51 53 57 56 56 52 50 50 49 49 48 49 49 50 49 50 53
88 85 77 68 52 50 52 49 48 43 34 32 34 28 26 24 20 17 17 18 25 30 32 36 37 38 35 32 35 38 36 37 42 41 48 53 57 57 55 54 53 52 50 50 51 52 51 52 52
89 62 62 54 56 61 40 46 44 48 30 20 25 28 22 19 18 15 13 13 15 23 34 39 43 43 41 39 36 37 38 36 36 40 41 42 50 57 57 57 59 61 57 54 54 54 53 53 53
62 57 44 42 63 52 64 61 50 44 31 18 17 25 20 14 13 11 11 11 11 12 14 24 37 43 46 43 42 35 38 42 42 41 37 41 44 49 54 59 62 61 61 60 58 58 56 56 56
48 51 39 46 51 58 60 56 55 58 24 16 15 21 30 16 16 15 8 8 9 9 10 12 14 26 37 47 49 42 36 42 46 44 41 39 41 46 50 52 59 60 60 60 62 59 58 58 58
67 52 50 54 60 53 50 62 63 42 22 24 33 28 22 15 13 11 10 11 10 11 11 11 12 13 16 24 36 45 28 30 35 40 43 41 38 41 49 53 54 58 66 68 65 62 62 60 61
65 58 48 56 59 53 61 58 38 29 20 17 16 15 14 14 13 12 11 12 13 13 14 14 14 14 15 16 18 22 26 16 20 22 28 33 39 43 43 49 57 59 60 65 65 65 63 66 66
62 69 64 82 70 43 58 24 56 43 35 30 25 22 20 17 18 17 17 16 16 17 18 19 21 22 22 21 20 21 23 23 23 26 25 25 33 43 51 53 56 64 66 65 63 62 62 65 69
76 70 90 87 74 76 61 51 43 45 48 43 37 32 29 26 26 25 27 26 26 26 24 22 20 18 16 16 16 18 24 28 30 29 28 31 32 29 29 54 72 67 71 71 77 68 65 60 70
86 81 90 87 82 76 62 49 43 42 47 57 38 31 27 25 26 28 29 30 30 29 27 23 20 17 16 16 16 17 17 17 18 20 20 20 24 41 46 43 47 60 68 72 81 82 80 77 72
92 92 85 90 96 60 65 62 37 39 45 54 58 37 35 35 33 30 29 28 25 22 19 16 16 16 17 18 19 20 22 24 26 28 28 28 27 26 38 54 58 55 52 52 60 72 76 76 77
98 89 68 63 63 52 60 49 37 44 42 50 41 39 36 34 29 24 22 24 25 24 25 26 27 29 30 30 31 31 30 32 34 35 35 34 34 33 34 40 61 69 67 63 62 61 68 72 73
94 98 84 56 47 44 40 41 44 41 40 42 42 39 34 32 30 32 36 39 40 39 39 38 38 34 31 31 38 42 40 37 37 39 40 42 43 44 43 42 42 45 56 68 71 72 70 70 70
99 95 90 75 75 50 37 31 28 36 37 41 46 49 49 49 48 49 49 47 44 43 40 35 24 18 15 11 11 18 34 44 48 46 44 45 46 48 49 50 48 48 52 66 73 76 82 83 79
87 90 82 81 61 46 27 22 30 30 34 42 55 53 51 55 56 54 51 46 43 40 39 26 14 10 10 10 11 13 16 19 27 40 52 57 54 54 58 57 54 51 47 44 43 58 78 82 79
89 77 72 63 68 60 61 37 28 48 55 57 51 48 59 63 62 56 50 46 40 34 28 17 13 12 11 10 10 12 14 18 19 21 25 34 57 70 70 70 70 64 58 55 45 44 43 50 66

GFSSGP_700_rhum_054.txt.gz
RH
47 46 46 44 50 50 44 32 28 29 30 28 28 27 27 30 35 42 46 41 36 34 29 33 33 36 36 34 33 34 31 26 27 30 31 27 24 19 14 14 17 20 10 8 8 8 8 7 5
57 50 48 55 60 50 40 34 31 30 36 33 28 19 27 44 38 50 41 37 32 33 30 32 34 37 37 36 36 34 33 31 27 28 31 31 27 23 19 15 16 21 15 10 9 9 9 9 9
68 60 55 64 63 49 38 31 32 33 35 32 38 30 31 63 47 38 39 36 31 35 31 32 34 35 38 37 37 37 36 33 29 28 30 32 29 25 22 18 16 16 19 20 20 18 16 13 10
81 70 58 72 54 46 37 32 31 32 32 37 38 38 43 63 45 36 37 36 34 36 36 31 33 35 37 38 38 38 39 36 29 31 31 33 32 28 23 22 20 18 16 15 15 16 16 16 17
94 87 80 67 62 46 37 38 32 35 37 37 36 40 44 37 41 44 38 37 38 40 35 31 32 33 38 38 38 39 39 40 37 31 36 38 36 38 37 30 23 22 21 21 21 21 21 21 21
95 93 89 74 61 53 42 39 35 34 38 36 36 40 45 36 33 40 40 38 45 40 37 33 32 32 34 38 38 39 40 40 40 37 33 37 42 41 36 36 39 38 35 31 28 26 25 24 24
85 100 96 80 59 52 46 40 40 37 38 35 35 37 47 40 31 30 36 41 45 45 45 42 34 32 32 35 38 39 40 41 41 41 39 38 40 43 45 44 36 36 38 40 41 42 43 42 42
92 99 87 80 65 57 46 41 41 39 37 36 35 40 75 45 33 30 30 29 35 42 40 44 38 34 34 32 38 39 40 41 42 42 42 41 40 40 43 46 46 45 44 45 47 45 41 40 40
94 99 98 90 70 56 46 43 44 43 40 39 36 37 62 47 38 32 30 29 27 27 31 38 45 42 36 35 34 39 40 41 42 42 43 43 41 41 40 42 43 47 47 47 48 48 49 48 47
91 95 98 82 64 60 59 60 49 45 37 38 36 34 43 50 43 34 33 31 29 28 32 35 35 38 42 41 36 35 41 42 42 43 44 45 45 43 42 44 46 46 47 47 46 46 46 50 50
72 84 66 69 61 57 54 65 50 45 40 32 35 31 33 38 42 37 35 34 31 32 29 32 38 37 38 40 44 40 37 42 44 44 45 45 46 45 45 45 45 46 47 49 49 49 49 50 50
60 44 68 66 64 56 54 57 53 41 41 39 37 41 31 23 28 36 37 36 33 29 28 31 31 37 34 33 35 44 44 39 42 45 46 46 46 46 46 46 47 47 47 47 48 49 49 50 51
72 69 50 55 55 52 53 55 49 45 44 44 43 41 34 28 22 23 38 38 37 35 34 31 30 32 41 42 39 42 48 47 43 41 44 47 49 48 47 48 47 47 47 47 47 48 48 48 50
78 66 64 60 58 56 51 53 49 41 50 44 44 38 33 28 24 23 24 38 38 37 37 35 34 33 31 34 39 42 41 44 51 53 50 50 53 56 56 49 48 48 48 48 48 47 47 48 47
85 82 77 68 63 58 55 51 43 45 52 43 30 31 31 30 26 23 23 28 35 37 37 37 37 36 34 34 36 46 47 49 48 53 53 56 56 58 57 56 53 51 50 50 49 49 48 48 49
93 86 77 74 73 68 57 47 46 40 43 35 38 34 33 31 28 24 22 23 26 36 42 39 27 33 36 37 34 37 47 44 43 43 42 42 42 48 55 56 56 58 56 53 53 52 50 50 51
87 79 81 72 64 70 66 58 49 48 42 37 36 34 30 27 25 24 22 21 20 20 23 35 37 28 25 37 43 35 40 41 40 40 37 34 31 33 38 46 56 64 65 62 60 60 58 55 55
73 72 73 70 46 57 66 50 51 51 51 40 26 23 33 23 21 20 20 20 18 15 14 16 24 35 45 41 42 38 38 44 43 41 40 40 42 41 37 38 46 53 61 66 63 62 64 64 63
68 63 58 59 55 50 60 67 54 53 50 36 26 18 20 22 18 21 17 16 16 13 10 9 10 15 22 36 50 49 35 38 43 49 51 47 46 43 44 43 42 48 52 54 57 63 64 61 63
58 59 46 48 47 48 55 52 56 55 51 31 20 16 16 29 39 28 13 12 11 10 9 9 9 10 11 15 22 34 37 24 27 30 37 48 44 37 40 42 47 47 52 57 59 57 62 68 66
66 59 49 53 61 58 49 48 51 46 38 28 14 13 14 20 22 17 11 10 10 10 11 11 12 12 13 14 14 15 18 18 14 13 16 20 36 47 40 38 40 49 55 53 60 64 64 68 72
67 62 53 55 66 54 42 36 32 33 24 20 17 16 16 16 16 13 11 10 11 11 12 14 16 17 17 18 17 18 19 22 27 22 21 25 27 30 37 43 47 44 47 54 65 77 77 74 71
63 52 70 76 64 73 64 60 37 45 46 36 26 19 16 17 17 16 18 17 16 17 18 21 22 21 20 18 17 17 16 16 19 26 28 26 21 20 21 32 42 44 60 64 64 73 81 78 79
79 75 74 76 82 85 59 53 51 46 36 38 37 35 34 32 29 27 26 26 26 27 26 25 23 20 19 17 16 15 14 14 15 18 21 22 22 21 21 21 24 35 46 50 52 61 75 84 82
80 77 91 93 94 87 54 59 44 40 40 38 38 36 32 29 26 25 25 27 26 25 23 22 20 19 17 15 16 18 21 23 24 23 24 26 29 31 31 31 35 41 45 55 65 66 65 64 65
96 70 78 75 92 74 63 63 46 41 38 44 43 35 34 36 32 32 30 26 22 20 20 19 18 18 19 23 28 32 32 33 35 35 34 34 35 37 38 40 40 40 61 52 58 72 77 77 76
91 90 89 66 44 56 54 47 48 42 43 44 42 37 39 37 34 30 27 25 28 26 30 33 34 34 34 34 30 23 21 19 28 40 43 42 41 41 42 44 45 45 44 48 50 53 62 77 81
83 84 96 70 83 64 44 37 35 39 41 40 40 45 40 38 35 38 39 39 39 38 41 40 39 37 29 19 14 10 8 9 11 15 20 30 34 38 44 48 50 53 54 54 52 53 54 58 72
99 98 98 86 71 84 55 34 34 32 29 38 58 43 45 43 40 46 50 49 47 44 41 40 38 32 19 11 9 9 10 10 12 13 14 16 18 20 25 33 50 61 63 62 62 60 57 56 54
98 97 95 97 86 56 60 48 28 31 40 50 50 50 45 47 58 58 56 52 48 44 40 33 30 22 14 11 10 10 11 12 12 12 14 16 17 18 18 22 30 34 51 69 70 72 72 70 70

GFSSGP_700_rhum_057.txt.gz
RH
50 47 45 44 43 46 36 32 32 28 27 23 22 22 26 30 31 35 41 42 34 32 31 34 34 36 36 37 37 30 30 27 25 28 30 28 24 20 15 14 17 12 8 8 8 8 7 6 5
61 54 51 50 51 59 38 31 33 28 27 25 25 22 27 29 34 45 44 41 36 34 30 33 35 37 37 37 38 38 35 26 25 25 29 30 27 24 20 16 14 16 16 11 9 8 9 9 9
74 65 58 54 56 52 36 37 34 31 29 27 26 22 32 40 36 43 42 39 35 34 29 32 34 37 38 37 38 39 39 33 24 26 28 30 29 25 23 20 18 15 15 18 21 22 20 17 14
83 80 67 64 59 36 39 39 33 30 32 32 34 35 45 44 48 38 41 35 32 35 31 31 34 36 38 38 38 39 39 39 32 25 27 30 32 30 26 23 21 20 20 18 17 16 16 16 16
91 91 84 71 53 32 42 42 35 32 30 28 39 40 43 50 45 39 37 37 33 36 38 30 32 34 37 38 38 39 40 39 39 35 27 34 34 34 35 35 31 26 23 22 22 22 22 21 21
89 99 94 76 58 44 54 40 35 35 34 29 40 43 42 40 41 46 42 33 30 39 43 32 32 33 34 37 38 39 40 41 41 40 36 29 32 39 36 32 34 37 38 38 38 38 36 35 34
73 96 96 75 62 52 50 45 39 36 38 31 37 56 51 43 36 41 43 37 36 42 40 33 32 32 32 36 38 39 40 41 42 42 41 39 35 34 43 46 44 39 40 42 41 38 37 38 38
87 83 94 88 64 56 51 53 44 36 38 36 36 45 50 47 34 32 39 36 36 46 47 44 39 34 33 32 35 38 39 41 42 42 42 42 42 39 37 37 41 47 47 47 48 47 48 47 46
100 96 93 94 80 57 73 57 43 41 34 38 37 37 46 51 39 32 32 32 32 35 40 45 44 39 35 34 33 35 39 40 42 42 43 43 43 43 42 42 42 38 41 41 43 44 41 46 50
90 100 74 56 73 79 94 72 44 43 34 41 39 37 49 56 44 40 32 31 32 29 26 27 37 42 44 42 38 35 35 40 42 42 43 44 44 44 43 43 43 44 44 44 46 48 48 48 47
78 92 80 78 81 100 100 84 59 49 45 39 39 37 35 54 44 38 35 33 32 31 29 25 22 28 35 41 43 44 39 36 40 43 44 44 45 46 47 46 45 44 46 46 46 47 48 48 50
56 52 52 72 78 87 93 78 62 49 45 38 38 36 33 34 46 41 38 36 35 33 30 29 26 24 23 26 30 33 40 44 41 40 44 46 46 46 47 48 48 48 47 47 47 48 47 47 47
53 58 47 76 80 78 81 66 64 55 45 44 41 37 36 30 28 31 37 38 38 35 34 30 33 33 29 28 32 33 35 42 46 46 42 44 46 48 48 48 48 48 48 48 48 48 48 48 48
55 70 72 67 66 60 69 58 58 55 43 45 48 46 39 38 31 25 22 28 37 39 38 37 37 35 34 33 30 28 27 30 37 45 50 48 47 47 49 53 56 54 50 49 49 49 49 49 49
78 72 90 73 65 58 57 56 54 54 48 43 43 45 43 40 34 28 24 21 29 38 39 39 41 39 37 36 33 31 31 32 35 39 38 41 48 52 53 53 54 57 57 55 53 51 51 50 50
89 78 90 70 76 66 57 48 47 48 44 46 37 38 40 40 32 30 28 26 23 23 31 38 38 39 39 37 35 34 36 35 38 47 46 46 46 42 39 38 38 43 52 56 58 59 59 56 54
87 82 81 78 69 58 50 40 36 39 37 34 43 35 30 29 31 32 31 27 27 25 25 24 27 30 31 31 33 34 41 40 41 38 40 40 38 39 39 37 35 36 39 42 53 62 66 65 64
79 75 67 69 68 55 47 48 48 48 44 40 40 40 36 35 32 30 28 27 25 24 22 24 22 18 15 15 28 30 40 45 46 47 42 43 46 44 42 43 45 44 41 44 50 54 56 58 62
66 73 73 68 67 60 48 47 39 41 45 41 35 33 26 28 39 30 25 22 20 22 23 20 17 18 17 16 20 21 22 33 48 54 57 57 55 52 50 46 44 45 46 47 50 52 54 56 60
71 64 66 70 67 61 54 52 47 42 47 44 35 34 29 24 20 18 18 18 17 18 18 17 15 13 12 12 14 19 18 16 21 26 34 46 55 53 51 50 45 46 45 46 54 59 56 57 64
78 68 64 63 64 64 61 61 52 38 30 37 30 26 25 21 18 15 13 13 13 15 16 15 13 12 12 12 13 13 14 13 12 13 14 15 19 27 37 35 36 38 40 45 50 60 64 63 70
73 59 62 57 62 64 58 52 40 36 24 29 28 22 21 17 18 16 15 16 16 16 13 12 12 13 14 14 14 15 16 17 19 17 16 17 21 25 29 35 35 38 47 53 53 62 64 62 67
71 63 60 59 61 68 59 50 32 28 29 27 29 27 21 19 17 15 14 14 14 14 15 15 14 15 16 17 16 16 17 18 18 19 18 15 14 17 22 29 34 37 37 38 45 47 50 53 64
84 68 72 74 70 82 63 58 38 29 21 23 34 35 28 20 17 18 20 18 19 20 21 21 22 22 22 21 20 19 17 16 15 14 15 16 14 13 13 13 15 18 23 50 50 45 56 59 70
97 70 89 91 93 90 59 67 42 36 30 40 40 35 31 30 28 28 28 26 25 24 25 24 23 22 20 19 17 15 14 14 16 18 21 25 27 28 29 30 31 32 33 36 46 61 53 60 70
96 79 65 85 98 84 63 66 51 31 42 39 34 35 35 31 28 27 27 26 26 25 22 20 17 15 15 15 16 17 20 23 27 30 31 33 36 36 37 38 38 39 40 42 43 42 44 52 56
98 82 73 70 53 69 57 56 51 45 41 40 38 35 32 31 30 32 31 29 26 22 20 19 20 21 23 27 30 31 31 27 20 18 16 17 21 32 40 43 42 41 41 40 42 45 46 46 48
93 85 82 84 90 70 59 48 43 43 42 42 43 44 38 36 37 35 34 32 28 24 25 26 27 31 33 34 34 29 19 12 9 8 8 9 9 10 12 14 16 18 23 31 42 48 53 57 56
99 96 87 80 78 88 64 42 39 40 35 41 47 45 39 41 40 44 43 41 37 40 43 41 39 37 37 36 31 19 11 10 9 9 9 8 9 10 11 13 15 16 18 18 22 30 47 63 68
95 81 87 82 82 66 61 44 30 30 40 42 46 43 48 47 46 53 55 55 51 47 47 47 43 38 31 28 19 13 12 12 13 16 17 19 15 15 17 16 17 19 19 23 28 45 53 50 49

GFSSGP_700_rhum_060.txt.gz
RH
49 48 45 44 40 39 27 29 34 30 24 26 22 21 26 34 33 38 44 36 34 34 37 35 36 37 38 39 38 35 23 23 22 24 27 27 24 20 15 14 15 10 8 8 8 8 7 5 6
58 50 50 48 47 47 26 36 33 30 27 25 23 21 24 29 33 32 41 36 34 32 34 35 36 37 37 38 39 39 37 23 22 24 28 28 26 24 21 17 14 16 17 14 10 9 9 9 9
67 60 56 55 51 42 32 37 37 31 28 25 26 24 24 26 31 39 43 37 36 34 31 34 36 37 37 38 39 39 39 37 27 23 26 28 28 26 24 22 20 16 15 16 18 19 20 20 19
74 71 64 59 54 37 40 39 38 33 31 30 25 26 24 26 32 38 42 41 37 33 30 33 35 38 38 38 39 39 39 39 38 30 24 26 28 31 29 25 22 21 21 21 21 20 20 19 18
78 80 79 66 51 42 47 42 39 35 32 29 26 27 28 36 27 33 42 37 34 35 32 31 34 36 38 38 39 39 40 40 40 38 34 25 26 29 32 34 35 33 32 30 29 28 27 26 25
73 85 84 75 49 50 46 44 40 34 31 30 30 33 41 45 35 36 34 37 37 37 35 31 33 35 36 38 39 40 40 40 40 41 40 38 31 29 35 32 31 33 35 35 35 36 36 36 36
66 82 88 67 50 47 52 55 39 36 32 36 40 42 42 41 36 33 40 37 34 37 45 34 32 33 34 37 38 39 40 41 42 42 42 41 41 37 32 34 42 44 44 43 42 42 43 42 41
94 82 84 72 52 45 56 52 45 37 36 35 38 52 43 43 37 39 44 39 43 46 43 35 32 32 32 33 37 39 40 41 42 43 42 43 43 43 41 39 37 35 39 39 40 38 37 38 41
98 96 91 69 61 58 59 64 48 40 37 36 36 38 45 44 36 37 40 41 39 47 47 44 40 36 34 33 33 34 38 40 41 43 44 42 43 44 44 44 43 43 42 42 41 41 40 41 43
96 100 73 57 52 64 72 70 47 44 40 36 38 37 44 53 47 41 36 34 32 35 33 35 43 45 44 41 37 35 34 37 40 42 43 44 44 44 44 44 45 46 46 46 46 46 47 48 47
89 81 78 66 70 70 67 69 54 51 48 39 34 38 46 62 54 51 42 38 33 32 30 29 27 28 34 40 43 44 42 37 37 40 43 44 45 46 46 47 46 46 47 48 48 48 48 48 48
90 88 79 74 89 91 92 84 60 69 55 43 40 39 38 55 55 49 44 43 37 33 31 30 28 27 28 30 33 35 36 41 44 40 40 43 45 46 47 47 48 48 48 48 48 49 49 49 50
76 79 74 86 100 90 100 96 74 70 50 46 42 40 36 35 45 45 42 41 39 35 34 33 32 30 31 29 26 24 28 34 35 44 47 43 43 46 48 48 49 49 49 49 49 49 49 50 50
66 79 89 83 94 97 96 90 98 84 54 46 43 38 36 34 32 34 39 40 39 38 38 37 35 34 36 36 33 30 28 29 29 36 45 51 50 47 46 48 54 56 58 60 57 52 51 50 50
79 84 100 90 79 88 79 82 91 84 74 48 48 45 42 39 33 31 29 26 27 37 40 41 40 38 38 37 37 35 32 30 30 32 41 43 45 48 50 53 53 52 52 54 58 60 61 59 56
86 72 89 62 62 68 76 73 70 84 79 50 45 47 46 45 44 40 35 28 25 23 27 38 40 40 39 38 38 37 35 32 30 31 33 45 47 44 43 40 36 33 31 31 31 37 48 59 62
83 77 77 71 60 61 55 64 56 58 58 52 49 46 43 45 44 42 40 31 28 25 23 22 28 38 41 40 39 40 37 31 29 28 35 38 39 42 42 42 40 40 39 37 37 34 35 41 50
78 52 64 67 65 74 57 50 41 44 49 40 47 43 36 38 37 37 35 33 32 29 26 24 22 21 25 29 30 26 18 22 29 31 36 39 45 45 40 44 49 48 49 47 46 46 45 44 46
66 66 72 73 73 69 69 58 47 42 36 35 34 32 32 31 32 33 32 32 32 30 28 27 26 24 21 19 18 17 16 20 26 35 48 50 48 48 54 57 56 56 58 58 54 54 55 55 54
56 71 70 68 69 71 67 57 49 46 42 38 37 38 38 37 35 34 33 33 32 29 24 23 23 23 24 21 18 15 13 12 14 17 23 26 31 37 38 42 45 46 47 49 49 48 50 55 60
76 73 71 61 60 68 62 62 54 45 50 44 30 28 34 38 34 31 31 30 27 25 20 20 20 20 19 18 17 14 12 11 12 13 13 14 16 17 23 24 24 24 22 25 34 48 51 60 61
78 70 69 68 68 75 73 65 45 43 43 42 37 27 27 35 36 32 27 23 24 19 19 22 21 20 17 14 12 13 13 14 13 13 15 16 19 21 23 27 30 33 30 32 35 40 45 54 69
81 70 63 58 60 70 67 65 52 44 38 34 34 32 22 24 32 28 24 20 19 18 20 20 16 14 14 14 14 14 16 17 19 20 18 18 18 16 15 17 20 29 52 45 32 30 28 30 33
77 70 65 68 73 79 61 58 47 38 31 32 25 22 21 23 28 28 21 16 17 17 17 17 17 17 18 18 19 19 19 19 19 18 17 16 14 13 12 12 14 16 18 22 26 33 49 57 61
83 74 92 90 96 89 60 66 52 32 33 30 26 21 26 31 33 30 23 20 20 21 22 22 22 23 23 23 23 22 22 21 19 16 15 16 18 20 23 25 27 28 29 31 34 36 44 50 55
86 80 67 86 96 78 60 66 47 39 31 29 40 39 42 40 35 31 31 29 27 25 24 23 23 22 21 19 18 16 15 15 15 16 20 26 32 34 35 36 36 36 36 37 37 36 37 38 41
88 94 72 67 67 78 54 40 37 35 28 28 28 33 31 32 34 33 30 28 27 26 24 22 19 17 16 16 18 19 21 24 27 29 27 21 16 13 10 11 15 19 21 21 24 26 30 32 36
100 89 85 84 85 75 61 59 37 27 28 33 34 36 37 35 29 30 32 32 31 28 26 24 23 23 23 25 27 30 32 32 30 22 13 9 8 8 8 8 9 10 11 13 16 17 18 19 20
100 98 88 75 74 89 76 51 43 40 40 34 39 42 44 42 36 37 38 36 31 29 29 31 33 36 38 38 36 36 36 32 21 11 10 10 13 12 12 11 11 13 15 16 18 20 21 24 36
99 95 94 77 82 76 65 48 33 33 40 41 43 47 48 44 42 46 43 40 38 40 45 46 45 43 42 40 37 32 30 21 13 13 14 18 20 25 27 18 20 22 18 21 22 23 25 34 46

GFSSGP_700_rhum_063.txt.gz
RH
52 47 45 43 36 36 24 21 18 16 20 24 25 23 37 46 41 43 44 35 38 39 37 39 39 39 39 39 38 34 22 19 20 23 24 25 23 20 15 15 13 11 9 9 8 8 7 6 6
48 49 48 46 48 42 24 20 28 28 25 22 26 23 26 37 47 44 43 40 35 37 38 39 38 38 38 39 39 39 37 28 20 21 23 25 26 24 21 17 15 17 18 18 17 16 13 12 11
68 51 52 56 52 44 27 25 36 33 32 28 26 24 23 34 33 37 39 37 36 35 36 37 37 38 38 38 39 39 40 37 31 21 22 26 28 27 25 22 21 19 18 16 16 16 16 16 17
74 66 58 59 53 39 43 36 39 34 31 30 28 25 23 28 39 44 39 34 34 34 33 35 37 38 38 39 39 40 40 40 39 34 28 22 26 30 31 29 26 24 23 22 22 22 22 21 21
71 75 72 62 51 41 46 45 39 37 37 31 30 27 25 24 33 43 45 39 38 33 32 34 36 37 38 39 40 40 40 40 41 40 36 33 26 27 29 32 35 36 36 35 35 35 35 35 36
84 78 79 73 48 40 47 51 41 39 38 34 31 27 25 25 24 32 42 40 37 36 31 32 34 36 38 39 40 40 41 41 41 42 41 40 38 32 29 34 35 34 35 35 36 36 37 37 39
97 62 81 76 49 45 48 53 42 38 39 34 32 29 24 29 25 27 33 39 39 35 35 31 32 35 37 38 39 40 41 42 42 43 43 43 42 42 40 38 34 32 33 32 33 33 34 36 37
76 78 76 77 57 47 47 57 46 42 41 36 37 42 31 31 26 29 27 34 38 37 37 35 32 33 35 37 39 40 41 42 43 43 44 44 43 44 44 44 44 43 41 40 39 38 38 38 38
100 99 86 66 61 47 45 54 57 44 44 40 37 39 42 39 38 34 33 37 37 35 39 45 37 32 33 34 35 38 39 41 42 43 44 44 44 44 44 45 45 45 45 46 46 46 46 46 46
100 100 80 64 56 60 49 55 58 47 41 40 37 37 42 45 40 37 44 45 47 50 47 43 38 36 34 34 34 34 35 37 39 41 42 44 45 44 44 44 45 46 47 48 48 49 49 48 48
98 94 64 71 76 73 58 64 57 47 42 42 49 35 37 48 44 36 39 39 40 36 35 31 33 38 41 44 44 44 41 38 36 38 41 43 44 45 46 47 48 48 47 47 48 49 50 50 51
91 96 95 93 90 75 72 71 69 63 48 45 56 58 46 49 50 47 41 37 36 35 33 32 30 29 30 33 36 36 38 41 44 44 40 40 43 46 46 47 48 48 49 49 49 50 50 50 50
99 86 97 100 84 88 78 79 90 69 54 48 47 56 47 49 60 54 50 47 42 37 34 33 32 30 29 28 28 26 28 33 34 35 42 47 44 44 46 48 49 50 51 52 53 52 51 51 51
99 100 93 89 95 95 90 82 96 73 57 50 47 51 40 38 42 51 48 44 41 38 36 36 34 33 31 34 35 32 32 29 27 29 33 36 44 51 48 47 50 53 59 63 62 62 62 62 60
93 93 90 89 97 95 100 98 96 73 64 58 58 54 42 39 35 35 36 35 41 40 39 37 36 36 35 35 36 37 36 33 30 29 30 34 44 49 52 58 59 57 53 48 44 41 41 46 55
83 96 89 87 84 84 97 89 77 95 73 85 93 69 48 40 36 34 37 36 31 28 26 28 30 36 39 39 38 38 38 37 37 34 30 33 36 45 52 48 47 42 39 37 36 36 37 38 36
98 85 91 94 90 68 86 80 91 90 86 67 65 60 58 49 41 38 36 36 36 32 28 25 23 23 26 36 39 39 39 39 39 34 31 29 34 40 40 37 40 44 42 42 44 41 44 44 43
72 56 65 75 70 69 76 68 71 83 83 94 63 56 51 48 47 47 45 41 36 32 28 28 28 26 24 24 26 29 32 33 32 24 24 30 30 34 39 39 43 42 44 48 52 54 52 50 46
66 64 75 82 60 57 78 77 82 79 68 63 63 59 56 53 47 42 44 44 42 36 29 28 29 29 28 26 23 22 22 24 21 20 23 26 27 36 50 50 48 50 57 60 61 64 59 58 56
71 73 67 78 74 72 80 79 86 82 62 52 42 41 39 40 44 31 36 38 36 34 32 32 31 29 27 26 26 25 23 21 18 16 14 16 17 21 24 27 31 46 41 42 44 41 36 34 41
80 64 64 71 75 81 77 78 77 71 56 50 44 39 38 40 38 36 35 36 36 34 33 33 29 24 21 20 21 21 21 20 17 14 13 12 13 15 17 18 17 20 21 22 20 23 25 27 27
88 80 71 73 74 79 74 75 54 47 40 47 46 41 35 36 37 37 36 34 33 34 34 32 24 18 19 20 21 19 17 15 13 12 13 15 16 17 18 19 22 24 27 28 27 27 32 35 40
82 74 72 72 66 69 72 72 53 44 32 27 32 43 41 30 25 26 31 31 31 32 31 27 21 20 20 19 16 14 14 13 13 13 13 16 20 22 23 22 19 19 19 20 22 30 53 31 24
79 74 69 66 68 82 70 70 63 48 26 30 30 38 42 39 34 26 22 26 29 28 25 21 18 18 18 15 15 15 16 16 18 19 19 20 20 18 17 16 15 15 17 20 23 26 28 41 62
95 74 91 91 92 91 68 64 62 46 38 30 30 32 32 35 25 23 23 26 26 23 20 18 17 17 19 21 22 22 22 23 23 23 22 21 19 16 15 15 17 22 28 32 34 34 47 47 45
81 75 71 86 96 81 65 68 59 37 33 35 35 31 31 30 28 32 38 37 31 27 21 22 24 26 25 25 25 25 25 24 22 19 18 17 20 24 27 30 32 32 31 32 35 36 38 39 40
88 88 71 62 72 81 63 55 44 40 32 27 27 32 28 28 37 43 42 36 31 31 29 27 27 25 23 22 20 19 18 18 20 22 24 28 32 32 25 19 15 12 11 13 18 24 26 26 23
92 92 92 76 81 80 63 59 39 31 24 24 27 28 32 35 37 34 36 35 32 31 30 28 26 24 23 22 21 21 22 23 26 30 32 32 26 14 10 9 9 9 9 10 11 13 15 17 18
97 89 94 83 77 80 83 50 41 44 40 32 33 35 37 40 38 36 32 33 33 32 32 32 31 29 29 31 34 36 36 35 36 36 34 25 13 10 11 15 15 18 15 13 17 17 18 21 22
100 98 97 82 88 80 71 60 44 42 32 43 42 44 44 44 43 38 36 36 35 36 36 38 41 44 46 44 43 42 41 39 34 32 25 15 13 14 18 22 28 30 20 23 23 20 24 29 33

GFSSGP_700_rhum_066.txt.gz
RH
38 29 27 32 34 34 27 23 21 21 23 25 27 27 26 45 43 39 42 34 38 36 32 34 40 39 39 39 36 32 22 18 19 22 24 24 22 18 15 15 16 15 13 11 10 10 9 9 8
56 48 44 40 39 40 30 21 18 22 22 21 21 25 24 43 41 42 41 36 39 39 36 33 39 39 39 39 38 38 33 24 18 19 23 25 25 23 20 18 16 16 16 17 18 18 18 18 18
59 53 51 47 48 44 29 22 22 34 25 25 26 25 24 34 46 43 41 39 39 38 39 36 39 38 38 39 38 38 39 36 31 23 20 24 26 26 25 23 22 21 21 21 21 21 20 20 21
79 72 60 53 51 39 35 28 29 36 35 32 28 26 26 31 43 45 40 39 36 36 37 38 38 38 38 39 39 39 40 40 40 33 29 22 23 26 30 31 32 32 33 32 32 33 34 35 36
86 83 77 57 52 38 40 42 40 38 38 35 32 28 25 29 34 38 40 35 32 35 35 35 37 38 38 39 40 40 40 41 42 41 39 34 30 26 27 28 29 30 29 29 29 31 33 33 35
96 79 78 72 51 41 42 52 48 41 38 36 34 31 29 26 33 39 40 33 32 32 33 33 35 37 38 39 40 41 41 41 42 43 42 42 39 37 36 33 30 29 29 29 29 29 30 30 32
96 97 75 74 54 44 40 53 53 44 40 40 38 33 29 28 26 39 44 41 40 36 31 33 34 36 38 39 40 41 42 42 43 43 44 44 44 43 43 44 45 44 43 40 36 34 34 34 33
98 100 81 80 60 42 43 48 56 45 40 40 38 38 28 25 26 26 31 41 40 37 35 32 33 35 37 38 39 40 42 42 43 44 44 44 44 46 45 45 46 46 46 46 48 48 48 48 47
97 99 90 78 64 46 43 49 54 49 41 42 42 36 34 34 28 27 25 26 39 39 37 36 33 32 36 37 38 39 40 42 42 44 44 44 44 45 45 46 46 46 47 47 47 48 48 49 49
98 98 93 67 63 58 51 48 54 57 43 41 40 41 44 43 39 34 29 30 31 35 37 37 41 35 33 34 36 37 37 38 39 42 43 44 45 45 45 45 46 46 47 48 49 50 50 50 51
98 87 90 88 78 70 71 59 60 57 44 56 47 44 56 50 44 45 43 51 51 48 45 45 43 37 34 34 34 35 36 36 36 38 40 42 43 44 46 46 47 48 48 48 49 49 49 50 50
98 91 98 95 90 73 72 61 66 54 50 51 49 52 60 59 51 44 46 47 45 46 43 40 38 38 40 40 41 42 44 44 44 44 42 40 41 44 46 47 47 48 49 50 50 50 50 51 51
72 89 97 97 94 75 74 67 72 61 58 54 57 54 61 61 63 56 47 46 41 38 35 32 31 30 29 28 28 28 27 30 33 35 38 43 47 46 45 46 48 50 51 53 56 58 60 61 60
81 87 80 88 100 86 76 75 77 72 69 54 56 54 60 60 62 61 54 46 40 38 35 34 34 33 32 30 31 32 31 30 29 27 28 31 35 41 48 51 50 50 54 58 60 61 58 56 54
92 83 96 99 100 99 94 91 75 68 83 61 52 51 49 50 47 56 57 51 46 44 41 37 35 34 34 33 33 35 36 36 36 34 30 27 30 35 42 48 53 60 59 56 52 45 38 34 33
95 84 97 92 92 100 99 95 70 73 88 67 62 60 57 53 40 38 42 48 45 44 43 42 39 36 35 36 36 36 38 38 38 39 38 34 29 30 35 44 53 55 51 45 42 40 39 39 41
91 82 88 85 81 84 98 86 66 80 98 82 97 81 74 68 54 43 38 37 37 38 37 32 27 25 27 34 37 39 39 38 40 40 40 41 36 34 31 38 47 49 45 42 42 42 44 46 48
83 89 81 82 73 80 64 64 64 81 97 80 87 81 72 67 61 55 51 46 41 38 34 31 27 26 26 25 25 26 28 33 37 40 43 40 28 27 30 30 36 40 43 43 44 48 56 62 63
67 80 81 84 78 69 67 71 70 74 78 84 78 68 63 60 60 55 52 49 45 43 41 38 37 32 29 29 29 27 25 25 25 26 27 26 24 24 25 27 36 52 56 57 59 64 60 46 51
61 82 83 87 82 78 83 76 82 77 60 92 80 69 60 59 56 55 54 50 46 44 42 39 36 33 31 32 31 29 27 26 25 24 24 23 25 19 17 14 18 23 28 46 47 52 36 33 29
81 68 69 69 82 86 80 82 71 75 69 80 81 70 54 45 50 48 42 45 46 39 38 35 33 34 35 35 32 27 25 25 26 24 23 21 18 18 17 13 14 16 16 17 18 20 24 24 27
91 80 60 71 77 93 87 83 72 69 58 52 52 58 53 45 41 43 40 40 38 36 33 35 35 34 33 28 22 19 19 19 19 19 19 18 16 15 15 16 18 20 22 24 26 27 24 21 21
87 86 77 81 82 82 80 82 65 54 56 28 39 49 51 45 41 43 43 42 41 39 36 33 30 27 25 21 18 17 18 18 15 14 14 14 14 15 16 18 19 20 20 19 18 18 18 17 17
81 72 78 81 78 83 74 72 65 53 32 32 39 43 45 45 44 40 31 30 31 35 36 33 30 28 24 19 15 14 14 13 13 14 15 15 16 18 20 21 20 19 18 17 17 20 23 25 28
80 72 88 90 91 92 71 70 62 56 53 42 33 31 30 28 38 46 44 36 37 35 35 34 30 25 20 15 13 12 13 14 16 17 18 20 21 22 22 21 19 16 16 17 24 31 37 38 43
92 73 71 86 96 82 70 77 60 42 40 37 34 31 31 33 36 41 42 39 36 33 35 33 28 23 19 17 17 17 18 19 21 23 23 22 22 19 16 16 18 24 29 33 31 29 31 34 43
98 88 75 61 75 80 64 59 47 38 33 35 32 27 33 31 34 33 37 32 34 41 42 34 29 25 25 26 25 24 22 22 20 19 17 18 18 21 25 28 31 26 17 12 10 11 13 17 21
85 79 81 74 82 82 63 58 39 36 40 40 36 33 29 29 32 31 32 40 45 42 38 34 31 29 28 26 24 22 21 21 20 21 22 24 28 32 34 28 16 11 10 11 11 10 10 12 15
94 93 87 81 73 78 80 53 41 44 43 33 32 31 29 33 38 41 41 36 34 34 33 33 32 32 31 29 28 26 27 28 31 34 35 35 36 35 29 17 12 13 17 21 25 18 16 19 18
86 95 95 95 88 85 80 65 42 42 45 40 38 37 42 48 47 44 42 39 38 36 36 37 38 38 36 35 36 38 40 38 39 39 39 36 33 28 18 14 16 21 23 32 33 23 25 24 23

GFSSGP_700_rhum_069.txt.gz
RH
40 33 25 28 33 33 28 25 26 27 26 28 32 29 34 55 45 37 39 35 35 30 32 36 39 39 38 35 31 23 18 19 21 23 24 22 19 16 15 16 17 17 16 15 13 12 11 12 13
46 33 29 33 35 34 30 24 22 30 29 26 26 28 26 45 48 41 38 36 38 35 34 37 38 39 39 38 38 37 28 20 17 18 21 24 23 21 20 19 18 17 17 17 17 17 17 18 18
58 45 42 44 40 35 28 25 25 23 30 23 23 24 25 30 41 43 39 36 42 38 35 36 39 39 39 38 38 39 38 31 23 18 18 22 26 26 25 24 23 23 23 23 24 25 26 28 31
63 56 49 46 42 34 30 26 22 27 29 36 28 24 26 26 41 43 38 38 43 38 38 36 40 39 39 39 39 39 40 40 36 28 25 22 23 26 28 28 30 30 30 31 32 33 33 33 33
69 77 67 54 49 39 34 35 23 34 33 36 32 29 28 25 36 46 38 36 39 38 38 37 38 39 39 39 39 40 40 41 42 42 34 30 30 28 27 27 26 26 27 27 27 28 30 32 31
85 87 87 54 51 46 35 48 34 41 37 34 31 29 28 30 33 41 42 35 35 37 37 36 36 38 39 40 40 40 41 42 43 44 43 41 37 39 42 43 41 38 34 30 28 28 30 30 31
88 86 71 70 65 47 39 47 52 48 41 37 33 32 30 31 29 34 41 35 32 34 35 35 35 36 38 39 40 41 42 42 43 44 45 44 44 44 45 44 45 46 47 47 48 48 48 47 45
92 92 96 76 73 52 43 41 54 53 43 40 37 37 33 32 30 32 40 37 33 32 33 34 35 36 38 39 40 41 42 42 43 44 44 45 46 46 46 46 46 47 47 47 48 49 49 49 49
86 98 99 90 82 66 48 43 45 55 46 46 42 39 36 32 31 29 36 42 40 41 36 32 34 34 37 38 39 40 41 42 43 44 44 44 45 45 46 46 46 47 47 47 48 49 49 50 50
86 99 94 72 86 73 66 54 45 53 49 46 45 39 38 47 47 36 29 30 41 40 38 36 33 33 35 37 38 39 40 40 41 42 43 44 45 45 45 45 46 46 47 48 48 49 49 50 50
84 88 81 83 88 84 68 72 52 52 51 56 57 47 47 47 50 50 43 37 39 40 42 39 36 34 33 35 37 37 36 36 37 38 39 41 43 44 45 46 46 47 48 48 49 50 50 50 51
81 85 98 92 96 75 77 77 66 59 54 50 57 47 47 53 51 52 52 56 47 42 41 42 44 44 37 34 34 34 36 38 40 41 40 40 40 42 44 45 46 48 48 49 50 51 51 53 56
79 98 93 97 90 86 78 84 69 67 60 56 58 50 51 60 62 58 57 57 55 53 51 49 46 44 43 42 42 42 42 40 39 38 38 41 44 46 46 46 46 48 50 50 52 55 57 60 60
82 96 94 94 92 99 89 82 70 65 71 65 62 57 56 58 67 65 59 60 55 48 40 37 34 32 32 31 31 29 27 27 26 26 26 27 29 32 38 44 49 51 52 53 57 61 60 57 50
99 84 92 90 92 99 89 77 64 62 71 63 74 68 65 60 61 69 66 60 61 53 40 37 35 33 32 32 31 31 33 34 35 35 34 33 31 27 29 34 43 50 52 54 54 53 50 43 38
85 85 87 87 89 95 92 73 69 64 67 76 68 74 66 62 59 65 67 66 64 57 47 41 37 36 35 34 34 34 34 35 37 38 39 40 40 39 32 29 35 44 51 50 49 47 43 40 40
90 91 87 91 98 89 85 98 65 64 84 73 79 73 64 50 50 50 52 51 51 47 46 43 41 40 38 36 37 38 37 37 40 40 41 42 44 45 40 34 34 37 43 49 48 44 42 42 43
87 83 96 87 94 99 87 85 90 80 77 80 80 88 70 55 48 47 44 42 39 39 39 37 36 33 28 26 25 27 29 32 36 40 41 43 43 44 37 27 27 36 40 40 43 47 50 53 58
65 83 84 83 77 80 79 73 90 85 79 80 85 89 78 66 63 56 56 56 47 43 39 36 36 36 33 30 28 28 28 26 25 25 26 29 30 30 27 23 22 23 29 39 53 60 61 47 48
77 80 83 82 85 83 76 83 77 62 57 61 70 78 87 76 67 61 58 56 53 49 47 45 43 40 38 35 31 28 29 29 28 28 27 26 25 26 28 25 23 20 19 16 24 31 29 33 23
91 74 86 82 85 81 89 89 81 71 54 52 61 70 77 68 62 60 57 54 52 53 52 50 43 40 37 32 30 30 29 29 27 22 20 19 20 21 22 21 19 17 14 14 16 18 20 28 24
88 81 60 60 69 90 90 84 49 57 56 44 49 62 64 65 62 56 54 54 52 44 40 48 45 38 35 35 35 35 33 26 20 17 16 17 17 18 18 17 15 14 15 16 17 19 25 22 20
83 74 73 69 78 79 84 82 58 49 46 29 36 55 74 63 68 50 40 42 40 39 40 39 38 38 38 38 36 30 24 20 16 14 14 13 13 13 13 14 14 16 17 18 19 19 19 18 17
83 86 89 86 87 85 78 84 72 58 41 34 39 35 58 75 70 58 43 45 40 39 40 40 40 40 39 36 34 30 26 21 16 13 12 12 13 13 14 16 17 17 18 18 18 18 17 17 20
78 87 89 87 89 87 69 75 70 55 52 51 48 42 41 48 60 47 48 47 44 35 34 36 36 36 34 33 31 26 20 15 13 12 13 15 16 17 18 19 20 20 19 18 16 17 21 27 34
83 74 69 89 92 82 71 77 54 44 42 44 43 37 37 32 35 43 45 45 48 48 46 40 35 27 26 26 24 20 17 15 15 17 18 18 19 20 20 19 17 15 16 19 24 28 28 23 20
72 79 70 64 78 74 66 64 45 39 41 42 38 36 33 35 39 36 31 37 44 47 47 41 35 35 36 30 26 21 20 21 21 21 21 20 18 16 15 15 16 19 24 28 26 15 10 10 10
80 77 77 75 80 76 62 53 38 39 42 36 37 30 32 32 36 34 38 43 44 44 43 40 40 40 34 30 28 26 24 23 22 20 19 18 18 17 18 21 24 30 31 21 12 12 15 17 18
95 92 84 75 73 74 70 48 39 42 48 46 35 34 31 33 33 36 35 36 40 45 45 45 40 36 32 31 29 28 27 26 24 24 25 28 31 33 33 34 34 31 20 13 15 20 26 29 21
96 84 76 80 84 83 80 61 43 43 50 46 48 46 40 31 35 44 48 52 50 44 40 37 35 36 35 33 32 30 28 29 31 32 35 37 37 37 37 32 29 21 17 18 22 26 33 30 27

GFSSGP_700_rhum_072.txt.gz
RH
49 43 40 39 35 41 32 34 33 28 30 37 37 28 57 53 42 39 35 33 31 31 33 35 34 33 31 26 20 17 18 20 22 23 21 18 16 15 16 16 16 15 14 12 11 11 13 15 17
48 44 35 34 40 34 33 30 30 38 27 28 35 30 36 56 42 41 36 35 32 33 35 37 38 38 37 37 35 23 18 17 20 23 23 22 21 20 18 17 17 17 17 17 17 17 18 19 21
46 42 37 43 42 33 28 27 24 41 32 26 28 29 27 53 50 42 36 37 38 34 34 38 39 39 39 39 38 36 28 20 18 19 22 25 25 24 24 24 24 25 25 26 26 28 30 31 31
59 49 43 48 40 41 45 26 24 23 49 31 25 25 27 28 45 44 35 38 41 36 33 38 39 39 39 39 39 39 36 34 24 22 20 22 25 26 28 29 29 29 29 28 28 28 28 28 28
65 54 64 52 52 48 32 27 24 22 32 47 27 29 26 26 42 45 35 37 41 38 35 36 39 39 39 40 40 40 40 40 39 33 26 29 29 27 26 26 26 26 25 25 25 25 25 26 26
72 67 63 52 54 41 36 35 28 24 29 45 42 34 28 26 34 45 35 37 40 38 38 37 38 39 39 40 40 41 42 42 42 43 40 36 33 38 42 44 44 42 41 40 40 40 39 38 36
88 73 61 62 66 49 41 42 44 35 38 48 42 40 34 31 37 48 35 35 37 38 39 38 38 37 38 39 40 41 42 42 43 44 44 44 43 43 44 42 45 46 47 48 48 49 49 49 49
89 90 77 80 78 69 47 39 50 50 42 39 36 55 35 36 32 43 41 34 35 36 36 37 37 38 38 39 40 41 42 42 43 44 44 45 46 46 46 46 46 47 47 47 48 48 49 49 49
94 100 87 74 76 72 42 45 43 54 47 40 36 34 32 37 34 36 43 35 33 34 35 35 36 37 38 38 39 40 41 42 42 43 44 44 45 45 46 46 46 47 47 47 48 49 49 50 50
99 92 82 80 80 77 58 50 48 47 53 45 42 37 34 34 34 40 44 43 35 32 32 34 34 36 37 38 38 39 40 41 42 43 43 44 44 45 45 45 46 46 47 47 48 48 49 50 50
95 78 88 88 87 82 84 60 64 54 53 46 46 43 38 35 38 44 45 46 46 42 40 34 33 35 36 37 37 38 38 39 40 41 42 42 43 43 44 45 45 46 46 47 48 49 50 50 50
84 98 99 100 78 79 71 74 74 66 55 50 53 49 45 47 43 46 43 49 45 46 44 42 34 32 35 36 37 37 37 36 36 36 38 38 39 40 42 44 45 46 47 48 49 50 51 52 54
91 99 100 98 81 83 83 88 79 80 64 55 56 64 52 57 55 52 52 56 48 44 46 47 41 35 34 35 35 35 35 35 38 41 43 43 43 44 44 45 45 46 46 47 49 50 52 54 57
95 93 98 97 81 89 84 80 84 74 77 67 62 60 58 60 60 59 55 60 63 64 58 53 50 46 43 38 36 37 40 43 41 33 28 26 28 28 31 35 40 44 46 49 51 53 56 56 54
81 89 80 95 79 92 87 90 85 75 74 78 76 63 57 62 69 65 59 62 67 66 59 53 48 46 44 43 42 41 35 29 28 30 32 32 33 32 31 28 30 32 36 41 47 50 49 49 47
84 96 97 97 87 92 97 78 62 73 70 72 78 82 70 64 62 66 63 65 67 65 55 50 40 36 34 34 32 31 30 32 33 34 36 38 39 40 40 40 36 30 28 32 41 49 50 49 46
98 77 89 89 88 94 86 91 99 100 78 66 71 78 87 77 65 64 67 65 65 64 56 46 41 36 36 35 34 35 34 34 34 37 39 41 42 44 44 45 46 39 34 34 34 38 43 44 44
70 72 83 87 80 91 89 99 84 69 74 63 71 72 80 82 68 62 63 68 66 66 60 54 53 44 42 41 39 37 36 35 38 38 38 39 39 40 40 42 45 38 30 29 31 34 38 43 52
60 72 94 95 88 78 98 87 91 77 84 72 76 82 77 85 76 67 63 62 57 50 45 42 40 40 35 32 29 28 27 27 26 26 26 26 26 26 26 28 29 28 27 24 22 26 32 39 51
82 76 82 99 81 92 95 93 72 62 61 72 74 72 76 84 76 70 58 49 50 50 47 43 41 41 41 40 39 37 36 31 29 29 29 29 28 27 26 26 26 26 26 24 22 23 24 17 23
78 68 82 79 82 98 97 94 85 43 45 61 71 67 71 71 78 73 65 55 48 49 47 47 45 45 44 42 40 36 32 30 30 30 29 29 25 20 19 20 20 21 22 21 20 19 19 19 22
85 81 86 72 86 68 78 40 66 48 49 47 45 46 44 54 66 70 65 65 58 53 50 47 49 51 48 38 35 34 32 31 30 31 29 24 18 15 14 14 15 16 17 17 16 16 16 18 20
84 77 86 80 68 74 80 67 44 46 40 34 46 48 51 69 61 71 66 62 58 53 50 49 47 38 42 43 36 33 33 34 33 29 24 20 16 13 12 12 12 13 13 14 15 17 18 19 19
63 80 83 76 73 71 60 65 46 58 51 36 37 34 45 63 75 74 64 60 53 52 48 48 39 37 40 40 40 39 37 34 31 28 25 21 16 12 12 12 13 14 15 17 19 20 20 20 19
82 79 87 81 86 58 70 72 49 54 52 43 44 30 32 40 68 74 63 61 54 45 40 39 41 43 42 40 39 38 36 33 30 26 20 16 13 12 13 14 16 17 18 20 20 19 16 17 21
91 68 62 62 62 49 71 64 48 46 37 37 40 43 31 28 40 72 67 72 70 60 48 42 43 41 40 38 37 33 28 26 23 20 17 14 14 15 16 18 19 18 18 16 16 17 21 25 27
91 86 64 70 70 60 55 61 39 38 42 38 36 43 41 37 33 37 60 73 52 45 44 48 51 51 49 44 36 30 29 28 26 22 19 19 20 21 20 18 16 15 16 17 20 25 28 22 13
76 78 75 73 75 58 46 47 34 48 46 41 35 35 36 34 34 35 38 47 54 51 49 54 55 50 48 43 34 37 32 27 26 25 24 22 21 20 19 18 19 22 25 28 30 30 22 13 15
88 87 78 73 71 50 44 34 40 47 49 47 41 44 41 35 33 35 36 37 38 37 39 53 52 48 44 39 40 35 30 28 28 27 25 23 22 21 24 25 29 32 32 32 31 24 16 17 22
81 92 83 71 77 77 69 46 40 42 48 54 45 44 47 49 40 34 37 36 43 52 60 55 51 48 46 39 34 33 32 31 30 30 30 28 29 31 33 34 34 35 33 29 22 18 20 25 31

GFSSGP_700_rhum_075.txt.gz
RH
51 45 43 41 40 40 35 35 36 37 38 40 41 47 53 48 40 58 34 32 28 29 27 21 19 19 17 15 17 19 21 22 21 19 16 15 15 16 15 13 12 12 11 10 11 13 16 17 17
52 46 37 52 49 33 33 33 41 39 36 40 46 40 58 62 44 40 35 33 31 33 31 30 30 30 29 22 18 17 19 21 22 22 20 20 18 17 16 16 16 16 16 16 17 18 20 23 26
51 47 63 53 41 31 30 34 36 46 41 31 40 37 62 70 44 40 34 35 34 34 34 36 36 37 35 34 30 23 19 18 21 24 24 24 23 22 22 22 22 23 24 25 28 30 31 31 30
51 49 64 51 39 31 28 40 49 44 42 34 52 53 44 63 48 41 34 36 35 35 36 37 38 38 38 37 36 35 33 22 21 21 23 25 26 28 29 28 27 27 26 26 26 27 27 25 24
56 78 60 53 42 32 40 52 30 42 46 42 32 71 50 34 52 42 34 37 36 35 36 38 38 39 39 39 39 38 37 37 31 23 25 25 24 25 25 24 24 23 23 24 26 26 27 26 28
72 81 63 48 42 40 52 43 25 45 41 52 54 74 31 27 42 46 35 37 37 34 38 38 38 39 39 40 40 40 40 40 40 38 34 30 33 39 41 41 41 41 42 42 44 45 46 46 46
77 82 63 47 42 60 64 38 29 50 46 57 60 70 33 33 39 47 35 37 38 37 37 39 39 38 39 39 40 41 42 42 42 43 43 43 43 42 39 40 44 46 46 47 48 49 49 49 50
78 87 62 51 46 64 64 48 30 28 54 37 59 69 55 41 48 48 35 36 38 39 38 39 39 39 39 39 40 41 41 42 43 43 44 45 46 46 46 46 46 47 47 48 48 48 49 49 50
90 99 84 67 79 67 46 47 40 42 37 35 51 67 61 45 48 50 39 35 36 39 39 39 38 38 39 39 40 40 41 42 42 43 44 44 45 45 46 46 47 47 47 47 48 48 49 50 50
99 100 73 66 62 72 48 68 37 48 50 45 44 44 59 50 48 52 43 35 34 35 40 39 39 38 38 38 39 40 40 41 41 42 43 44 44 44 45 45 46 46 46 47 47 48 48 49 50
99 91 92 70 74 73 68 45 36 49 76 72 44 40 40 49 50 47 50 43 39 38 37 38 39 38 37 37 38 39 39 40 40 41 42 42 43 43 44 44 45 45 46 46 47 48 49 49 50
98 87 90 82 89 91 76 56 50 55 86 55 48 47 43 42 49 48 48 55 48 41 35 35 38 37 37 37 37 38 38 38 39 40 40 39 39 40 40 41 43 44 45 46 47 48 49 49 50
94 99 95 95 100 83 86 69 63 69 72 58 53 53 55 46 44 59 62 63 61 56 54 49 38 36 37 38 38 38 38 38 38 37 36 38 41 42 42 43 44 45 45 46 47 48 49 49 50
80 97 82 95 70 84 92 87 74 78 85 72 60 57 66 50 52 55 50 49 46 46 52 54 56 44 37 36 36 36 36 36 35 36 42 42 34 29 27 27 29 33 37 41 44 46 48 50 51
83 77 90 83 76 100 96 86 81 59 77 82 77 73 70 57 60 56 51 49 51 52 54 53 54 54 45 39 39 37 36 35 40 43 31 28 30 32 33 33 33 33 28 26 29 34 40 44 49
93 78 94 87 100 92 92 76 79 56 68 80 84 88 82 69 69 61 56 55 55 57 55 55 55 55 51 48 44 40 41 43 38 30 32 34 36 37 38 40 40 41 41 36 29 28 30 35 42
92 70 78 72 93 98 81 73 68 72 88 90 79 89 85 86 70 68 66 65 62 63 64 62 60 52 50 49 48 46 38 34 33 34 36 37 38 39 40 40 41 42 42 42 36 28 29 31 36
69 59 67 59 92 100 95 92 84 96 68 67 93 84 86 84 87 72 72 70 65 65 64 59 49 46 43 43 41 38 37 37 38 38 38 39 38 36 36 36 38 39 39 39 35 28 29 38 41
44 46 60 56 88 93 92 95 96 76 68 66 84 80 84 83 85 79 78 80 76 66 65 63 50 46 44 43 43 44 43 41 37 34 31 29 26 26 26 26 26 27 28 29 31 36 38 40 33
54 49 63 69 95 91 84 75 84 86 55 67 67 77 81 80 85 89 76 74 80 73 66 65 61 56 52 50 39 40 32 32 31 30 30 28 28 29 29 28 28 27 27 26 30 33 34 35 37
58 45 74 77 92 98 72 67 72 84 88 56 48 52 70 78 83 86 80 76 72 71 65 60 50 45 40 40 40 43 41 40 38 35 32 30 30 29 29 26 20 18 18 26 29 31 30 26 22
73 57 62 65 86 70 75 38 42 69 63 45 43 44 69 70 74 81 81 77 72 61 54 50 46 43 45 46 44 43 42 40 36 34 32 30 30 31 27 21 17 15 15 16 15 16 18 19 18
66 71 72 81 76 49 66 60 39 55 69 63 72 55 72 63 64 69 82 76 71 59 58 52 49 46 45 45 47 48 43 38 34 32 33 34 32 27 24 22 19 14 13 13 13 14 16 18 19
76 74 80 75 60 59 57 51 36 38 49 51 58 60 55 53 64 68 62 61 66 61 57 54 51 50 48 48 43 39 42 38 37 36 36 34 31 28 25 21 16 13 12 14 15 17 18 19 21
75 72 71 69 76 59 56 46 40 47 49 48 40 54 57 55 42 48 53 62 61 63 60 56 53 51 50 49 38 37 39 39 38 36 34 32 29 26 22 17 14 14 16 17 18 19 19 18 17
79 60 52 54 52 42 62 55 43 47 46 48 46 42 41 47 62 56 66 71 77 69 61 48 46 48 51 40 40 40 41 36 33 30 24 21 20 19 18 16 16 18 19 19 18 17 16 16 19
87 79 70 61 55 44 49 47 44 44 48 44 37 34 40 41 43 40 39 57 72 73 64 64 55 55 44 41 38 35 37 40 40 28 26 25 23 21 18 18 18 19 18 17 17 19 22 24 27
88 84 62 73 68 46 40 36 32 42 47 48 38 35 36 38 38 39 37 37 50 72 71 75 70 62 60 55 46 46 45 46 42 32 30 25 23 23 22 22 21 20 20 22 26 29 31 32 30
82 83 78 70 66 51 33 30 36 50 50 43 41 38 37 36 35 32 35 34 33 42 74 78 84 60 51 51 52 49 45 42 38 34 31 27 26 25 24 24 24 25 28 32 34 35 33 30 22
86 82 67 65 61 57 64 44 38 45 42 44 44 43 43 44 45 35 34 35 33 36 43 72 71 58 47 51 53 48 45 42 36 31 30 29 28 26 26 26 29 34 36 38 38 35 28 22 20

GFSSGP_700_rhum_078.txt.gz
RH
54 47 46 44 41 38 42 37 45 51 45 53 51 41 63 56 45 46 34 30 27 23 16 11 11 12 12 13 14 16 17 17 16 15 14 14 14 12 11 11 10 10 10 12 14 16 17 17 20
54 50 42 42 49 46 37 36 49 64 43 47 60 45 66 61 53 45 34 32 29 28 21 17 16 15 13 13 13 15 17 18 19 19 18 16 15 15 16 16 16 16 16 16 18 21 25 28 29
53 51 47 47 51 49 35 34 40 41 43 37 47 64 69 68 52 37 33 31 34 30 29 27 26 25 22 19 15 15 15 17 20 22 22 22 22 21 22 22 22 23 25 28 29 28 27 26 24
55 57 64 57 49 34 35 32 36 41 44 41 50 58 84 86 75 35 33 34 33 33 33 34 35 34 32 30 27 22 17 16 17 21 25 26 27 27 26 25 24 24 24 23 22 21 21 22 22
63 71 62 68 50 40 33 43 41 44 38 42 56 73 79 78 50 37 34 35 35 34 36 37 38 38 38 37 35 34 32 25 19 19 21 21 22 22 22 22 21 21 21 21 22 24 26 28 33
83 77 73 61 57 42 42 43 43 43 46 42 49 63 78 59 59 39 36 37 36 37 37 38 38 39 39 39 39 39 38 37 35 29 26 26 30 33 34 37 38 41 43 44 46 48 49 50 50
80 80 77 58 51 44 47 48 33 44 47 50 48 59 69 71 72 55 42 43 36 36 38 38 38 38 39 39 40 40 41 41 41 40 39 41 42 38 37 40 43 45 46 47 48 49 49 50 50
81 78 84 71 51 48 55 51 50 49 39 56 55 59 67 76 62 55 88 78 37 38 39 39 39 39 40 40 40 40 41 42 42 43 43 44 45 46 46 47 47 47 48 49 49 49 50 50 51
89 96 91 74 57 68 58 48 38 42 41 36 64 64 67 55 66 70 94 95 41 38 39 39 39 40 40 40 41 41 42 42 42 43 43 44 45 45 46 46 47 47 48 48 48 49 50 50 50
100 98 81 59 74 78 65 56 47 44 43 37 48 65 78 68 61 72 55 87 48 42 40 39 39 39 39 40 40 41 41 42 42 42 43 43 44 44 45 45 45 46 46 47 47 48 49 49 50
99 99 94 80 74 90 70 59 53 69 77 33 28 58 72 76 64 76 77 71 51 81 42 40 40 39 39 39 40 40 40 41 41 41 42 42 42 43 43 43 43 44 44 45 46 47 48 49 49
100 84 86 90 94 95 80 54 50 72 60 49 25 40 52 75 64 62 68 74 64 48 42 42 43 43 39 38 38 39 40 40 40 40 40 40 40 40 40 40 41 42 43 43 44 46 46 47 48
93 94 79 83 98 81 99 80 51 56 60 50 35 40 48 53 67 66 59 61 74 60 57 53 42 42 40 39 38 38 38 38 38 39 39 38 37 39 41 38 36 36 34 34 37 39 40 41 44
84 96 80 82 98 84 96 90 70 57 50 40 44 48 46 57 49 63 69 74 58 59 66 67 50 41 41 41 40 39 38 38 38 38 38 36 41 40 28 27 28 27 27 27 25 23 24 28 30
76 74 77 97 85 92 92 95 58 54 56 49 47 61 52 61 54 54 68 82 76 64 61 68 66 65 51 40 39 39 39 37 37 37 36 43 36 29 32 35 36 36 36 37 36 34 26 23 24
78 88 97 96 85 75 77 91 86 68 64 60 60 84 67 75 62 56 64 68 62 58 57 59 61 61 61 57 47 38 38 37 37 36 43 34 31 34 34 36 37 36 36 37 38 38 37 31 25
84 93 84 94 85 80 85 97 90 66 72 69 65 72 81 73 79 61 62 60 65 64 64 64 57 54 52 61 56 52 47 41 41 44 34 34 35 35 36 37 38 37 34 32 32 33 33 31 28
86 75 79 73 78 91 84 96 80 78 70 57 62 63 79 85 76 82 63 66 62 62 65 66 63 64 62 57 56 52 48 46 43 38 37 36 36 36 34 34 30 29 26 26 28 28 29 30 36
66 56 59 58 71 72 67 77 92 90 75 72 57 66 64 78 84 81 74 72 68 65 62 68 69 68 59 55 53 52 46 44 41 40 40 37 36 33 28 27 28 28 28 28 29 41 40 39 39
92 58 55 56 67 84 86 79 80 74 72 58 57 62 68 77 83 82 77 76 72 73 64 67 68 65 63 53 52 50 45 43 46 46 31 29 29 30 30 30 29 29 28 26 22 20 22 29 33
89 78 55 80 81 70 88 81 75 77 81 62 43 46 53 68 77 84 75 77 76 72 74 71 69 67 60 62 53 50 49 51 52 45 38 36 35 33 32 31 31 30 27 22 18 17 17 17 16
80 62 50 78 80 64 62 57 56 56 62 40 38 41 49 50 63 80 82 71 78 73 68 74 73 71 68 63 59 47 46 45 42 41 40 38 36 34 34 34 33 29 24 22 20 16 15 14 15
70 76 73 73 59 65 68 68 43 48 61 62 43 49 69 56 62 70 71 69 64 77 70 69 70 65 59 50 43 42 44 43 42 41 39 35 32 31 32 33 30 29 27 23 18 15 13 14 16
90 79 92 83 74 74 63 59 47 48 39 51 48 40 62 60 64 77 75 75 64 61 70 74 65 57 54 48 47 47 46 47 46 46 44 37 33 34 34 33 31 29 25 20 16 14 15 16 16
87 95 79 81 79 77 50 51 47 45 45 43 49 57 61 61 56 64 71 69 69 63 64 69 68 63 58 53 52 50 49 47 41 38 39 37 36 33 28 24 22 21 21 17 15 16 16 17 17
79 61 64 66 79 66 54 53 44 40 43 46 46 45 47 58 63 63 52 54 63 67 64 61 64 63 59 58 55 53 51 45 41 40 39 34 31 26 21 20 19 19 18 17 18 18 18 17 17
76 69 71 65 50 53 57 47 44 47 39 46 40 35 35 39 53 63 63 55 45 47 57 75 75 67 59 53 54 71 56 62 71 41 37 36 36 37 27 23 20 20 20 20 20 19 19 19 20
76 84 70 61 71 49 50 43 40 40 42 42 32 32 32 36 43 44 58 57 46 40 49 75 80 69 55 49 58 61 54 48 50 49 44 42 42 41 33 26 22 21 21 21 22 22 23 27 28
89 84 76 63 64 79 58 40 38 45 46 40 39 40 43 40 38 37 38 42 42 38 38 46 73 76 74 72 75 72 79 78 69 56 44 38 39 37 31 27 24 23 24 24 24 28 31 33 35
88 79 82 71 70 59 59 53 45 43 43 47 46 45 45 45 44 43 38 30 34 36 36 35 43 76 79 78 95 99 96 59 50 44 46 41 34 28 27 26 25 25 25 29 32 34 35 36 37

GFSSGP_700_rhum_081.txt.gz
RH
56 55 48 46 45 48 37 35 44 49 54 60 56 52 58 55 52 48 40 30 25 18 13 12 12 12 12 13 14 15 14 13 13 13 13 11 9 8 8 9 9 9 12 16 16 16 19 22 25
57 53 47 46 46 45 42 33 45 52 48 58 68 62 66 62 58 47 34 31 22 18 12 11 11 11 11 12 13 15 16 16 15 14 13 14 15 15 15 15 16 16 16 18 22 24 26 25 23
57 56 47 47 51 48 39 35 40 52 48 51 70 62 78 68 57 40 30 28 25 19 15 13 12 11 11 12 12 13 15 16 17 17 17 18 18 19 19 20 21 22 24 25 23 21 19 18 18
59 68 61 52 45 38 36 34 36 44 55 50 58 65 92 71 54 36 30 29 27 25 24 23 21 18 17 15 13 14 14 15 17 20 20 21 23 23 24 23 21 20 19 19 19 19 19 20 24
67 76 71 53 43 43 37 49 50 50 51 48 64 70 83 85 64 61 30 32 32 32 32 31 30 29 28 26 24 20 16 16 17 19 19 20 19 20 20 20 19 20 21 25 29 33 40 45 48
86 82 76 57 44 42 39 49 51 47 46 45 50 65 80 90 73 94 41 35 36 37 36 36 35 36 36 36 35 32 30 27 22 22 22 24 25 26 29 32 33 37 41 43 44 47 48 49 50
85 86 77 54 56 42 49 46 44 45 42 44 45 60 73 94 93 95 52 38 38 39 39 38 36 37 38 39 39 40 39 37 34 33 35 35 38 36 36 37 41 45 47 48 49 50 50 50 51
88 86 81 66 58 48 52 49 42 45 49 46 44 48 63 70 91 80 69 54 39 39 40 40 39 39 39 40 40 40 41 42 41 40 40 40 42 44 45 47 47 48 49 49 50 50 50 51 51
91 100 84 79 56 64 57 51 44 44 48 51 45 45 50 60 65 99 68 74 52 40 39 40 40 40 40 41 41 41 41 42 42 43 43 43 44 46 47 47 47 48 48 48 48 49 50 50 50
99 100 76 69 60 64 60 53 51 49 41 58 52 50 47 50 57 66 83 79 69 51 39 39 40 41 41 41 42 42 42 43 43 42 43 42 44 44 45 45 46 46 46 46 47 47 48 49 49
99 98 96 74 71 78 67 58 56 47 36 40 49 58 52 48 37 47 95 99 81 75 46 38 39 40 40 41 42 42 42 42 42 42 42 42 42 42 42 42 42 43 43 44 45 46 47 48 48
96 97 98 94 87 81 76 65 57 51 44 36 36 57 69 62 57 42 56 98 99 86 69 44 39 39 39 40 40 40 41 41 41 41 41 41 41 39 40 40 41 40 39 40 38 40 41 42 42
99 93 99 96 92 85 83 78 63 76 68 50 41 42 62 69 68 70 72 74 87 81 78 66 44 41 42 39 39 39 40 40 40 40 40 40 40 38 40 38 31 27 26 24 24 22 20 19 20
79 90 73 97 99 95 90 79 76 79 78 64 52 46 46 56 64 70 67 65 63 71 69 68 65 48 47 45 40 40 39 39 39 39 39 40 39 38 38 27 30 32 33 33 33 33 34 31 25
88 86 79 96 96 100 96 80 80 70 69 60 51 47 46 42 45 52 73 71 77 77 83 85 76 81 62 45 46 43 42 41 39 39 39 40 37 43 28 30 31 32 33 33 33 34 31 32 32
81 78 86 95 99 93 99 98 96 87 74 64 61 52 46 40 44 56 55 76 74 88 88 92 72 68 66 72 51 46 44 42 38 39 39 38 42 32 32 32 33 35 35 32 30 28 28 28 28
86 94 96 92 99 98 97 98 98 88 88 69 60 53 45 46 46 59 60 57 59 74 75 88 88 83 76 70 77 65 50 44 40 39 38 41 39 33 34 34 34 32 27 25 25 26 26 26 28
93 92 90 86 92 100 98 91 90 72 79 72 65 78 62 50 53 62 68 65 67 66 65 75 73 65 56 71 64 64 61 55 50 43 43 42 34 34 34 34 32 27 26 26 26 26 26 27 31
91 84 73 83 70 80 72 75 72 71 71 84 57 73 80 70 57 66 73 80 67 63 51 57 73 67 64 60 65 61 59 58 51 54 48 37 36 35 33 27 26 26 26 26 26 26 25 21 18
86 74 85 77 86 92 78 61 57 68 71 83 64 58 61 71 73 57 62 79 82 70 66 71 66 72 73 74 66 65 68 60 56 57 61 50 42 34 30 32 31 30 28 27 27 26 24 20 17
77 67 63 69 85 98 95 82 67 60 59 63 60 55 58 58 74 71 59 66 81 80 70 68 70 74 70 73 72 69 60 56 61 59 65 64 42 39 36 35 33 30 29 28 28 26 23 21 19
87 65 66 77 79 80 76 89 59 52 49 60 51 45 49 57 68 76 71 59 67 75 78 77 74 73 72 75 72 72 75 72 64 61 58 46 42 40 38 36 33 31 31 30 29 27 26 23 19
80 72 74 72 88 86 75 68 44 55 60 56 41 36 34 52 59 66 72 62 58 61 70 73 74 71 74 74 72 75 71 63 53 48 44 43 43 41 38 36 33 33 33 32 30 28 26 21 17
85 85 80 79 94 87 78 72 50 43 40 44 52 55 36 37 51 63 58 62 69 65 63 67 74 76 74 73 70 68 55 47 47 47 47 47 46 45 42 38 37 34 32 29 26 24 23 20 16
99 87 98 98 93 78 58 73 49 48 50 50 47 48 53 52 60 52 44 54 67 72 72 66 66 68 69 72 71 59 50 49 50 49 48 46 41 39 39 37 32 26 22 21 20 19 18 17 16
81 76 65 84 90 67 56 56 46 44 42 43 44 47 55 57 56 53 61 66 77 77 77 74 66 66 67 72 71 63 56 54 55 52 47 44 43 43 36 32 34 35 31 23 20 19 18 17 17
97 80 71 60 55 64 52 46 40 43 44 47 47 46 42 42 57 53 55 51 61 72 74 75 72 70 70 69 72 68 62 62 55 62 70 74 62 51 46 41 39 39 38 32 24 20 20 19 19
79 81 68 60 68 61 63 49 39 49 48 44 44 38 30 33 40 53 56 58 58 63 54 52 52 53 70 78 75 78 71 60 68 74 65 68 62 60 59 53 47 37 36 30 25 23 22 21 22
71 78 66 64 68 82 64 45 42 39 38 39 36 36 37 37 35 37 39 40 44 51 48 45 44 48 75 84 75 69 75 80 78 80 87 84 89 80 49 41 37 31 25 24 23 23 23 26 26
86 71 78 67 65 62 60 49 46 43 42 38 40 41 41 42 41 41 40 38 35 31 34 40 38 38 41 70 86 87 96 92 96 98 98 96 64 55 43 34 29 27 26 26 26 27 29 33 37

GFSSGP_700_rhum_084.txt.gz
RH
59 58 50 48 50 70 43 38 44 52 79 74 67 56 60 56 39 48 42 28 25 17 13 16 16 15 14 13 13 13 13 13 12 10 7 10 31 58 58 21 8 10 15 16 16 20 22 23 22
61 68 53 53 51 52 56 37 41 48 64 67 70 66 64 62 45 50 40 29 19 15 12 14 14 12 12 12 13 13 13 13 13 13 12 11 11 12 12 14 15 16 16 20 22 22 19 17 17
63 62 60 53 53 48 48 44 41 56 57 60 78 69 81 69 56 42 31 27 18 13 13 13 12 11 11 11 12 13 13 14 14 14 14 14 15 15 15 16 18 21 22 20 18 18 18 17 18
66 64 68 58 49 40 43 44 40 55 69 75 69 76 92 62 58 31 29 24 16 13 12 13 12 11 11 11 12 13 14 15 17 17 18 19 20 21 21 20 19 18 18 17 18 21 27 36 42
75 74 78 63 47 41 41 40 43 43 52 53 67 63 91 72 56 31 24 22 16 16 16 15 14 13 12 11 12 13 14 15 17 17 18 18 18 18 18 18 18 20 24 28 35 40 43 44 46
90 87 96 70 48 44 38 44 44 42 52 53 62 68 74 81 62 54 25 21 23 24 24 23 22 22 20 18 17 15 15 15 17 18 19 19 20 22 25 28 31 34 37 40 44 44 45 46 48
93 88 95 73 56 47 37 48 52 41 55 54 53 57 68 90 84 44 36 28 29 30 32 32 32 32 32 31 29 28 26 23 22 22 24 25 26 28 30 34 39 44 47 49 50 51 50 51 52
99 89 86 80 68 48 42 43 52 48 47 51 52 54 51 77 83 61 53 50 34 34 36 37 37 38 39 39 39 38 38 37 35 33 34 35 37 39 40 44 47 49 50 50 50 50 51 51 51
99 99 98 86 67 53 45 55 49 44 45 46 48 50 54 60 72 79 76 76 52 38 38 39 40 40 41 41 42 42 42 42 42 42 42 41 41 44 45 46 47 48 48 49 49 49 49 50 50
100 100 94 88 64 57 54 58 50 46 41 44 49 45 52 64 60 61 83 89 74 48 39 39 41 41 41 42 42 43 44 44 44 44 44 45 44 44 45 45 46 46 46 46 47 47 47 48 48
100 95 80 87 72 62 59 64 51 47 45 45 47 47 46 51 52 56 59 81 81 69 49 40 40 42 42 42 43 44 44 44 44 44 44 44 44 44 43 43 43 43 43 44 44 44 45 46 45
100 98 94 96 82 66 70 64 57 51 46 56 59 60 52 49 50 53 64 63 97 99 81 54 40 41 42 42 43 43 43 43 44 43 43 43 43 43 42 41 40 36 34 34 30 29 30 31 31
97 100 97 98 94 83 77 65 59 55 48 43 59 60 62 68 62 63 76 77 85 98 90 82 54 39 40 41 42 42 42 42 42 42 42 42 42 42 39 41 32 27 27 28 29 30 30 28 25
85 87 93 90 99 89 83 70 61 68 57 50 42 42 52 45 49 71 69 67 62 62 95 98 79 57 39 39 39 40 40 40 41 40 41 41 41 41 38 38 28 30 30 30 30 31 31 30 29
96 96 87 88 99 100 100 77 71 80 80 75 58 49 42 54 51 52 65 74 75 69 70 88 99 87 66 46 42 40 40 40 40 40 40 40 40 40 41 31 29 28 30 30 29 26 26 26 25
97 98 99 99 98 98 99 91 85 88 85 75 67 55 53 54 55 65 63 72 76 79 67 75 75 97 91 78 63 58 45 44 42 43 41 41 41 39 42 31 31 29 32 31 27 25 25 25 24
88 99 99 99 90 99 98 97 95 84 81 78 63 56 50 49 57 57 54 58 67 75 84 81 68 76 96 92 82 68 64 48 44 42 42 42 41 40 39 32 33 32 31 27 26 26 25 25 24
90 94 93 86 84 92 99 99 100 96 79 82 76 62 57 52 46 49 62 61 64 75 73 82 74 63 72 89 96 73 66 66 55 48 46 42 41 44 34 35 34 33 26 25 25 25 24 24 24
71 72 70 75 80 100 98 100 98 87 79 74 68 84 70 65 59 55 54 63 63 64 74 66 69 65 60 60 82 81 72 68 68 62 56 45 46 43 37 38 36 27 27 28 28 26 25 24 25
66 64 81 84 73 94 96 90 94 96 65 56 69 60 86 73 69 62 66 64 62 68 72 73 71 60 67 62 75 78 84 74 85 90 71 69 50 41 42 39 30 32 32 31 29 27 27 27 26
91 90 84 74 97 97 99 96 79 81 78 77 67 47 57 76 77 71 65 69 76 71 66 70 73 68 64 69 60 66 76 71 78 77 69 68 79 72 62 48 38 36 34 33 31 30 28 27 27
89 96 96 76 90 97 99 92 69 56 56 58 52 51 59 63 58 63 67 68 67 78 75 71 73 71 71 69 61 55 71 80 84 89 79 83 84 76 69 46 40 38 35 33 31 29 29 29 29
97 86 78 85 93 84 89 95 50 59 50 43 44 48 46 48 54 57 58 65 64 66 69 72 72 69 76 72 72 76 84 80 85 82 74 69 66 52 46 44 44 44 41 37 35 33 30 27 25
100 73 74 90 99 98 78 72 46 47 38 36 41 46 45 40 43 56 66 78 74 65 65 68 68 74 78 79 79 78 76 82 93 89 72 61 54 51 49 48 44 42 40 36 31 25 23 22 21
94 77 98 98 98 83 75 73 57 41 42 41 37 34 37 41 37 47 62 62 64 74 73 76 76 70 71 78 74 76 82 80 73 76 60 57 54 58 53 46 42 40 38 34 32 32 32 27 20
98 79 78 89 92 70 69 76 48 50 47 43 42 42 50 45 41 36 47 51 56 57 63 74 77 75 72 71 74 79 83 89 86 63 55 56 54 52 51 50 62 53 49 45 44 40 36 35 29
100 86 73 63 62 62 59 50 47 40 44 42 44 42 42 40 36 50 58 52 50 55 74 80 85 86 84 82 78 76 80 93 75 79 70 67 57 64 71 72 56 60 60 47 39 41 37 34 29
84 82 68 60 71 65 66 52 35 43 46 44 44 48 49 47 42 35 37 41 45 52 58 71 74 76 76 75 72 80 80 83 78 84 79 83 92 78 67 70 79 84 79 48 35 31 26 24 23
84 79 66 63 68 74 69 51 45 45 46 46 44 40 34 32 31 33 40 51 48 44 51 62 64 60 60 60 55 79 86 92 97 99 95 89 95 93 94 96 93 80 69 41 32 28 27 26 25
76 74 67 59 66 64 66 51 42 44 44 43 40 39 40 41 43 42 41 39 37 35 36 37 45 47 43 44 48 66 90 80 80 80 75 91 88 98 84 68 69 61 47 37 40 35 31 33 33

GFSSGP_700_rhum_087.txt.gz
RH
66 61 56 56 57 56 50 51 44 53 74 80 68 64 60 59 40 37 40 28 25 21 15 16 18 17 16 15 14 12 12 10 8 13 52 71 84 90 86 53 7 12 15 16 19 22 21 18 17
69 68 64 61 65 59 56 52 50 48 61 75 70 70 73 68 52 38 44 30 24 18 15 16 18 17 16 14 13 13 13 12 10 9 18 45 66 52 13 11 15 15 18 20 19 17 17 17 17
76 84 93 74 70 59 56 56 41 55 64 69 81 75 88 77 53 43 39 30 20 17 15 16 16 16 15 14 13 13 13 13 13 12 12 12 13 14 15 16 18 20 18 17 17 17 19 26 33
89 95 99 88 65 49 50 55 45 60 76 75 82 82 82 78 55 47 36 28 19 17 16 15 15 14 14 15 15 14 14 14 14 14 15 15 16 17 20 21 18 17 17 19 23 30 37 42 43
99 97 100 100 65 49 47 46 54 56 69 73 79 86 84 84 66 51 31 21 17 16 14 14 14 14 14 15 16 16 16 17 17 18 19 20 20 20 18 17 18 22 28 34 38 40 41 43 48
97 99 100 100 72 50 49 47 47 65 54 72 86 73 81 95 69 48 25 20 16 16 14 14 14 14 14 15 16 17 18 19 18 18 19 18 17 18 20 26 30 33 36 39 41 44 48 51 52
90 99 99 90 65 58 47 44 50 50 47 56 62 70 74 86 84 48 24 20 17 17 15 15 14 14 15 15 15 16 17 18 18 19 20 22 24 25 28 33 39 43 46 48 49 49 50 51 51
62 91 99 90 69 59 48 40 48 51 49 51 66 64 58 78 98 74 43 29 26 21 19 20 20 20 19 19 19 19 19 20 21 24 26 30 33 35 38 43 48 50 50 50 50 51 51 51 50
72 100 100 87 71 56 49 42 43 58 54 52 57 56 56 55 91 98 65 44 34 32 25 28 28 29 29 30 31 32 32 33 33 34 35 36 39 41 44 45 47 48 49 49 49 49 49 49 50
99 100 97 98 72 52 52 45 38 52 52 50 50 54 56 56 60 95 74 61 50 42 32 32 34 36 37 38 39 41 42 42 43 43 44 44 44 45 46 47 48 48 47 47 47 47 47 47 48
84 97 90 100 86 62 58 48 47 41 48 47 46 47 51 64 65 62 72 76 56 67 53 37 36 36 39 41 43 44 44 44 45 45 47 47 47 47 46 45 45 44 44 44 44 43 43 43 41
73 85 82 99 89 67 59 56 54 54 47 45 43 45 48 51 54 52 66 78 68 87 82 71 51 38 40 41 43 44 45 45 45 46 46 47 46 46 45 44 42 40 37 35 33 30 28 27 25
76 69 73 100 86 67 60 58 62 60 55 49 46 50 48 51 58 54 67 76 74 80 86 97 79 52 39 41 43 44 45 45 46 46 45 44 44 44 44 43 41 33 28 28 30 32 33 33 33
75 68 94 94 93 77 74 65 65 65 59 61 58 57 58 59 60 70 68 79 85 75 94 97 93 84 58 42 41 44 44 44 44 43 43 43 43 43 43 41 40 28 29 29 29 28 28 27 26
89 66 94 99 97 100 85 78 68 64 65 62 71 72 70 74 78 79 75 72 78 79 81 63 95 94 85 57 45 41 42 42 42 41 41 42 42 42 43 40 37 30 30 31 30 28 26 25 24
84 96 98 96 98 100 98 91 78 70 72 65 64 59 59 59 56 56 79 83 80 76 79 69 72 92 83 88 69 46 44 41 40 40 41 41 41 42 42 40 35 32 33 32 30 26 24 24 24
91 79 97 99 96 98 98 99 96 75 79 71 71 61 59 64 66 66 64 79 80 83 80 72 66 82 97 92 100 84 69 58 53 54 44 45 43 42 41 40 36 33 34 33 30 26 26 26 25
84 81 98 99 99 97 99 100 99 95 85 76 70 63 58 57 62 69 69 69 62 61 73 78 80 77 79 95 92 85 99 92 73 66 53 46 44 44 41 43 36 35 36 34 27 27 27 27 26
54 88 99 96 98 99 95 99 100 98 90 83 72 63 56 54 52 52 56 54 61 62 76 76 79 73 90 78 78 80 93 94 91 72 69 54 54 45 42 46 38 40 38 29 30 31 30 28 27
74 64 82 94 97 95 95 98 87 100 94 85 77 64 59 51 53 56 48 48 57 64 71 91 84 87 81 85 74 79 84 80 82 93 90 92 85 58 53 49 47 40 32 35 35 33 31 29 29
85 74 70 58 89 94 94 90 85 96 89 82 67 63 62 54 44 47 61 62 68 69 72 80 83 89 80 66 64 74 75 83 72 75 76 94 78 96 81 78 70 76 54 40 36 35 34 32 31
82 87 74 74 88 97 77 95 62 72 90 68 53 56 62 60 50 57 70 75 80 82 78 76 75 74 75 76 76 82 71 70 72 77 77 86 79 82 86 92 84 82 60 41 42 41 38 36 31
94 78 94 88 83 91 94 98 60 61 76 59 52 60 60 60 54 55 75 72 65 78 83 82 79 77 74 75 80 79 82 74 78 85 85 80 82 84 93 93 67 56 52 47 45 40 36 33 30
86 98 99 100 99 97 83 81 53 54 52 52 49 50 47 49 56 54 55 55 57 60 74 78 80 76 78 83 80 90 90 90 84 87 89 93 90 94 95 76 69 52 52 46 41 40 45 42 34
92 90 98 98 98 87 83 92 55 50 49 49 45 40 44 49 50 50 48 52 53 62 77 77 78 77 75 76 81 87 80 84 86 90 93 90 91 94 94 82 62 53 54 50 57 53 52 49 47
99 73 77 93 95 77 85 79 54 51 48 48 46 40 40 43 41 45 36 49 62 74 75 74 72 72 76 77 75 76 81 86 91 95 94 87 86 82 80 61 54 50 66 61 53 57 61 74 41
87 69 69 61 69 68 78 67 48 49 48 45 42 41 40 39 36 42 43 40 51 54 60 60 61 76 80 79 79 80 80 79 82 86 88 84 87 78 64 57 55 67 71 68 62 70 78 65 44
84 67 63 60 74 61 64 54 39 39 41 43 44 43 43 44 40 40 38 43 52 56 55 53 54 70 83 86 86 85 86 94 90 82 86 86 80 80 74 63 69 67 75 89 88 84 84 70 33
82 78 67 63 69 74 77 51 47 37 43 46 47 46 45 43 37 34 36 41 47 49 47 45 50 55 62 68 64 62 68 68 75 89 83 84 82 77 82 93 98 98 79 83 70 62 59 41 40
83 79 68 57 69 64 62 54 43 43 53 48 47 46 43 44 45 44 43 40 38 35 34 36 39 45 54 59 61 57 60 61 81 76 73 84 87 84 92 98 95 91 93 67 60 54 44 42 41

GFSSGP_700_rhum_090.txt.gz
RH
76 69 60 62 66 85 70 66 48 46 72 63 77 74 66 62 56 43 36 35 24 22 18 15 16 16 17 17 15 13 11 10 54 55 60 53 61 90 84 49 7 14 16 19 19 16 15 16 16
73 74 68 68 81 78 58 57 52 45 52 75 81 78 77 64 59 41 43 37 25 23 19 16 16 16 16 16 13 12 10 9 48 60 75 86 92 89 36 9 16 17 21 19 16 16 16 17 22
53 82 76 90 92 78 55 51 57 49 54 76 82 83 81 74 62 47 43 36 28 22 18 17 17 16 16 14 13 13 12 10 14 42 61 74 64 14 13 16 19 20 17 17 17 20 27 36 38
40 90 94 100 99 72 56 49 53 51 59 63 68 94 85 81 79 52 45 30 26 19 19 18 17 16 15 14 14 14 13 12 11 12 14 14 14 16 18 21 18 17 17 21 29 36 37 37 39
23 87 100 100 99 60 56 53 57 49 47 69 82 91 87 81 87 55 43 29 23 20 19 18 16 16 16 15 15 14 14 14 15 16 16 16 19 21 20 18 18 21 27 33 36 38 44 48 48
27 73 100 99 99 79 62 61 51 55 50 69 73 78 90 95 90 66 41 31 22 20 18 16 16 17 17 16 16 17 17 17 18 20 22 22 20 18 18 22 29 33 35 37 40 44 48 50 50
36 45 91 90 98 78 70 59 49 55 56 56 66 82 81 89 100 80 56 31 23 23 19 17 17 18 19 19 19 19 21 22 22 22 20 19 19 24 28 31 35 39 42 46 47 47 47 48 48
44 55 73 83 88 86 69 60 54 56 53 50 64 66 83 93 95 96 73 51 34 50 21 17 18 18 20 20 21 21 20 20 20 20 22 26 28 32 37 40 44 48 50 50 50 50 49 49 48
58 100 96 87 99 66 76 60 50 50 51 58 52 60 69 87 99 98 67 54 54 55 31 19 19 20 21 22 21 22 20 21 21 25 27 31 34 38 42 46 49 50 50 50 50 50 49 48 48
88 100 87 53 74 85 87 76 47 46 49 57 54 54 72 79 93 99 93 67 56 51 47 22 20 20 21 21 22 22 24 26 28 32 34 37 40 43 47 48 49 49 49 48 48 48 48 47 45
99 92 70 65 73 95 84 86 58 43 46 59 55 54 56 73 88 92 95 92 67 55 53 45 26 25 25 26 29 32 35 38 41 42 44 45 46 47 48 48 48 47 46 46 45 43 39 37 33
87 77 95 67 88 83 79 79 64 46 43 52 59 58 58 70 81 79 81 94 86 78 45 48 39 33 30 32 36 40 42 44 45 46 47 48 49 49 48 47 46 44 41 39 36 31 27 27 28
98 71 78 86 85 94 99 75 77 44 41 46 53 58 72 73 70 67 76 75 86 87 56 65 52 37 34 35 38 42 44 45 46 47 48 48 48 47 46 46 44 42 33 30 30 31 32 32 32
83 84 73 78 72 66 100 72 61 52 44 46 56 52 57 54 55 61 70 76 62 75 74 76 77 62 42 38 39 42 43 45 46 47 48 47 46 45 44 44 43 42 30 29 30 30 30 31 31
77 86 65 74 72 87 100 73 67 59 55 58 54 64 63 63 58 64 62 72 76 92 70 73 87 72 64 51 43 41 43 44 46 46 46 46 44 43 43 44 43 42 30 30 31 32 31 29 28
74 96 96 83 71 98 98 84 70 62 68 66 67 66 72 74 77 79 72 69 84 85 85 67 82 84 70 69 60 56 43 42 43 45 44 44 42 42 43 44 43 42 32 32 34 34 32 28 27
73 99 98 93 91 98 92 97 74 70 71 71 75 75 70 87 88 89 90 94 92 87 83 81 75 74 70 80 70 78 67 56 48 43 43 43 42 43 44 44 44 42 34 35 36 34 29 28 28
85 92 89 79 88 99 100 99 99 82 78 77 70 69 75 89 88 82 75 82 84 72 88 95 76 66 72 84 84 82 90 80 72 72 69 59 52 51 48 47 44 44 37 38 39 34 28 31 30
61 54 72 98 93 100 98 98 100 96 88 83 73 70 63 61 69 72 84 73 79 76 77 82 78 86 70 66 95 94 74 82 87 94 75 65 65 63 54 50 44 47 43 44 41 31 34 34 32
65 66 98 81 98 98 97 96 93 97 89 90 83 73 64 62 60 60 65 73 68 68 76 76 77 96 82 72 63 71 74 84 86 87 71 85 84 76 74 58 48 55 54 46 35 37 37 35 36
91 62 75 76 79 78 96 93 72 81 99 99 88 76 63 57 54 53 56 63 66 71 60 59 71 86 94 89 73 87 93 86 87 88 86 90 92 92 92 90 74 77 73 59 52 43 40 41 40
79 78 69 63 63 83 85 93 77 90 80 85 99 71 64 58 54 54 68 71 86 81 80 76 76 79 85 88 91 79 80 88 86 88 79 88 87 97 88 97 96 97 88 91 86 68 47 43 39
93 79 74 77 77 67 97 89 72 69 77 98 88 79 69 61 54 54 66 77 83 89 90 83 80 79 84 88 90 94 100 98 98 98 98 98 90 97 98 98 99 98 100 98 90 68 47 41 39
99 86 91 87 77 92 88 72 58 65 60 80 81 64 58 55 58 57 61 67 70 76 81 85 82 82 83 87 85 85 91 92 89 93 97 99 99 95 95 99 99 98 99 97 68 50 45 48 54
91 99 99 98 98 92 85 85 58 59 55 77 74 57 51 57 57 53 60 62 61 57 58 68 76 80 78 79 87 89 92 94 91 94 85 92 100 100 100 99 97 96 98 81 62 55 54 56 62
98 96 95 94 96 94 100 82 61 55 51 51 60 51 44 47 59 60 56 50 48 50 52 60 63 72 72 74 76 78 78 83 87 93 94 95 99 100 96 98 99 99 87 66 60 57 60 60 62
90 74 66 69 72 78 89 72 57 50 48 51 51 49 51 58 62 58 48 41 44 50 59 65 70 74 74 74 74 76 77 76 75 77 88 93 97 99 98 98 91 79 67 61 58 64 68 68 70
82 70 63 57 80 65 65 60 45 49 48 47 46 46 47 48 47 45 48 52 57 61 60 60 58 58 59 56 69 79 78 77 75 79 79 82 88 87 91 94 87 74 64 62 69 76 79 84 74
80 70 66 66 68 73 71 50 50 47 54 52 48 49 51 50 46 38 36 41 49 57 60 58 55 55 56 71 80 84 84 83 82 83 80 77 82 84 85 92 92 80 81 96 96 90 81 65 60
78 72 64 55 69 63 60 56 46 48 55 54 49 48 46 45 44 43 44 43 42 42 43 42 37 35 43 52 61 64 66 64 58 57 66 76 81 84 88 86 96 97 91 91 77 88 75 58 46

GFSSGP_700_rhum_093.txt.gz
RH
20 30 68 64 64 70 76 65 57 50 52 72 86 80 69 67 62 54 45 46 38 24 20 17 16 15 15 16 15 14 13 13 11 8 13 38 57 87 82 39 9 15 16 19 17 15 15 14 15
22 34 74 74 76 87 79 55 65 56 48 50 85 83 82 74 64 55 42 37 35 24 20 18 16 16 16 16 14 12 12 61 61 56 43 36 78 88 47 10 16 17 20 16 15 15 16 20 27
23 22 78 81 86 83 78 58 52 61 54 54 73 85 88 84 75 59 43 42 32 24 21 18 17 17 16 15 12 11 14 72 75 79 90 96 88 47 10 16 19 20 16 15 16 20 30 34 34
25 21 67 87 86 82 78 58 48 63 58 58 59 96 92 90 90 66 49 44 28 25 23 19 18 17 16 13 13 12 10 54 72 79 89 93 29 12 16 20 19 17 17 19 29 35 35 36 39
18 26 73 88 89 89 82 58 58 52 58 58 55 65 90 96 88 77 57 38 29 25 24 21 19 17 16 14 13 12 11 21 52 64 62 16 15 18 22 19 18 21 27 33 37 40 44 44 44
23 46 70 93 83 85 78 65 66 60 55 56 55 63 78 98 98 87 61 35 30 25 24 23 19 17 16 14 14 14 13 14 16 16 15 16 20 22 18 19 25 32 35 36 43 48 48 48 47
45 68 51 58 61 82 60 67 77 60 61 58 52 59 55 80 97 97 66 52 30 26 25 25 19 18 16 16 15 15 16 16 16 17 19 22 21 19 21 28 33 35 37 39 43 46 49 48 48
63 76 99 73 75 64 32 68 75 62 64 63 57 60 58 60 84 98 92 69 37 32 45 21 20 19 17 17 17 17 18 20 22 24 22 19 20 26 29 32 38 43 47 49 49 50 50 50 49
62 93 93 86 66 44 39 62 77 60 65 70 64 65 58 57 75 97 99 94 75 59 66 20 21 20 19 20 20 20 24 24 23 20 21 26 29 34 39 43 47 50 51 51 51 50 49 47 47
54 91 88 73 54 63 63 66 58 79 64 60 63 60 62 64 67 83 97 100 65 74 59 24 23 22 22 22 24 22 22 21 21 24 26 32 36 38 39 42 45 46 48 48 48 47 45 42 37
42 64 70 88 63 79 74 68 77 96 77 65 53 52 57 57 58 94 96 99 78 79 66 29 22 23 24 26 24 23 21 23 26 30 33 36 38 41 44 46 48 46 45 45 44 42 36 30 27
51 47 56 72 70 85 83 77 88 89 75 74 59 52 53 63 69 90 100 100 96 84 70 44 24 23 24 25 24 25 27 30 33 37 40 44 47 49 49 48 48 45 42 40 37 34 29 28 28
66 50 60 71 78 85 82 79 93 86 81 83 70 63 64 65 83 84 96 87 95 83 83 66 30 26 26 26 26 29 34 38 42 45 47 48 49 50 49 48 47 45 41 34 30 29 30 30 30
67 67 78 78 82 83 91 64 91 72 84 71 77 67 74 80 82 79 74 77 71 90 92 73 52 34 32 30 31 34 38 42 45 47 48 49 49 49 48 47 46 45 43 32 29 30 30 30 29
88 89 80 89 73 91 90 77 98 85 84 74 73 75 78 96 81 64 75 67 64 70 99 84 65 49 34 35 35 38 42 44 45 46 47 48 48 48 47 46 45 45 43 35 30 32 33 32 30
94 99 99 80 68 77 74 60 86 98 92 76 76 82 76 65 63 61 62 73 64 79 79 91 87 83 55 37 37 39 42 43 45 46 48 48 48 47 45 44 44 44 44 41 33 34 36 36 31
95 96 88 89 68 62 74 66 86 100 87 73 71 87 86 69 72 62 74 84 86 84 92 89 87 78 67 50 42 40 41 43 44 46 46 47 47 46 44 42 44 44 46 44 35 35 37 39 31
87 95 96 81 73 83 67 72 95 97 81 71 66 75 85 77 89 85 92 92 90 96 99 98 98 90 77 68 58 46 56 45 44 44 46 44 43 42 43 43 45 46 47 45 38 38 41 34 32
76 62 94 99 100 96 96 99 90 95 76 70 65 65 74 79 94 98 98 100 98 98 99 90 80 91 80 74 68 72 73 73 69 61 61 61 61 56 51 51 53 52 50 49 43 42 44 34 36
80 72 93 96 99 85 78 97 99 96 79 71 64 67 79 87 99 100 96 100 100 95 72 67 75 91 81 81 69 75 84 63 75 67 86 84 81 75 73 69 63 61 54 57 52 52 38 39 40
87 67 84 90 84 71 85 99 98 99 98 77 72 73 77 85 78 83 90 76 74 78 87 84 81 92 86 78 84 78 73 87 88 89 85 90 88 94 97 92 92 88 68 68 76 61 47 44 46
86 77 80 62 64 75 75 94 99 97 99 89 77 73 72 70 75 75 80 76 93 83 89 91 86 89 86 96 95 99 95 96 93 99 98 97 97 96 98 95 98 99 95 94 97 93 79 68 64
84 86 81 75 63 47 86 94 97 92 98 98 84 71 67 66 65 63 66 62 62 66 76 81 77 82 88 93 97 99 100 85 90 98 97 100 99 96 96 99 100 100 100 98 100 98 100 97 75
96 91 87 85 74 85 94 93 76 69 68 82 98 78 79 76 65 60 60 68 74 68 64 68 70 79 78 83 89 94 97 91 95 99 90 95 94 100 100 100 99 100 99 100 99 100 99 96 89
95 86 98 92 89 91 92 81 71 59 56 69 98 98 89 85 89 72 65 73 80 83 80 77 78 80 84 85 82 88 91 92 92 97 98 99 92 86 90 98 99 99 98 98 95 86 84 81 83
98 86 86 91 92 98 96 90 68 55 54 70 86 92 91 78 66 65 73 65 56 59 58 68 74 76 81 81 81 82 87 88 88 94 96 97 96 99 95 97 97 100 97 99 99 90 84 77 70
76 77 69 73 83 83 89 69 75 66 78 98 88 71 53 51 55 68 63 59 62 60 49 51 55 59 67 71 81 78 75 76 73 70 72 74 80 93 98 99 98 97 100 93 90 86 78 67 59
76 72 63 59 78 75 64 58 59 70 78 70 63 56 54 55 57 56 50 48 52 53 50 64 67 67 73 77 80 81 77 73 68 69 72 74 76 80 84 88 90 88 96 86 81 78 70 68 74
77 67 59 64 66 65 64 54 56 63 64 60 56 58 56 54 51 46 47 48 56 66 67 72 67 62 57 57 63 65 63 63 68 69 74 78 84 85 82 81 86 86 87 88 87 78 84 88 82
77 70 60 51 66 60 57 61 49 60 62 57 52 48 44 40 36 35 36 42 50 54 58 62 63 61 57 55 59 68 72 74 78 80 79 76 73 76 77 90 88 89 93 86 84 94 87 72 78

GFSSGP_700_rhum_096.txt.gz
RH
19 20 26 62 70 75 58 54 61 54 74 75 72 68 82 81 77 67 54 53 41 37 25 21 17 15 15 14 14 13 12 12 12 11 7 47 62 76 86 68 10 16 18 18 16 14 13 13 15
17 20 30 61 77 53 50 52 64 59 61 76 60 73 74 94 71 62 52 47 46 38 25 21 17 15 16 15 14 13 12 12 9 7 22 46 67 89 76 11 15 17 19 16 14 14 16 20 25
11 21 31 83 82 62 43 51 63 60 64 54 47 54 76 86 80 70 56 50 41 36 26 21 18 16 16 15 14 12 19 31 43 53 52 53 82 81 13 15 18 19 16 15 16 21 27 30 29
11 23 32 78 59 57 57 48 57 58 67 84 54 54 59 89 89 80 62 55 50 33 27 21 18 17 16 15 13 11 60 76 79 69 63 89 92 26 15 18 20 16 16 18 22 29 31 32 32
18 48 78 67 60 55 54 60 56 56 59 74 61 57 50 49 89 89 74 60 57 53 29 23 18 18 16 14 12 11 58 75 84 90 99 97 29 13 17 21 16 16 19 25 30 32 34 36 36
33 42 73 61 49 51 58 73 66 67 63 64 88 68 53 50 83 98 85 73 74 70 53 24 19 18 16 13 12 11 40 68 85 96 97 29 14 17 20 17 16 20 27 30 37 42 42 41 38
25 92 67 52 43 45 56 66 74 73 68 67 92 82 56 52 64 98 100 83 76 70 92 25 29 18 16 14 13 12 22 56 77 86 38 14 18 20 17 17 22 29 31 35 40 45 46 45 43
22 90 86 66 56 46 44 62 73 77 75 68 93 84 72 43 46 83 100 99 84 79 72 62 52 19 16 15 14 13 17 27 36 25 15 18 21 18 17 24 31 33 34 38 44 47 49 48 46
32 77 79 68 63 60 52 56 69 67 83 73 80 80 89 54 72 69 77 100 98 87 76 84 88 20 17 15 15 15 15 15 15 16 20 22 18 21 30 32 36 41 46 49 50 48 47 46 42
43 82 73 67 65 63 68 65 66 78 88 71 78 97 72 60 75 75 67 86 100 86 76 92 58 20 18 17 16 17 17 17 20 23 23 21 28 32 35 41 46 49 50 49 48 46 42 39 38
64 80 69 77 76 78 83 78 79 87 79 83 78 87 69 70 68 77 85 100 96 96 84 88 39 22 19 19 19 19 22 24 23 20 21 27 31 40 42 43 45 47 47 46 44 42 38 31 28
88 42 82 78 81 93 93 92 92 86 79 84 86 81 80 68 74 75 82 77 100 96 98 100 38 24 21 21 22 26 26 24 21 24 28 33 38 39 42 47 48 48 47 45 41 37 34 29 28
87 74 82 74 79 92 86 97 97 91 78 48 86 86 92 77 69 71 92 69 92 100 99 85 45 26 23 23 26 28 24 24 26 30 34 38 43 47 49 50 50 48 47 43 38 32 31 31 31
92 94 86 81 82 88 92 67 100 63 78 62 63 82 88 95 85 76 72 72 100 93 99 83 58 30 26 27 27 25 26 29 32 36 41 46 49 50 50 50 49 48 46 44 37 32 31 31 31
84 96 80 91 65 88 91 97 97 74 76 80 69 91 96 99 98 87 72 56 69 82 96 100 77 47 36 33 30 28 28 33 38 42 46 48 49 50 50 50 49 47 46 45 41 32 33 34 33
58 92 98 75 68 78 94 79 76 85 75 84 72 90 93 99 100 86 75 67 67 72 87 98 85 68 48 40 35 30 32 37 41 45 47 48 48 49 49 50 48 46 45 45 44 34 34 36 35
76 97 94 97 71 89 88 83 81 76 76 69 83 95 88 95 100 98 68 77 71 75 87 95 97 94 89 71 47 36 35 38 42 44 46 47 48 48 50 50 47 44 44 46 46 41 37 38 38
95 94 85 88 86 88 65 57 56 60 88 76 75 83 84 93 99 88 74 78 81 97 86 98 99 100 94 83 84 72 38 40 42 44 45 47 48 48 50 50 46 43 44 46 48 47 39 41 44
97 98 82 96 89 90 85 49 45 72 81 73 74 69 82 96 100 94 82 86 94 100 93 100 99 91 95 91 79 73 68 43 46 47 46 46 46 46 46 44 45 44 46 50 52 50 45 46 50
100 96 95 99 100 91 84 64 53 65 72 98 98 75 83 93 98 99 95 97 98 98 99 97 99 97 82 89 89 79 72 70 65 72 58 58 55 55 56 59 64 66 65 60 59 54 61 54 48
100 77 100 94 99 93 85 62 69 59 74 98 96 77 80 88 89 100 100 99 100 99 100 98 96 100 97 92 80 82 76 71 78 76 84 79 74 64 74 83 84 89 90 78 74 64 62 66 58
87 80 95 90 98 80 71 96 99 99 99 100 80 74 89 99 100 99 96 96 100 100 99 98 99 98 96 100 95 82 85 80 81 82 74 88 79 84 98 85 91 97 99 98 88 75 77 63 65
96 78 72 67 93 81 94 95 98 99 100 100 96 75 81 89 86 96 87 86 99 95 97 92 89 83 88 89 100 92 76 71 87 94 77 67 92 98 90 97 98 100 99 100 100 100 100 96 90
87 80 75 87 89 73 99 98 98 94 97 100 99 99 92 98 100 95 96 92 88 92 91 92 95 93 88 88 95 97 100 99 85 93 93 97 98 98 98 99 98 100 100 98 95 94 93 100 100
86 93 83 76 83 84 98 98 91 78 66 91 99 100 97 100 96 81 96 86 79 87 89 87 89 93 92 90 87 92 90 98 99 98 96 96 100 99 100 93 98 88 87 93 85 92 89 89 86
91 90 79 66 67 80 98 89 93 87 63 80 99 100 100 100 100 98 92 91 90 85 79 76 81 87 86 82 81 81 85 91 94 93 94 99 97 96 95 99 100 97 98 90 100 97 92 94 84
92 90 75 75 73 61 76 69 91 100 99 100 100 99 91 88 96 92 100 99 85 74 65 63 65 76 78 74 77 80 83 83 85 81 77 75 76 74 81 92 96 98 98 98 98 96 89 86 87
85 69 71 66 65 71 55 61 80 91 93 98 84 65 64 64 66 84 72 68 64 59 60 56 50 57 60 62 74 73 68 78 80 80 76 71 74 73 75 78 85 85 90 93 100 99 92 94 85
77 77 61 63 67 46 51 56 72 70 75 77 74 74 75 73 67 59 55 53 54 59 53 52 62 77 74 74 74 77 80 81 79 76 75 73 74 78 81 83 87 88 93 98 92 92 95 88 85
69 61 59 57 58 56 49 58 68 67 64 60 59 57 54 50 46 42 42 46 50 59 70 72 72 71 66 64 62 60 65 71 70 66 64 71 78 82 83 84 85 86 90 89 90 98 87 83 92

GFSSGP_700_rhum_099.txt.gz
RH
9 16 21 60 84 66 54 46 38 35 34 43 59 74 68 64 64 69 67 64 60 54 41 27 23 19 13 13 13 12 12 11 12 12 9 64 83 84 80 79 14 14 15 16 15 13 13 12 13
8 11 21 90 76 58 42 38 40 36 43 46 69 70 70 75 76 77 67 54 53 52 40 28 22 17 14 13 14 12 12 11 12 11 9 60 70 80 83 49 12 15 16 15 13 12 13 15 19
10 12 60 79 74 67 42 34 36 37 44 47 60 81 84 86 88 62 52 55 50 47 42 29 23 17 14 14 14 12 12 12 11 9 12 50 68 84 82 14 15 17 16 13 13 14 18 22 25
16 15 73 79 55 48 50 39 33 38 46 45 67 76 78 78 74 64 57 56 52 51 66 34 27 18 15 14 14 13 12 11 8 8 44 63 80 90 29 14 17 17 13 14 16 21 26 26 25
22 48 76 53 55 53 42 42 42 38 45 43 50 67 80 53 61 69 64 61 55 64 86 64 56 20 17 15 14 13 34 33 39 75 77 62 90 65 14 17 19 15 14 18 25 26 28 28 30
56 39 64 50 44 41 42 39 40 42 42 43 45 62 71 75 49 64 71 72 78 77 71 83 68 33 19 15 13 19 75 85 87 84 72 81 89 21 17 20 17 15 19 25 28 30 32 34 32
23 77 57 45 40 35 35 38 40 44 43 45 45 53 65 83 58 45 70 97 89 99 84 91 64 54 24 17 12 25 82 87 91 88 96 94 31 15 20 18 16 21 28 31 35 37 37 36 35
29 59 69 60 52 42 37 34 36 45 44 48 48 52 78 72 69 54 52 94 98 99 96 92 72 78 23 15 12 24 84 88 95 98 99 34 14 20 21 17 21 29 33 38 41 43 44 42 41
32 79 70 60 59 53 45 40 34 40 46 50 50 55 62 82 87 55 50 87 99 98 99 99 83 80 29 15 13 17 74 93 100 99 72 15 19 22 18 22 29 34 38 42 46 48 47 44 42
48 76 59 56 53 52 48 44 42 40 43 52 61 64 79 76 76 69 75 61 60 76 100 100 85 98 34 16 14 16 27 76 91 87 18 22 25 20 22 32 35 37 44 49 50 49 46 42 40
94 78 65 60 58 56 56 53 49 50 44 50 53 64 70 88 80 69 77 84 69 78 93 99 98 99 39 16 15 18 24 46 55 26 20 27 22 22 30 34 41 49 51 50 48 46 43 40 34
80 81 77 71 65 61 64 62 74 66 58 54 51 60 75 77 90 68 65 76 74 65 92 98 99 100 42 17 16 18 23 28 18 18 29 24 22 33 37 45 47 48 48 46 45 43 41 37 31
88 79 80 77 76 74 68 75 92 68 80 75 72 75 96 91 78 86 87 80 64 47 78 80 100 100 34 46 42 19 19 18 18 25 25 23 32 37 43 44 46 48 48 47 44 42 38 32 32
96 97 85 80 80 77 73 65 72 87 73 94 94 91 98 99 94 99 87 70 72 70 74 90 100 99 31 55 62 42 20 21 26 26 24 32 37 44 45 48 50 50 50 47 44 40 35 32 32
96 100 90 86 80 78 72 66 68 79 89 75 100 79 75 97 84 99 82 77 76 68 69 97 100 79 42 34 60 59 37 30 27 23 31 36 41 43 48 50 51 50 50 48 46 44 34 33 34
99 97 87 74 79 87 78 73 70 72 86 82 96 99 56 89 86 94 92 97 91 81 90 95 99 74 51 40 40 44 43 29 26 32 37 42 45 49 50 50 50 50 49 48 48 47 41 34 36
84 85 84 83 89 84 85 88 78 77 81 96 86 65 59 51 88 98 99 97 93 88 70 72 88 87 64 59 49 42 40 32 32 36 40 44 48 49 50 49 49 49 49 47 46 47 46 40 38
79 92 86 98 83 83 86 87 78 94 71 68 59 49 56 63 83 97 98 94 90 94 84 86 90 76 89 76 59 44 40 38 36 39 42 45 47 48 48 48 49 50 48 46 44 46 48 48 42
95 98 96 98 96 88 90 92 71 84 67 73 77 56 58 77 86 99 100 97 96 96 98 89 98 97 100 81 82 77 52 42 41 40 42 45 46 48 49 51 51 50 50 48 44 44 46 48 49
100 98 93 96 95 96 92 81 81 90 43 75 96 91 64 90 94 98 97 93 98 96 98 100 96 99 95 89 87 76 77 83 64 55 50 47 47 48 49 48 48 54 48 52 54 50 54 55 66
99 98 90 98 91 96 98 99 96 87 57 62 93 88 60 93 98 99 98 99 98 98 100 90 99 99 77 88 87 83 75 79 78 73 69 58 53 50 49 47 48 60 56 72 79 76 76 75 83
95 82 98 92 98 97 95 86 84 85 62 56 59 76 75 97 100 95 100 100 100 100 99 100 97 100 99 100 98 97 86 80 73 82 83 83 74 74 79 78 68 72 78 81 79 83 93 98 91
96 85 94 82 93 99 95 76 98 99 100 89 99 64 81 96 99 100 99 100 100 100 100 99 100 100 100 100 97 92 88 83 83 96 97 84 83 83 81 82 93 90 97 89 87 98 99 100 100
96 72 91 96 99 96 98 98 98 97 100 100 100 91 99 99 98 100 87 98 98 99 99 98 90 92 96 97 100 96 99 86 98 100 100 99 90 86 80 96 96 82 91 95 100 98 97 74 88
96 83 93 94 89 94 98 99 99 98 97 100 97 100 99 100 98 98 92 95 99 96 88 94 97 94 98 97 99 98 93 100 99 99 100 99 92 83 80 87 97 94 99 98 87 88 86 87 98
99 98 97 66 81 91 99 98 98 99 99 100 100 100 100 100 98 99 100 92 88 98 98 100 97 98 96 98 98 100 96 92 94 99 96 98 99 100 98 99 99 98 98 96 98 91 89 95 94
96 93 76 63 56 55 93 98 96 100 100 100 100 99 100 100 100 100 100 100 100 98 94 85 80 78 80 82 84 81 78 80 82 89 90 83 79 79 80 85 87 93 89 89 95 92 97 99 88
89 74 84 74 61 63 80 95 98 99 99 100 100 100 100 98 98 99 96 97 91 91 83 73 68 56 55 59 68 72 78 81 75 77 80 79 76 72 73 73 77 83 92 92 96 95 98 96 94
93 74 66 62 60 41 56 94 81 92 98 92 90 91 90 81 77 70 68 73 69 66 63 63 62 58 62 76 74 70 74 77 79 80 82 81 79 76 76 72 77 80 84 86 86 92 98 100 96
90 80 66 52 48 50 51 74 77 88 82 83 75 68 65 61 58 57 56 57 59 68 70 68 70 73 76 75 71 70 67 62 66 72 74 75 76 77 80 79 80 78 83 87 88 89 94 94 97

GFSSGP_700_rhum_102.txt.gz
RH
6 9 20 33 64 76 78 70 48 43 36 32 40 48 59 58 62 73 81 64 66 55 52 52 33 26 21 14 13 12 12 12 13 34 14 57 87 84 79 76 37 12 13 13 13 11 11 11 11
7 10 14 49 78 84 60 48 53 44 34 35 33 43 58 61 71 74 72 64 61 53 48 54 36 26 21 14 14 13 12 12 12 14 10 52 84 81 76 74 16 14 14 14 11 11 11 12 14
10 10 19 76 86 87 62 47 40 36 38 36 40 51 62 63 78 77 71 67 58 52 52 53 38 27 22 15 14 13 12 12 12 13 9 53 79 82 81 56 15 15 15 12 12 12 14 19 24
17 13 19 83 70 41 41 54 41 37 35 36 41 62 62 69 70 87 75 66 59 54 49 48 39 28 23 16 15 14 12 12 12 13 9 58 70 74 80 32 16 17 14 12 13 15 21 23 24
20 26 60 68 53 62 53 46 38 39 38 36 40 47 62 65 71 68 78 67 68 60 53 49 43 32 25 17 17 14 13 13 14 15 34 66 70 75 76 20 17 16 14 14 18 23 24 24 25
41 37 82 75 66 53 45 43 45 41 39 39 40 45 49 54 56 58 59 72 76 65 57 56 79 73 33 18 18 15 18 14 19 21 57 66 78 88 44 18 18 16 15 18 24 27 27 27 29
21 70 68 59 54 48 44 39 39 37 38 39 41 43 40 50 60 53 61 63 76 76 66 62 86 86 58 21 19 46 49 38 27 71 84 79 80 77 19 19 18 16 19 25 28 31 32 32 32
32 32 46 67 69 56 43 38 35 34 36 38 41 41 41 45 73 74 54 54 55 77 78 76 98 88 77 28 20 61 68 86 83 92 86 74 90 46 17 21 17 20 26 28 34 37 39 40 38
26 45 52 56 57 50 49 52 41 36 34 35 41 41 46 46 54 68 85 57 52 60 84 98 95 99 90 62 22 75 91 93 98 94 87 95 78 19 20 20 18 24 31 36 39 43 45 45 42
27 23 36 38 56 56 54 53 51 45 37 34 37 44 47 52 53 70 79 77 58 51 86 88 99 100 95 92 31 70 85 97 99 96 86 95 28 16 22 18 22 29 33 39 45 47 47 45 43
58 29 42 46 63 62 61 54 51 50 45 40 38 42 45 55 67 60 60 80 69 65 55 99 99 100 100 100 69 31 100 88 94 99 100 36 17 22 20 21 30 32 36 45 50 49 47 44 41
51 60 82 78 80 71 62 58 56 53 54 47 42 46 53 50 52 56 81 85 71 71 82 55 84 91 99 98 84 18 51 88 71 100 95 36 18 22 20 26 34 38 47 51 50 47 44 43 38
82 56 72 78 73 60 61 49 61 62 57 58 53 52 68 73 69 76 72 65 75 87 77 56 70 99 100 99 82 19 32 66 94 98 90 21 22 22 27 34 38 47 50 47 48 47 44 41 36
61 73 82 81 83 82 77 69 54 54 49 60 62 60 78 93 84 77 70 67 83 88 69 62 50 91 98 100 72 21 21 54 67 92 47 19 25 22 30 33 43 47 46 48 48 47 42 38 34
71 75 83 74 81 80 81 82 77 62 36 47 56 74 67 68 57 79 69 80 96 97 97 83 47 97 100 98 72 19 22 34 48 50 18 22 24 24 32 39 44 45 50 50 49 47 45 38 34
85 86 92 56 67 81 84 72 61 61 61 48 59 64 74 84 97 73 93 77 100 98 98 89 61 84 96 98 89 84 40 24 24 19 22 28 26 33 40 43 47 51 51 50 50 48 48 44 36
83 92 89 82 85 94 86 69 59 54 64 60 54 81 80 78 72 59 89 80 90 99 99 94 87 73 91 92 98 100 76 43 22 26 30 26 35 40 46 47 50 51 50 50 49 48 47 47 46
92 99 92 84 80 92 89 76 55 61 72 65 72 82 60 65 62 83 77 80 77 100 100 96 98 70 73 85 93 94 96 89 52 35 32 34 40 44 47 50 51 50 50 50 50 47 46 48 49
91 95 91 75 82 97 82 61 51 75 90 76 84 81 43 53 63 60 63 93 98 100 99 98 91 81 86 80 58 53 52 57 64 42 38 40 44 47 48 50 49 49 49 51 50 50 47 48 47
95 93 92 86 94 78 79 78 78 84 68 87 78 64 51 52 49 72 71 97 92 100 99 98 98 92 97 88 83 64 55 47 42 40 42 45 48 47 50 50 49 49 50 50 50 50 50 50 62
99 97 91 96 92 93 95 87 85 96 98 82 63 63 79 65 54 73 86 100 83 99 100 100 98 97 95 93 89 93 73 70 60 51 49 50 50 49 49 50 50 49 50 49 52 52 54 66 83
96 94 97 97 97 98 86 92 86 92 90 66 53 77 87 80 82 82 96 96 92 100 97 100 100 99 98 94 91 92 96 92 86 81 68 62 58 58 62 74 58 53 60 61 67 65 61 71 86
81 77 97 91 96 98 99 92 98 84 94 76 63 64 82 79 73 98 100 100 84 100 100 99 98 100 100 100 100 100 97 96 98 98 85 86 83 86 77 97 83 85 84 87 95 96 94 94 95
79 82 78 83 99 99 99 99 98 98 100 86 76 70 87 84 97 92 100 100 100 99 98 98 100 99 99 99 97 99 99 99 96 97 98 98 96 98 84 98 94 88 80 77 84 87 85 97 99
86 94 96 98 98 98 99 96 98 99 100 100 98 99 96 100 97 99 100 99 100 100 100 100 99 99 100 100 100 100 99 99 98 98 98 94 99 99 99 99 91 90 86 86 87 85 87 99 97
96 91 98 96 97 98 94 98 98 98 100 100 100 100 99 99 99 99 85 96 90 99 100 100 99 99 100 98 100 99 99 99 98 98 98 98 99 94 100 100 99 99 80 96 96 85 77 91 95
98 99 86 98 96 97 98 99 98 99 99 100 100 100 100 100 100 100 100 100 100 100 99 94 90 89 87 86 89 91 88 81 78 85 92 96 96 98 99 98 96 98 96 97 97 96 90 98 99
80 77 79 80 96 96 93 96 99 99 99 100 100 100 100 100 100 100 100 100 99 98 94 87 78 72 64 64 65 70 75 73 75 76 74 76 84 85 85 86 81 80 83 92 92 94 99 100 99
77 73 68 65 55 71 86 98 99 99 99 100 100 99 96 96 98 96 96 93 82 81 77 74 75 72 63 55 59 68 69 69 68 69 70 72 74 78 80 79 76 71 74 76 85 77 96 90 90
80 72 65 64 60 60 78 98 97 98 99 98 98 99 95 92 83 72 76 77 77 76 75 74 70 69 68 71 75 73 70 66 63 60 57 62 69 73 76 75 73 77 78 83 84 86 86 90 96

GFSSGP_700_rhum_105.txt.gz
RH
6 7 12 25 42 46 32 27 33 32 39 30 37 44 42 46 57 57 64 64 63 59 63 56 56 41 31 23 14 13 12 12 13 39 13 72 87 90 86 71 59 16 14 12 11 10 10 11 11
7 10 13 37 48 86 16 10 23 14 35 36 36 36 37 44 55 61 67 65 61 61 56 53 57 47 31 22 14 13 13 12 12 30 13 60 87 88 83 77 48 15 14 13 10 10 10 11 13
9 9 14 24 70 56 21 19 14 37 32 35 37 37 56 53 46 54 67 74 62 57 54 53 56 52 33 23 15 14 13 12 12 14 26 44 78 86 79 76 36 16 15 12 11 11 12 14 20
10 11 14 46 50 10 8 20 28 44 37 36 37 38 46 64 61 52 55 60 69 68 62 56 52 49 36 24 16 15 14 13 12 12 44 42 70 84 81 72 26 16 15 12 12 13 17 20 21
12 13 16 26 23 12 21 31 37 34 43 37 37 41 46 45 61 63 63 63 62 68 67 66 58 50 38 28 18 16 15 14 13 18 28 47 69 81 81 65 18 17 14 12 15 19 23 23 23
16 15 28 33 23 12 14 25 45 50 42 38 39 40 46 44 47 51 56 56 54 54 63 66 63 64 49 36 20 17 15 17 33 37 31 44 68 72 84 43 18 17 14 14 19 24 25 25 26
14 18 16 19 26 24 18 25 37 43 42 38 40 40 42 43 44 47 49 48 45 47 67 66 70 72 76 57 26 20 34 48 44 61 58 58 72 72 86 26 19 16 14 16 23 26 27 29 29
22 24 26 32 34 21 20 45 49 44 40 38 38 38 41 43 46 49 58 56 53 66 56 70 87 80 80 80 38 23 55 48 48 85 65 74 74 81 78 23 19 16 15 19 25 29 32 33 35
22 27 31 27 22 22 19 33 42 42 43 35 32 36 38 42 45 51 49 56 63 67 69 59 81 95 87 80 45 26 57 67 74 71 78 91 79 79 61 21 18 16 19 25 29 33 37 38 38
17 15 23 20 26 38 28 43 35 30 39 40 33 34 36 44 45 47 53 57 55 70 70 69 72 92 90 84 63 31 60 76 78 78 94 91 78 86 42 19 19 17 22 30 36 39 41 42 41
17 18 19 24 28 38 44 46 54 48 22 35 37 32 36 43 49 46 52 57 57 74 79 81 80 98 98 99 73 48 63 99 90 92 99 90 92 85 28 18 19 18 25 33 39 43 44 44 43
31 32 29 32 29 32 39 46 37 48 47 27 38 35 36 40 49 53 55 54 53 64 77 78 78 76 85 96 98 76 60 87 98 96 99 94 100 45 20 20 18 23 32 37 42 46 48 45 42
42 28 44 48 44 41 37 38 30 28 32 48 35 40 39 44 50 66 60 67 54 60 77 72 71 86 77 88 100 89 53 94 72 99 99 95 98 36 20 23 21 34 36 38 46 49 47 43 39
36 40 35 38 42 51 49 35 50 31 19 15 48 36 46 44 50 64 81 70 64 54 67 68 69 69 63 52 92 95 51 88 93 98 94 99 84 24 25 22 27 34 39 47 49 48 47 44 37
47 38 32 34 47 48 54 56 23 24 40 28 17 40 50 52 50 54 71 54 78 67 51 62 82 66 56 47 60 99 79 34 94 86 98 99 54 26 25 22 31 37 46 50 51 49 46 44 39
53 56 44 45 66 72 76 48 40 52 48 41 32 23 49 57 59 61 74 60 73 63 54 74 74 74 78 64 61 97 100 38 68 98 88 91 76 24 26 23 36 45 51 50 51 51 49 47 44
60 70 72 54 63 85 91 83 56 66 63 63 48 30 26 45 63 67 69 66 64 75 68 80 88 97 88 99 61 100 96 53 47 78 85 55 79 27 25 32 42 51 52 52 52 51 49 48 48
74 90 82 78 60 86 85 81 86 75 84 74 61 58 56 61 57 57 66 59 58 79 98 95 98 99 97 100 81 99 96 58 52 70 84 83 28 32 28 42 48 50 52 52 51 51 50 48 47
76 80 74 63 71 92 92 91 51 59 58 58 62 56 60 58 44 54 52 50 68 76 66 72 97 99 100 98 74 99 100 92 61 54 40 26 31 32 38 46 50 50 51 51 50 51 51 48 48
91 98 90 69 78 89 90 76 60 68 74 75 37 51 71 69 55 53 63 56 68 79 83 87 100 100 99 94 81 98 100 100 98 79 48 37 38 36 44 47 50 50 51 50 50 51 51 51 51
83 93 82 88 93 89 89 81 67 69 72 83 77 74 90 63 77 54 55 63 73 72 96 100 99 100 100 89 91 100 100 99 97 99 80 54 48 44 46 47 49 50 50 50 51 52 57 62 60
99 84 99 99 100 97 97 93 79 71 79 80 78 86 80 84 68 58 56 79 78 82 100 95 100 100 99 99 99 97 96 100 98 90 81 63 62 59 56 54 53 55 54 60 61 70 81 79 80
91 84 83 89 97 99 84 99 95 81 83 78 76 70 77 82 81 84 87 98 86 86 97 98 100 100 100 99 99 98 99 98 99 99 91 80 72 65 58 64 69 66 75 92 91 94 94 98 98
93 88 87 86 96 98 99 99 97 97 98 80 65 75 78 93 94 93 95 92 88 88 96 100 100 100 100 100 100 100 99 96 98 98 87 95 86 80 89 86 83 99 95 90 88 86 86 99 86
96 100 94 98 98 98 98 98 97 99 99 86 73 67 92 97 99 93 89 67 100 98 100 100 100 100 98 100 100 100 100 99 99 98 98 96 100 98 100 84 88 90 87 90 97 93 88 92 96
95 98 98 96 97 98 98 97 97 99 98 99 97 100 99 98 98 97 98 100 100 100 100 100 100 100 100 100 100 100 98 99 98 98 98 98 98 98 98 100 100 100 91 98 99 98 97 96 100
99 99 99 98 98 97 98 98 99 100 99 100 100 100 100 100 100 100 100 100 99 100 100 100 100 100 99 100 100 100 100 100 98 97 93 97 99 99 100 97 100 100 98 97 97 97 84 99 98
87 97 98 93 97 96 97 98 98 99 100 100 100 97 100 100 100 100 100 100 100 100 99 99 97 89 80 76 82 77 83 87 88 85 86 79 82 89 94 89 95 96 91 98 100 96 97 99 92
81 76 83 72 70 84 93 98 98 99 100 100 100 100 100 100 100 100 100 100 97 90 90 89 85 81 74 70 78 80 73 68 68 70 73 73 77 79 81 84 85 83 83 82 84 89 92 100 99
73 67 62 69 62 64 87 98 99 99 99 100 98 98 97 98 94 94 99 88 87 82 80 84 86 82 80 82 81 79 76 73 71 68 64 61 60 67 71 74 78 81 84 83 81 78 82 84 84

GFSSGP_700_rhum_108.txt.gz
RH
5 8 12 18 26 34 23 21 27 29 30 24 31 38 47 46 48 56 51 51 61 57 61 64 60 56 47 35 26 16 13 12 12 18 21 18 66 83 79 77 66 26 15 13 10 10 10 10 9
6 6 12 40 31 62 9 7 10 16 19 45 38 42 43 42 46 44 56 56 57 58 60 62 61 60 53 36 29 17 13 13 12 39 22 30 83 93 85 77 61 20 16 12 9 10 11 10 10
7 7 8 21 47 39 8 18 15 11 19 37 40 43 39 41 58 55 53 62 58 60 59 58 56 59 56 40 32 18 14 13 13 16 48 23 79 90 88 78 51 19 16 12 10 10 11 12 16
8 9 9 16 15 9 5 29 13 36 38 39 43 40 65 58 47 62 68 62 52 59 57 58 59 56 57 45 37 20 15 14 13 14 46 37 62 87 86 78 45 20 17 12 10 11 15 18 20
9 10 12 11 10 7 7 7 11 23 39 45 47 42 43 68 61 44 59 74 74 65 59 70 70 66 54 49 48 24 16 15 14 13 40 42 51 74 82 82 41 23 17 12 10 13 18 21 21
10 9 13 14 9 7 7 9 30 32 23 43 47 44 41 64 66 71 51 49 60 62 65 61 63 62 66 57 51 31 18 16 20 16 36 52 52 66 73 81 47 21 17 12 12 16 21 23 23
11 10 11 11 11 9 8 9 10 23 38 37 48 43 41 40 49 64 76 62 54 55 55 55 53 65 66 67 58 38 21 24 43 26 42 56 53 71 73 79 38 20 17 13 17 22 24 24 25
14 15 13 12 11 10 8 9 14 16 18 39 44 40 40 40 47 67 83 75 64 53 54 42 46 60 71 63 64 49 23 36 52 38 57 60 55 74 71 81 28 21 16 15 21 26 27 28 26
21 22 17 15 14 14 12 12 12 27 28 27 40 41 38 38 42 75 72 71 73 60 53 56 59 66 84 77 73 71 25 52 58 40 59 72 69 80 79 82 28 21 16 18 24 28 31 33 32
16 18 18 15 15 19 13 15 11 17 39 31 38 40 37 36 41 68 68 65 65 63 61 56 57 68 76 90 89 86 33 51 67 47 70 77 78 82 84 70 25 21 17 20 28 32 34 37 37
16 16 15 14 16 19 14 13 15 10 13 34 32 38 36 36 37 56 69 77 65 59 61 58 53 60 71 78 95 94 59 38 80 68 83 71 82 86 94 54 24 20 17 23 29 34 37 40 39
19 19 19 20 21 21 20 20 14 17 11 12 32 34 36 38 36 39 50 63 72 71 59 58 59 64 65 82 96 99 68 29 89 77 71 68 93 90 98 54 24 21 19 26 36 37 39 43 42
27 25 29 24 20 18 20 20 20 15 17 15 12 26 34 36 38 38 42 53 68 74 70 65 69 83 79 61 72 87 100 52 95 90 83 79 94 84 98 51 24 22 25 30 34 37 46 48 43
28 30 29 29 30 36 30 28 46 20 22 19 15 12 19 34 41 42 45 46 59 84 68 59 57 62 68 70 70 73 70 71 85 100 86 90 99 90 100 77 27 22 29 34 37 45 49 47 43
29 28 38 35 49 38 69 47 25 46 68 62 26 14 12 18 38 48 50 58 63 68 66 71 57 55 67 73 68 53 54 79 71 100 98 99 91 100 97 24 29 26 34 38 43 50 48 47 45
42 45 45 44 56 61 77 58 39 48 64 71 62 29 18 20 25 45 53 56 65 73 63 60 66 54 53 54 60 53 54 49 75 94 98 98 96 94 100 30 51 27 37 40 52 51 50 50 46
56 64 70 60 56 56 70 60 32 53 75 63 58 38 26 18 31 44 53 60 60 69 65 56 55 59 46 55 60 65 59 51 83 85 100 100 95 93 82 73 33 34 42 45 54 52 51 50 49
73 80 62 58 49 58 60 44 46 51 53 41 32 35 30 23 20 33 44 59 67 67 53 54 50 58 53 63 72 82 77 61 63 81 85 99 100 98 61 58 32 39 44 50 52 52 52 51 51
82 82 83 60 55 67 46 50 49 51 45 33 39 73 54 26 27 26 32 57 63 62 58 49 50 81 70 66 93 99 79 83 98 86 55 91 100 99 98 35 32 45 48 52 53 53 52 52 52
97 90 73 62 74 95 65 52 53 50 48 39 48 91 59 54 33 46 42 50 54 48 53 64 64 92 84 97 92 99 97 100 97 93 84 59 68 84 96 36 34 45 49 53 52 52 51 52 53
100 100 78 90 85 85 81 76 53 47 49 51 60 71 59 69 58 56 52 53 53 49 44 69 72 77 81 100 98 98 99 99 100 90 95 91 75 80 44 36 34 45 50 52 52 52 52 54 57
100 100 98 99 96 98 97 92 74 66 58 47 66 61 54 65 70 78 48 55 51 44 58 66 98 93 79 100 100 98 98 98 98 96 96 90 79 51 48 43 44 48 50 55 53 54 56 64 79
96 100 92 88 93 99 100 99 74 87 77 71 58 57 59 62 81 73 42 47 52 74 76 91 98 99 99 98 98 99 100 99 100 99 100 99 93 63 56 49 47 49 50 53 62 73 80 95 92
92 93 86 93 100 99 95 98 94 97 98 76 63 66 60 73 80 74 73 78 74 91 96 94 98 98 98 99 100 100 100 99 98 100 98 99 98 97 90 79 72 81 74 69 82 80 94 94 98
98 98 93 94 98 95 99 99 95 98 100 92 79 70 79 95 94 95 99 95 89 98 92 93 98 99 100 100 98 100 100 99 99 100 99 100 100 99 98 97 95 88 98 94 98 98 99 92 99
100 100 98 96 97 97 96 97 97 100 86 89 86 90 98 99 99 99 99 99 94 96 99 100 100 100 100 100 100 100 98 98 100 100 100 99 99 99 100 100 99 98 99 99 98 100 99 98 100
98 99 99 98 97 98 96 97 97 99 99 98 99 99 99 99 100 100 100 99 100 100 100 100 100 99 100 100 99 100 99 100 100 100 99 100 98 97 98 100 98 96 98 94 95 92 98 100 99
97 96 98 98 97 96 86 98 98 98 99 99 99 99 99 100 99 100 100 100 100 100 100 100 99 98 98 100 100 99 100 99 98 99 100 99 100 100 95 100 96 98 99 100 99 98 91 98 99
92 97 95 96 90 96 95 98 98 99 99 99 99 99 99 100 100 100 100 99 99 99 98 98 95 91 94 87 77 84 87 89 89 87 85 89 88 90 90 97 96 97 98 96 96 92 100 99 98
85 84 83 65 87 79 96 98 98 98 99 99 100 99 96 100 91 92 86 83 86 88 88 87 84 84 83 87 89 88 85 82 79 77 74 73 72 74 75 78 82 84 85 85 87 86 86 88 90

GFSSGP_700_rhum_111.txt.gz
RH
4 4 6 12 24 22 28 21 20 22 22 20 26 36 43 48 49 52 64 59 57 56 57 57 61 60 55 48 36 29 20 14 13 14 24 16 16 22 66 73 66 48 19 17 12 7 7 9 10
5 5 7 19 18 28 8 8 18 28 48 41 27 28 37 42 42 48 47 56 62 59 61 61 59 60 60 54 40 32 20 15 13 21 23 19 33 78 79 78 70 45 20 18 12 8 8 8 10
7 7 7 12 26 14 7 8 13 17 25 45 50 39 41 46 39 45 57 63 61 60 59 56 58 58 58 57 45 35 21 16 14 25 49 21 61 87 87 82 71 42 22 19 12 8 8 9 14
10 10 10 15 10 7 6 12 11 12 18 23 39 42 46 50 54 49 54 73 68 55 57 57 54 55 61 60 50 41 24 16 15 14 48 44 52 82 87 84 74 38 22 19 12 9 10 13 19
10 11 12 11 8 7 7 9 16 19 37 44 47 45 45 53 67 62 67 69 75 76 72 61 60 69 68 58 54 48 29 19 16 15 16 50 40 71 88 88 76 40 24 19 12 10 13 16 18
10 10 11 11 9 8 7 7 10 12 11 40 45 46 44 47 69 71 80 74 72 72 73 72 64 59 63 66 60 52 41 22 18 24 14 33 47 64 84 92 79 47 26 19 12 12 17 20 19
12 11 10 9 9 8 8 8 8 11 17 22 36 43 45 43 54 55 74 78 72 78 67 59 63 59 56 60 63 62 51 29 19 41 22 31 50 54 81 90 83 44 25 19 13 14 20 22 20
14 13 12 11 11 10 11 10 9 8 9 18 28 41 44 43 42 47 60 77 82 76 78 76 57 53 56 52 60 62 60 45 23 50 42 39 55 45 82 87 85 44 22 18 14 17 23 23 22
16 17 16 15 14 14 13 12 11 9 8 8 14 35 42 43 41 41 55 66 80 93 82 76 71 58 52 47 52 70 65 59 28 61 64 54 69 43 70 84 83 47 23 18 15 19 24 25 25
19 18 20 18 17 15 12 12 11 12 10 8 11 12 38 43 40 39 43 66 74 78 88 73 67 65 62 66 67 83 82 75 35 50 63 67 86 55 58 78 79 50 24 19 17 22 25 27 28
19 20 20 19 17 15 12 11 11 10 9 10 11 15 27 43 41 39 40 65 69 73 78 84 80 68 58 63 68 82 100 91 42 47 59 61 88 72 54 77 81 52 25 20 19 24 28 30 30
19 17 16 17 17 16 15 13 11 11 10 9 8 10 24 39 42 39 38 51 63 68 77 79 83 64 61 56 63 70 93 100 56 47 63 72 65 85 69 78 82 53 26 20 22 28 32 36 37
18 19 19 17 16 16 16 15 16 9 13 11 8 8 9 28 41 42 40 42 65 67 66 66 71 75 55 62 70 71 74 81 78 49 78 84 84 84 78 84 88 61 25 21 22 27 34 41 43
24 20 18 16 16 22 17 17 19 13 24 19 12 9 9 10 28 36 40 39 42 61 64 61 66 78 75 61 80 75 80 90 88 56 83 94 88 65 75 98 90 49 30 23 24 29 38 48 47
23 20 20 22 26 29 34 27 24 29 38 36 42 26 12 9 10 24 34 41 41 41 56 62 60 66 58 54 56 60 63 70 66 66 72 94 86 78 87 99 96 60 27 29 26 32 38 46 44
27 29 29 35 39 45 54 31 24 27 36 46 47 39 29 14 10 10 21 32 43 45 45 54 62 69 60 57 59 58 52 54 62 52 55 58 94 96 93 99 95 51 31 31 32 35 42 48 46
46 46 40 35 42 53 50 38 21 28 48 57 39 38 34 29 13 12 14 19 36 46 49 52 63 53 54 52 58 56 52 52 51 59 54 55 77 97 99 100 100 68 35 36 40 39 48 51 49
72 73 54 41 44 70 82 35 25 31 56 58 38 36 30 22 23 17 15 15 28 46 50 60 73 70 64 54 50 46 52 49 48 49 62 56 64 99 100 99 100 82 38 44 42 43 53 52 52
80 89 86 45 60 98 61 69 30 34 43 46 42 34 27 32 22 25 22 28 24 39 52 51 62 62 60 50 48 40 46 50 55 58 78 69 63 92 100 100 98 67 54 68 52 50 55 54 53
100 100 98 64 70 96 74 52 43 40 43 44 41 32 30 39 37 26 27 29 29 44 52 58 54 59 55 48 44 43 36 40 48 85 85 87 76 87 97 96 98 96 82 52 58 58 55 55 53
86 99 100 100 85 79 98 61 48 49 50 52 42 38 35 31 27 42 33 39 34 44 56 56 55 52 42 50 65 73 55 49 99 92 93 97 92 87 100 100 99 62 49 50 53 53 55 54 53
95 83 100 99 97 90 100 91 78 60 60 64 55 43 46 52 57 51 58 37 38 51 54 54 48 46 46 54 67 81 91 96 98 98 97 94 88 99 99 99 96 95 44 45 52 54 54 53 53
88 97 90 96 96 100 99 99 81 77 78 78 74 51 52 54 64 77 83 55 45 47 46 46 42 44 43 58 83 79 98 98 99 99 98 99 99 98 98 97 99 68 50 50 53 53 53 53 56
90 89 91 100 99 97 95 98 82 92 98 98 74 64 61 67 64 74 84 52 64 64 64 61 49 40 37 64 98 92 87 98 98 99 98 97 98 98 98 96 86 58 56 52 63 65 68 69 68
94 96 94 87 100 92 98 99 90 99 97 100 70 58 69 68 78 71 66 77 63 69 73 72 59 54 70 98 98 97 99 100 99 99 100 100 99 99 98 97 91 88 79 77 92 93 73 72 83
98 99 98 96 100 95 98 98 97 100 100 100 82 88 81 97 98 90 91 96 85 74 73 93 89 98 97 98 100 100 100 100 100 100 100 100 100 100 100 99 100 100 100 100 98 97 94 97 88
98 99 99 98 95 98 97 97 98 100 99 95 92 86 98 99 99 100 100 100 99 98 99 98 98 100 100 100 98 99 100 100 100 100 100 99 99 99 98 100 100 97 99 100 98 98 99 96 96
98 99 99 98 97 96 97 98 98 98 98 99 99 99 99 98 99 99 99 99 100 100 100 100 100 100 98 100 100 99 100 98 98 99 100 98 98 98 99 100 98 100 98 99 92 100 99 98 99
98 98 100 100 93 96 95 98 98 98 98 99 99 99 99 99 99 99 99 99 100 99 100 99 100 100 100 99 100 99 100 99 100 98 98 99 99 100 99 99 99 98 98 98 100 93 99 99 99
97 94 97 98 85 82 96 98 98 98 99 99 99 97 96 92 88 89 92 96 98 98 98 93 85 90 98 98 89 88 82 80 78 78 80 77 74 72 75 78 78 78 80 78 80 79 82 84 83

GFSSGP_700_rhum_114.txt.gz
RH
5 4 5 8 20 15 13 11 7 18 16 15 29 36 60 57 51 52 63 69 62 61 59 65 64 62 60 56 48 37 27 18 15 14 18 20 15 17 25 70 71 55 36 26 23 9 7 8 9
5 5 7 18 16 25 10 8 9 27 29 27 26 31 47 47 49 48 50 51 60 65 70 73 66 66 62 60 54 43 32 20 16 17 19 24 18 27 66 75 73 55 35 31 28 10 7 8 9
6 6 9 9 14 8 7 9 11 24 40 40 33 24 35 42 43 44 52 59 68 61 61 59 60 63 65 63 57 47 36 23 22 39 49 39 25 72 82 83 76 57 31 28 30 11 8 8 10
8 8 10 15 8 6 6 10 13 14 26 28 35 45 36 41 43 45 54 72 73 69 57 56 57 55 56 66 62 52 42 26 19 28 55 53 39 69 80 88 81 58 32 27 28 12 8 10 14
10 10 12 12 11 9 8 9 18 19 24 26 23 35 43 40 46 42 55 75 65 78 72 68 60 61 68 66 64 57 50 32 20 20 32 55 45 68 76 94 85 59 33 26 26 14 10 14 16
10 10 11 11 10 9 8 9 10 11 11 19 31 22 44 44 48 50 49 76 79 87 84 79 68 58 60 66 66 64 57 47 25 22 27 34 50 58 84 91 89 65 38 28 22 15 10 16 18
14 12 11 10 10 10 10 9 9 9 11 15 18 34 39 45 45 55 57 78 80 82 78 85 69 65 58 56 58 60 60 62 46 22 25 36 57 56 79 91 94 78 47 29 22 14 11 16 18
16 14 14 13 13 14 14 13 12 10 9 10 14 24 32 43 44 51 57 73 76 81 84 87 79 69 62 63 58 56 61 56 61 40 21 37 45 63 65 82 89 85 56 34 21 14 12 15 18
16 18 16 16 17 17 16 15 14 13 11 9 10 11 18 34 43 44 46 53 63 76 77 83 90 90 68 60 61 63 68 74 66 57 34 52 42 62 62 82 91 86 67 39 24 15 14 17 19
20 19 19 18 18 18 18 17 15 14 12 12 10 9 9 14 38 43 42 42 54 67 81 87 89 80 89 63 60 63 77 83 79 72 39 60 49 53 69 71 95 92 71 44 25 17 15 18 20
22 21 20 19 20 19 17 15 14 13 12 11 10 10 10 9 13 36 42 41 41 54 54 76 89 81 87 83 61 72 81 88 100 92 43 60 74 58 74 58 73 87 77 51 28 19 16 18 23
22 22 21 19 17 17 16 16 14 13 12 11 10 9 9 9 9 16 39 42 41 46 65 64 70 81 84 85 84 62 60 79 75 96 52 62 86 92 85 75 64 80 85 38 26 19 18 20 24
22 22 20 20 20 18 16 14 12 11 11 10 8 8 8 8 8 11 22 40 40 41 62 72 73 74 85 77 59 62 54 58 72 91 56 55 80 81 77 91 68 81 94 36 26 21 19 23 28
26 24 22 20 17 14 14 12 12 12 12 10 10 9 8 7 8 8 13 28 41 40 42 64 68 72 78 80 72 66 58 53 63 88 88 82 74 79 77 89 77 87 97 35 28 26 29 27 28
26 25 22 18 16 20 18 14 13 21 20 18 16 17 16 12 9 7 7 14 37 40 39 43 64 64 62 68 82 67 66 70 72 80 80 79 71 92 90 93 87 84 99 38 29 32 32 32 33
28 26 22 25 28 33 34 18 21 22 19 20 20 19 25 25 22 18 9 7 16 39 40 40 52 67 63 60 64 65 58 52 48 52 55 58 58 64 88 99 94 76 99 60 30 31 37 41 38
31 30 26 23 29 30 37 20 23 20 19 15 17 26 25 22 23 24 25 13 8 17 38 40 40 44 55 64 53 57 60 56 54 50 51 49 49 56 72 68 76 79 95 94 34 35 38 46 47
45 46 40 36 34 51 57 20 24 22 26 21 16 31 32 30 24 31 29 23 15 10 17 34 41 41 51 56 70 64 56 53 51 48 42 44 48 45 49 54 67 90 100 100 45 44 43 45 50
63 77 89 28 57 60 47 39 25 28 35 28 34 33 32 31 31 23 21 17 19 13 12 23 39 44 42 49 48 61 54 52 48 44 40 38 44 49 49 59 61 91 94 100 76 52 57 50 52
82 69 42 47 65 88 76 44 31 33 36 40 40 39 34 30 30 28 23 27 20 20 14 14 34 51 55 46 49 47 56 46 42 42 39 38 48 49 44 61 76 87 97 99 94 76 62 57 58
67 68 60 92 95 96 93 60 48 52 56 54 54 48 45 34 35 34 25 16 30 24 22 19 26 46 53 52 48 44 44 36 37 32 34 39 57 54 90 90 84 100 100 98 100 97 69 61 63
82 78 97 100 94 92 88 89 76 66 70 79 83 72 50 39 39 46 41 19 34 33 29 25 29 48 53 51 50 44 36 35 41 44 61 58 90 86 98 99 96 99 97 97 100 99 90 70 65
75 97 85 92 94 100 98 98 70 79 75 84 91 80 58 47 49 54 62 45 65 42 32 43 53 54 61 59 47 40 40 44 64 84 82 91 96 94 95 94 99 94 100 99 96 86 72 66 72
85 79 80 92 94 99 84 96 77 96 98 94 100 88 67 59 53 52 63 74 65 49 45 60 56 56 54 49 42 44 43 46 78 87 82 97 94 99 99 99 97 99 99 97 99 89 72 66 62
89 94 91 85 99 92 89 99 98 97 100 100 100 99 68 58 54 54 58 69 80 61 56 60 65 66 50 48 56 40 39 41 84 91 94 91 94 100 99 100 99 99 98 96 95 91 81 76 74
92 98 98 97 98 92 90 97 93 99 100 99 100 98 70 68 55 60 74 86 60 80 75 72 72 74 82 79 59 41 43 78 94 92 97 98 98 99 100 100 100 98 100 98 98 81 64 71 87
98 99 98 98 96 98 94 96 98 98 100 99 99 99 77 95 99 99 86 99 85 82 90 95 94 90 82 79 63 98 99 100 100 100 100 100 100 100 100 99 98 100 100 99 99 99 99 98 100
99 100 99 98 97 96 96 98 98 97 98 99 98 99 98 98 99 99 99 99 99 96 98 98 95 96 91 100 100 100 100 98 100 100 99 98 98 99 98 98 100 99 100 100 100 100 98 99 98
98 100 99 99 97 96 94 97 97 98 98 98 98 98 99 99 98 99 99 99 99 100 100 100 100 100 100 100 100 100 100 100 99 100 99 100 100 99 100 100 100 100 100 100 98 98 99 100 98
82 89 99 98 98 91 94 98 98 97 98 97 97 94 93 91 90 92 99 99 99 99 99 100 100 100 100 100 100 100 100 100 99 100 100 100 99 95 88 93 94 99 100 100 98 98 99 100 100

GFSSGP_700_rhum_117.txt.gz
RH
5 5 5 8 17 8 8 8 6 15 14 13 26 36 43 42 48 47 71 73 67 56 63 63 69 65 60 57 54 45 34 24 17 16 18 21 16 17 24 72 70 56 24 26 32 17 7 7 8
5 5 6 13 15 13 8 6 8 14 15 18 19 26 36 57 55 45 61 63 64 74 76 77 75 68 65 62 58 52 40 28 19 19 19 23 19 20 37 79 74 62 38 30 32 20 7 7 8
6 6 10 12 11 10 8 8 8 13 22 24 25 24 32 50 50 50 47 49 52 67 63 66 66 68 67 66 63 56 48 38 22 26 37 40 22 57 78 84 78 63 41 30 31 24 7 7 9
7 8 10 14 9 8 10 13 13 14 28 30 35 37 30 30 42 43 44 51 55 62 63 61 59 60 60 63 67 62 53 40 25 28 67 56 36 51 83 87 84 68 40 30 27 27 8 8 11
8 9 12 12 12 10 11 11 17 17 26 28 26 35 37 37 29 34 44 43 48 68 71 61 56 57 61 67 69 67 60 51 33 21 28 54 52 66 82 88 87 75 44 32 28 25 10 10 12
9 10 11 11 10 10 9 10 13 22 26 26 20 21 37 40 35 33 44 51 49 58 80 76 68 62 61 65 70 69 66 62 49 29 22 23 44 62 80 85 93 84 55 36 28 25 11 12 15
12 10 10 11 11 11 10 10 9 9 9 10 13 15 28 31 42 42 48 54 74 72 78 83 80 73 64 55 58 59 62 65 72 53 29 21 35 50 70 89 97 92 65 40 29 24 13 12 17
15 15 14 15 17 17 16 15 14 12 10 10 9 11 14 28 38 44 48 58 65 81 78 76 79 82 69 70 65 67 63 61 58 62 48 22 28 47 56 74 93 96 79 43 30 24 15 13 16
18 18 18 17 17 17 17 18 17 17 16 14 11 10 9 16 31 41 44 48 60 86 81 77 81 82 80 66 70 76 80 78 76 72 64 43 33 38 61 64 84 92 89 54 34 23 18 13 16
22 21 19 18 18 17 17 18 18 18 16 15 14 13 10 8 12 29 42 44 52 58 74 75 80 89 88 86 82 69 64 71 77 74 78 59 48 48 45 62 74 94 95 70 39 25 20 16 17
25 22 20 20 20 18 18 18 18 18 17 16 14 13 12 12 8 9 23 39 44 44 49 63 72 77 80 85 88 77 63 72 86 77 89 85 44 65 54 59 67 88 100 86 55 29 22 20 20
26 23 22 21 21 20 19 17 17 16 15 15 14 13 12 12 11 9 8 20 40 42 42 49 64 75 81 79 87 75 61 70 84 91 94 94 65 60 88 76 77 73 88 96 67 31 24 22 25
24 23 23 23 21 20 19 18 16 12 13 12 11 11 11 10 10 10 9 8 12 36 42 41 44 56 68 72 74 84 66 57 56 76 76 88 75 61 88 94 93 90 76 96 89 35 27 26 31
25 27 26 23 22 21 19 17 15 12 12 11 11 10 9 9 8 8 8 9 8 10 31 41 41 47 65 68 68 73 65 59 56 52 60 75 81 64 73 83 91 95 81 86 100 51 30 32 34
31 28 25 23 21 18 17 14 13 14 13 15 16 14 12 11 9 7 7 7 8 8 11 27 41 45 60 72 71 69 70 61 56 57 71 84 80 84 81 80 80 89 99 86 97 81 32 34 35
29 27 25 25 23 22 20 16 16 17 17 16 15 14 13 12 11 9 9 8 8 7 8 15 32 41 50 66 73 68 64 74 65 62 65 66 64 63 69 72 73 88 95 100 92 100 36 38 41
29 28 25 23 20 18 19 14 13 18 16 12 11 10 10 11 12 15 16 11 13 14 8 8 22 38 43 58 68 68 67 73 62 55 52 48 47 51 50 51 58 63 74 85 92 98 90 43 50
27 28 25 20 24 26 22 13 17 21 18 12 12 16 13 11 16 29 28 18 14 13 17 10 10 32 41 44 70 69 66 62 57 53 50 48 47 44 41 39 47 56 60 65 75 82 98 68 67
28 30 27 26 30 27 30 20 20 28 21 17 20 20 18 17 26 26 28 22 16 19 21 17 10 15 39 42 44 54 55 52 51 56 54 52 49 43 38 35 35 44 45 50 63 94 95 97 77
32 39 32 38 50 73 65 26 31 38 40 41 35 34 34 30 30 30 28 20 18 19 18 18 16 11 25 42 43 42 49 64 65 58 50 48 46 43 39 34 33 44 46 46 54 84 91 98 95
43 51 55 78 75 76 78 56 45 52 62 63 59 52 50 43 38 36 28 25 23 24 21 22 17 16 16 38 46 45 52 54 51 57 52 43 37 32 27 25 34 39 47 59 69 83 86 98 100
55 64 72 82 96 96 89 90 70 57 66 73 76 74 66 63 56 46 37 35 35 33 19 21 25 20 15 35 54 47 42 44 47 44 38 36 30 24 31 47 71 82 88 89 78 80 92 99 98
64 74 79 92 99 100 98 100 64 70 71 90 96 99 98 73 69 47 46 46 46 41 23 28 28 24 19 38 54 63 53 44 41 41 37 39 43 74 72 58 86 93 96 92 91 93 99 100 100
83 80 87 96 98 98 81 93 76 94 98 98 99 94 97 88 71 56 50 52 52 60 38 32 26 26 37 48 56 57 55 49 44 38 38 45 71 93 77 92 88 89 96 97 100 96 100 98 99
89 87 91 82 97 89 78 99 98 93 98 99 100 100 99 85 68 65 61 62 64 64 52 33 39 42 50 58 54 55 62 58 53 42 41 56 86 95 87 85 89 99 99 100 100 96 100 99 97
88 89 99 97 92 86 85 94 97 94 100 99 100 100 99 100 95 99 84 72 68 74 63 37 54 61 64 69 63 72 55 50 43 38 36 45 86 90 88 89 95 100 99 97 99 100 99 97 99
98 99 98 98 100 99 92 97 92 98 100 97 99 98 99 97 98 100 100 90 73 69 69 62 67 71 75 86 81 62 56 50 46 48 64 95 98 98 98 99 96 99 99 100 100 100 100 100 99
100 99 98 98 98 92 84 98 97 91 98 99 98 98 99 98 99 99 99 92 92 89 97 98 98 96 99 100 85 81 97 96 100 100 100 100 100 100 100 100 98 100 100 100 100 100 100 100 100
97 98 99 98 98 94 92 94 98 100 98 98 98 97 97 98 99 99 99 99 98 99 100 100 98 100 100 99 100 100 100 100 100 100 100 100 100 100 100 99 100 98 98 99 99 100 99 100 100
88 95 95 98 98 97 99 98 97 96 96 96 92 85 88 88 95 97 99 99 99 99 99 100 100 100 100 100 100 100 100 100 100 100 100 99 100 100 100 100 100 100 100 98 98 100 100 100 99